Date StartTime U_cm/s V_cm/s W_cm/s Ustd_cm/s Vstd_cm/s Wstd_cm/s Uvar_(cm/s)^2 Vvar_(cm/s)^2 Wvar_(cm/s)^2 KE_(m/s)^2 TurbulentKE_(m/s)^2 HorizWindSpeed_cm/s FrictionSpeec_cm/s DragCoef SpeedOfSound_m/s SonicTemperature_C Pressure_mb 
05/16/2014  00:00:00       65.930      -77.613       -6.748       51.755       42.160       27.772     2678.580     1777.484      771.308        0.782        0.261      101.836       23.249        0.052      343.485       19.630      865.541
05/16/2014  00:01:00       89.632     -102.075        0.691       48.855       48.007       31.378     2386.767     2304.645      984.564        1.206        0.284      135.843       31.992        0.055      343.672       19.949      865.539
05/16/2014  00:02:00       25.918      -28.890       11.527       28.244       45.536       28.193      797.709     2073.486      794.858        0.265        0.183       38.812       19.995        0.265      342.930       18.684      865.529
05/16/2014  00:03:00       47.871        6.296        3.749       17.475       18.912       23.933      305.373      357.670      572.802        0.179        0.062       48.284        6.525        0.018      342.309       17.629      865.538
05/16/2014  00:04:00       67.769      -39.230        8.116       38.319       29.547       24.277     1468.312      873.003      589.393        0.456        0.147       78.304       25.119        0.103      342.643       18.197      865.545
05/16/2014  00:05:00       -4.918       15.457       21.558       18.567       21.109       17.895      344.720      445.586      320.221        0.092        0.056       16.220       15.185        0.876      342.338       17.677      865.554
05/16/2014  00:06:00       68.416      -10.154       17.806       51.846       39.331       37.598     2688.014     1546.928     1413.644        0.537        0.282       69.165       31.148        0.203      342.508       17.966      865.539
05/16/2014  00:07:00       60.503       42.773       52.095       47.487       52.569       42.604     2255.010     2763.459     1815.131        0.752        0.342       74.096       32.206        0.189      342.569       18.069      865.501
05/16/2014  00:08:00       24.866      -59.895       11.778       49.855       55.809       45.497     2485.560     3114.666     2069.999        0.601        0.384       64.851       37.214        0.329      342.517       17.983      865.494
05/16/2014  00:09:00       74.536      -27.737       37.335       62.784       53.352       35.759     3941.882     2846.436     1278.727        0.789        0.403       79.530       39.111        0.242      342.799       18.463      865.524
05/16/2014  00:10:00       57.342      -47.282        9.947       47.883       40.040       26.873     2292.829     1603.240      722.160        0.512        0.231       74.321       21.609        0.085      342.887       18.611      865.546
05/16/2014  00:11:00       -8.784       11.049        4.120       39.673       22.746       20.802     1573.966      517.390      432.735        0.137        0.126       14.115       17.416        1.522      342.903       18.636      865.559
05/16/2014  00:12:00      -11.751       36.373        8.706       24.947       25.130       21.624      622.353      631.520      467.617        0.163        0.086       38.224       17.150        0.201      342.904       18.641      865.565
05/16/2014  00:13:00       49.364       41.319       -1.431       30.049       35.935       17.304      902.953     1291.333      299.443        0.332        0.125       64.375        9.506        0.022      342.764       18.402      865.565
05/16/2014  00:14:00       19.252        9.317       -0.525       27.042       18.098       20.260      731.254      327.533      410.457        0.096        0.073       21.388       13.682        0.409      342.179       17.407      865.566
05/16/2014  00:15:00        8.224       60.823        2.029       23.739       38.524       17.038      563.531     1484.064      290.291        0.305        0.117       61.376       12.290        0.040      343.054       18.898      865.579
05/16/2014  00:16:00       49.299      107.077      -12.235       24.852       43.094       19.067      617.609     1857.077      363.565        0.844        0.142      117.881       21.452        0.033      343.325       19.358      865.565
05/16/2014  00:17:00       44.850      102.519      -19.103       22.837       27.029       13.130      521.535      730.585      172.403        0.716        0.071      111.900       11.861        0.011      343.553       19.745      865.551
05/16/2014  00:18:00        3.848       85.881       -9.880       15.405       34.789       15.572      237.306     1210.283      242.473        0.459        0.085       85.967       16.255        0.036      343.554       19.747      865.544
05/16/2014  00:19:00      106.942       51.670       27.779       40.208       26.450       23.772     1616.718      699.584      565.089        0.888        0.144      118.770        8.332        0.005      343.179       19.108      865.514
05/16/2014  00:20:00      115.238       75.296       29.577       39.917       31.317       37.405     1593.375      980.753     1399.143        1.190        0.199      137.657       23.973        0.030      342.822       18.502      865.489
05/16/2014  00:21:00        1.613       36.794       14.373       58.963       29.266       17.412     3476.580      856.470      303.180        0.310        0.232       36.830       16.552        0.202      343.358       19.414      865.500
05/16/2014  00:22:00      -47.510       22.266      -14.290       24.280       16.632        8.508      589.538      276.618       72.380        0.195        0.047       52.469        6.867        0.017      342.992       18.790      865.538
05/16/2014  00:23:00       46.459       68.006       18.564       38.862       32.907       36.351     1510.263     1082.883     1321.360        0.552        0.196       82.361       29.748        0.130      342.832       18.518      865.516
05/16/2014  00:24:00      115.072       63.227       23.678       50.329       39.151       30.630     2533.017     1532.796      938.199        1.140        0.250      131.298       23.970        0.033      342.936       18.696      865.470
05/16/2014  00:25:00       17.328       17.101       10.257       34.113       28.094       19.655     1163.700      789.274      386.302        0.152        0.117       24.345       16.672        0.469      343.144       19.048      865.472
05/16/2014  00:26:00        3.147       10.560       12.779       15.545       23.487       22.205      241.637      551.616      493.042        0.079        0.064       11.019       17.768        2.600      342.639       18.189      865.472
05/16/2014  00:27:00       39.025      -12.793       22.539       34.401       31.683       24.882     1183.413     1003.833      619.133        0.250        0.140       41.068       18.012        0.192      342.195       17.436      865.449
05/16/2014  00:28:00        9.284       15.196        8.844       18.360       15.657       18.632      337.082      245.146      347.151        0.066        0.046       17.807        7.047        0.157      342.522       17.991      865.459
05/16/2014  00:29:00      -71.760       18.632      -11.209       24.399       12.492        8.304      595.335      156.040       68.948        0.322        0.041       74.139        6.358        0.007      342.973       18.759      865.477
05/16/2014  00:30:00      -51.571       30.535      -10.336       25.387       19.745       17.620      644.491      389.863      310.464        0.252        0.067       59.933       16.879        0.079      342.989       18.785      865.463
05/16/2014  00:31:00       35.169       46.317        8.256       44.713       30.824       21.632     1999.266      950.108      467.950        0.343        0.171       58.156       24.359        0.175      342.880       18.600      865.451
05/16/2014  00:32:00       90.808        7.382       22.560       37.775       33.876       33.312     1426.933     1147.591     1109.659        0.625        0.184       91.107        9.976        0.012      342.192       17.429      865.426
05/16/2014  00:33:00       51.901        6.122        3.358       65.477       34.611       23.639     4287.193     1197.913      558.818        0.439        0.302       52.261       16.029        0.094      342.617       18.150      865.410
05/16/2014  00:34:00      -57.607        4.652       -5.054       12.103       21.461       12.114      146.475      460.575      146.752        0.206        0.038       57.794       11.005        0.036      342.724       18.335      865.449
05/16/2014  00:35:00      -83.418       26.459      -16.784       19.371       19.442       11.956      375.236      377.987      142.943        0.442        0.045       87.514        9.931        0.013      342.816       18.490      865.471
05/16/2014  00:36:00      -61.975      100.045      -12.703       24.022       44.152       17.717      577.054     1949.357      313.895        0.843        0.142      117.685       12.534        0.011      343.070       18.922      865.479
05/16/2014  00:37:00      -13.649      111.818        0.891       46.105       37.901       25.519     2125.700     1436.475      651.229        0.845        0.211      112.647       23.730        0.044      343.229       19.193      865.468
05/16/2014  00:38:00       14.295      151.867       -3.381       29.089       50.327       29.414      846.177     2532.825      865.209        1.376        0.212      152.538       27.294        0.032      343.430       19.536      865.461
05/16/2014  00:39:00       30.883      104.088      -11.710       27.288       45.958       24.908      744.648     2112.124      620.386        0.770        0.174      108.573       25.314        0.054      343.338       19.380      865.450
05/16/2014  00:40:00       -8.055      118.383      -15.110       19.919       28.048       10.285      396.767      786.700      105.771        0.780        0.064      118.657       12.096        0.010      343.585       19.800      865.476
05/16/2014  00:41:00       14.034       62.634        6.754       21.364       18.965       18.048      456.428      359.686      325.719        0.265        0.057       64.187       13.493        0.044      343.201       19.146      865.494
05/16/2014  00:42:00      128.608       98.389        9.685       40.783       32.006       32.893     1663.246     1024.389     1081.937        1.504        0.188      161.927       23.047        0.020      343.226       19.188      865.491
05/16/2014  00:43:00      238.412      132.429       38.197       75.068       50.917       45.229     5635.242     2592.510     2045.643        4.305        0.514      272.723       29.253        0.012      343.483       19.623      865.415
05/16/2014  00:44:00      163.374       31.145       20.741       97.550       60.963       54.752     9515.968     3716.467     2997.742        2.216        0.812      166.316       35.230        0.045      343.244       19.218      865.377
05/16/2014  00:45:00       34.440      -29.576       16.041       69.271       88.687       38.790     4798.521     7865.371     1504.667        0.824        0.708       45.396       44.047        0.941      342.919       18.665      865.370
05/16/2014  00:46:00      -54.707      -78.210       -1.710       51.543       43.325       24.242     2656.630     1877.039      587.653        0.712        0.256       95.445       14.346        0.023      343.615       19.851      865.408
05/16/2014  00:47:00      -22.506      -32.386       13.166       58.279       50.130       31.246     3396.493     2512.968      976.336        0.431        0.344       39.439       35.880        0.828      343.188       19.126      865.449
05/16/2014  00:48:00       69.089       49.445       54.085       50.120       62.418       44.182     2512.050     3895.964     1952.037        0.925        0.418       84.959       37.396        0.194      342.461       17.888      865.406
05/16/2014  00:49:00        8.094       34.402       66.724       40.105       62.959       40.213     1608.397     3963.894     1617.100        0.644        0.359       35.342       36.869        1.088      342.628       18.170      865.355
05/16/2014  00:50:00      -12.338        2.490       40.656       22.339       50.051       39.563      499.053     2505.146     1565.258        0.319        0.228       12.587       39.147        9.673      342.678       18.255      865.383
05/16/2014  00:51:00      -28.113      -51.421        3.130       35.379       46.372       30.267     1251.654     2150.332      916.109        0.388        0.216       58.604       20.593        0.123      342.796       18.457      865.411
05/16/2014  00:52:00     -100.963        3.372       -9.671       23.740       25.862       12.201      563.609      668.843      148.872        0.584        0.069      101.019       13.422        0.018      343.077       18.936      865.435
05/16/2014  00:53:00      -97.227      -12.492       -8.605       22.625       27.394       15.363      511.904      750.458      236.028        0.559        0.075       98.027       10.491        0.011      343.139       19.040      865.464
05/16/2014  00:54:00     -127.059      -65.559      -14.703       27.343       31.881       12.805      747.655     1016.429      163.961        1.129        0.096      142.975        4.900        0.001      343.345       19.392      865.504
05/16/2014  00:55:00      -52.281      -30.002       10.469       58.479       54.114       24.625     3419.748     2928.355      606.407        0.535        0.348       60.278       35.513        0.347      343.091       18.959      865.520
05/16/2014  00:56:00       57.483       -9.804       19.380       47.726       36.872       33.352     2277.766     1359.544     1112.373        0.426        0.237       58.313       29.028        0.248      342.547       18.034      865.486
05/16/2014  00:57:00       33.997      -25.970       15.329       46.280       42.365       35.614     2141.817     1794.790     1268.374        0.363        0.260       42.781       25.429        0.353      342.200       17.444      865.452
05/16/2014  00:58:00      -64.827      -41.630        2.827       75.346       37.337       20.914     5677.058     1394.052      437.398        0.672        0.375       77.043       17.555        0.052      342.945       18.710      865.489
05/16/2014  00:59:00     -171.064      -79.264        4.099       62.208       50.770       30.071     3869.838     2577.596      904.251        2.146        0.368      188.536       17.415        0.009      343.152       19.061      865.517
05/16/2014  01:00:00      -54.938      -79.622        5.382       58.116       43.959       20.336     3377.500     1932.363      413.565        0.755        0.286       96.736       18.156        0.035      343.234       19.202      865.556
05/16/2014  01:01:00       58.914      -12.576       31.706       47.062       44.374       30.750     2214.809     1969.084      945.593        0.488        0.256       60.241       26.257        0.190      342.335       17.673      865.534
05/16/2014  01:02:00        4.805       36.979       72.800       33.513       48.037       28.870     1123.155     2307.568      833.455        0.548        0.213       37.289       22.771        0.373      342.327       17.659      865.472
05/16/2014  01:03:00       19.383      -21.485       34.760       42.679       64.812       35.781     1821.465     4200.634     1280.259        0.467        0.365       28.936       35.114        1.473      342.857       18.560      865.459
05/16/2014  01:04:00      -77.282      -79.042        3.372       88.374       53.694       31.827     7809.892     2883.014     1012.972        1.197        0.585      110.545       26.778        0.059      343.160       19.075      865.480
05/16/2014  01:05:00     -181.835       30.478       -4.993       61.518       70.869       35.963     3784.431     5022.375     1293.349        2.206        0.505      184.371       28.820        0.024      343.211       19.159      865.463
05/16/2014  01:06:00       -1.854      -32.118      -16.671       84.625       48.558       24.833     7161.347     2357.883      616.677        0.572        0.507       32.171       36.160        1.263      343.730       20.047      865.459
05/16/2014  01:07:00        2.333       39.270       58.640       53.353       43.069       41.636     2846.561     1854.917     1733.592        0.571        0.322       39.339       41.400        1.108      342.511       17.973      865.407
05/16/2014  01:08:00      -26.859       -5.720       43.114       38.350       41.751       31.804     1470.749     1743.154     1011.522        0.342        0.211       27.461       21.919        0.637      342.740       18.362      865.368
05/16/2014  01:09:00        4.583      -57.820        0.758       33.860       53.282       34.191     1146.504     2838.927     1169.004        0.426        0.258       58.002       27.503        0.225      343.059       18.905      865.370
05/16/2014  01:10:00      -19.335        7.434       -4.006       19.484       25.529       16.043      379.627      651.718      257.377        0.087        0.064       20.715       11.818        0.326      343.036       18.864      865.402
05/16/2014  01:11:00      -12.633       -3.977       -8.133       11.123       12.297        4.658      123.718      151.224       21.696        0.027        0.015       13.244        4.992        0.142      343.106       18.984      865.399
05/16/2014  01:12:00       65.497      -26.219        8.492       47.151       22.114       18.665     2223.201      489.045      348.390        0.405        0.153       70.550       14.548        0.043      342.780       18.430      865.379
05/16/2014  01:13:00       54.543      -73.477        4.141       42.562       38.993       40.785     1811.518     1520.488     1663.433        0.669        0.250       91.508       28.647        0.098      342.068       17.220      865.359
05/16/2014  01:14:00       65.669      -68.406      -11.590       33.578       27.028       20.140     1127.464      730.509      405.625        0.569        0.113       94.825       11.312        0.014      342.477       17.914      865.398
05/16/2014  01:15:00       -4.311      -12.072        7.503       14.672       33.242       19.407      215.256     1105.022      376.616        0.096        0.085       12.819       20.424        2.539      342.855       18.557      865.420
05/16/2014  01:16:00        8.264       10.219       23.870       33.341       23.794       22.388     1111.591      566.142      501.222        0.146        0.109       13.142       19.852        2.282      342.517       17.981      865.403
05/16/2014  01:17:00       85.276       -6.278        8.685       26.083       22.417       25.089      680.336      502.506      629.444        0.460        0.091       85.506       16.868        0.039      342.260       17.545      865.381
05/16/2014  01:18:00       48.286       -8.786        9.686       32.373       24.141       24.029     1048.023      582.802      577.404        0.235        0.110       49.079        9.663        0.039      342.218       17.474      865.358
05/16/2014  01:19:00       36.168      -16.908      -17.243       17.696       24.231       15.729      313.134      587.163      247.393        0.152        0.057       39.925       10.530        0.070      341.751       16.680      865.348
05/16/2014  01:20:00       33.164      -34.830       20.173       32.720       39.665       30.097     1070.621     1573.346      905.848        0.313        0.177       48.094       19.074        0.157      341.807       16.776      865.339
05/16/2014  01:21:00       91.643      -64.166       -7.261       33.221       43.710       34.003     1103.643     1910.576     1156.223        0.837        0.209      111.874       22.028        0.039      342.024       17.145      865.322
05/16/2014  01:22:00       36.093      -46.497       11.899       34.520       51.854       39.729     1191.598     2688.877     1578.355        0.453        0.273       58.861       33.618        0.326      342.440       17.850      865.322
05/16/2014  01:23:00       74.423     -129.043       -9.286       52.792       66.720       38.352     2787.028     4451.616     1470.845        1.549        0.435      148.966       35.190        0.056      342.884       18.605      865.339
05/16/2014  01:24:00       62.043      -75.679       14.664       45.990       53.014       39.347     2115.087     2810.471     1548.160        0.813        0.324       97.861       36.244        0.137      342.876       18.594      865.348
05/16/2014  01:25:00       19.251      -24.482       26.344       32.222       37.291       15.956     1038.252     1390.623      254.589        0.217        0.134       31.144       15.576        0.250      342.366       17.725      865.346
05/16/2014  01:26:00       44.447      -17.575       17.932       31.197       26.065       32.489      973.232      679.410     1055.562        0.266        0.135       47.796       23.722        0.246      342.155       17.366      865.334
05/16/2014  01:27:00       36.665       40.666       24.098       34.383       21.045       19.964     1182.211      442.895      398.550        0.280        0.101       54.754        7.443        0.018      342.136       17.333      865.323
05/16/2014  01:28:00       17.071       -2.992       20.453       27.137       43.104       17.565      736.413     1857.926      308.545        0.181        0.145       17.331       15.032        0.752      342.114       17.298      865.315
05/16/2014  01:29:00       10.378      -38.480       -1.208       29.180       27.129       21.581      851.459      735.968      465.727        0.182        0.103       39.855       11.300        0.080      341.668       16.541      865.327
05/16/2014  01:30:00       15.068      -12.127       25.123       30.779       26.225       22.592      947.350      687.771      510.409        0.157        0.107       19.342       18.637        0.928      341.673       16.549      865.329
05/16/2014  01:31:00       41.039      -23.456       28.296       50.149       30.097       21.048     2514.921      905.837      443.028        0.345        0.193       47.269       14.855        0.099      341.968       17.047      865.323
05/16/2014  01:32:00       41.349      -20.282       24.817       40.470       34.076       20.697     1637.838     1161.196      428.368        0.298        0.161       46.055        8.129        0.031      341.881       16.902      865.308
05/16/2014  01:33:00       54.846      -70.675       -1.197       39.628       43.184       25.706     1570.394     1864.861      660.799        0.605        0.205       89.459       23.578        0.069      342.520       17.986      865.303
05/16/2014  01:34:00       36.268      -50.394       16.848       28.824       44.698       24.636      830.843     1997.903      606.921        0.379        0.172       62.088       17.397        0.079      342.423       17.822      865.302
05/16/2014  01:35:00       60.485      -74.211       -7.933       41.818       51.233       27.332     1748.779     2624.800      747.064        0.717        0.256       95.737       20.015        0.044      342.581       18.092      865.279
05/16/2014  01:36:00       84.130      -92.344        2.056       44.051       55.596       29.752     1940.486     3090.877      885.175        1.076        0.296      124.921       30.091        0.058      342.733       18.350      865.270
05/16/2014  01:37:00       40.689      -39.237       18.332       31.055       39.507       25.014      964.428     1560.804      625.722        0.334        0.158       56.526       20.112        0.127      342.363       17.720      865.266
05/16/2014  01:38:00       34.642        9.319       24.763       39.344       23.301       23.924     1547.914      542.956      572.352        0.228        0.133       35.874       23.400        0.425      341.536       16.316      865.252
05/16/2014  01:39:00       21.035        3.701       32.213       37.612       25.526       20.336     1414.660      651.601      413.566        0.199        0.124       21.358       19.248        0.812      341.570       16.373      865.237
05/16/2014  01:40:00        7.164       14.222       37.617       32.387       33.727       22.906     1048.940     1137.499      524.666        0.219        0.136       15.925       24.270        2.323      341.628       16.473      865.224
05/16/2014  01:41:00       32.582      -16.873       16.689       32.963       39.414       26.280     1086.554     1553.466      690.633        0.248        0.167       36.692       18.768        0.262      341.785       16.740      865.207
05/16/2014  01:42:00       30.831      -40.681        0.782       37.844       30.743       24.733     1432.168      945.136      611.728        0.280        0.149       51.044       13.979        0.075      341.811       16.783      865.192
05/16/2014  01:43:00       38.180       -8.373       27.346       26.391       24.994       22.173      696.483      624.710      491.657        0.204        0.091       39.088       17.922        0.210      341.675       16.552      865.189
05/16/2014  01:44:00       61.580       -4.154       35.743       47.710       28.014       24.840     2276.235      784.798      617.050        0.438        0.184       61.720       16.231        0.069      341.487       16.233      865.182
05/16/2014  01:45:00       61.899      -16.251       25.384       42.387       29.226       24.800     1796.671      854.167      615.020        0.400        0.163       63.996       16.378        0.065      341.556       16.350      865.173
05/16/2014  01:46:00      -15.712      -23.950       17.657       53.079       24.563       17.839     2817.357      603.346      318.216        0.243        0.187       28.644       16.965        0.351      341.695       16.587      865.173
05/16/2014  01:47:00      -78.471      -46.307        8.322       47.196       52.152       28.214     2227.490     2719.810      796.010        0.706        0.287       91.115       27.369        0.090      341.810       16.782      865.175
05/16/2014  01:48:00      -37.503       -9.780       15.809       48.435       33.730       24.797     2345.943     1137.684      614.896        0.292        0.205       38.757       19.304        0.248      341.891       16.918      865.168
05/16/2014  01:49:00      -12.368       22.026       33.182       18.376       21.673       22.658      337.661      469.709      513.364        0.153        0.066       25.260       16.260        0.414      341.670       16.543      865.162
05/16/2014  01:50:00      -19.064       -8.508       12.856       27.747       24.669       15.625      769.901      608.545      244.135        0.111        0.081       20.876       20.306        0.946      341.973       17.058      865.161
05/16/2014  01:51:00      -16.616      -16.360       10.821       20.890       34.178       15.977      436.401     1168.145      255.268        0.126        0.093       23.319       14.279        0.375      341.972       17.057      865.157
05/16/2014  01:52:00      -42.797      -73.186        7.422       27.255       37.977       23.823      742.830     1442.246      567.518        0.500        0.138       84.780       17.976        0.045      342.314       17.636      865.137
05/16/2014  01:53:00       23.492      -27.025        5.424       41.598       31.920       22.681     1730.433     1018.865      514.423        0.229        0.163       35.808       20.735        0.335      341.757       16.692      865.121
05/16/2014  01:54:00       -1.334      -26.623       -1.500       39.550       19.609       15.769     1564.237      384.503      248.651        0.145        0.110       26.656       15.591        0.342      342.029       17.153      865.126
05/16/2014  01:55:00       -5.556      -13.095        4.568       25.997       30.852       16.626      675.828      951.867      276.418        0.106        0.095       14.225       16.868        1.406      341.869       16.882      865.158
05/16/2014  01:56:00      -27.492      -38.944       -3.632       24.615       28.164       23.340      605.914      793.230      544.741        0.211        0.097       47.670       11.690        0.060      342.081       17.240      865.167
05/16/2014  01:57:00      -14.684       12.074        6.291       36.594       24.142       14.146     1339.097      582.841      200.107        0.126        0.106       19.011       11.526        0.368      342.153       17.363      865.164
05/16/2014  01:58:00      -49.605       33.876       -8.723       17.728       16.340       10.150      314.282      266.980      103.027        0.218        0.034       60.069        8.954        0.022      341.987       17.083      865.156
05/16/2014  01:59:00      -64.716        9.112       -5.634       17.784       12.035        9.607      316.254      144.841       92.302        0.243        0.028       65.354        7.374        0.013      341.930       16.986      865.157
05/16/2014  02:00:00      -46.742       12.854       -3.077       18.929       15.561        8.872      358.322      242.137       78.717        0.152        0.034       48.477        8.194        0.029      341.843       16.836      865.174
05/16/2014  02:01:00      -16.066        4.273        0.619       11.573        6.429        5.730      133.926       41.329       32.835        0.024        0.010       16.624        5.991        0.130      341.748       16.677      865.187
05/16/2014  02:02:00       36.998       23.180       12.986       16.578       16.289       13.574      274.827      265.347      184.260        0.140        0.036       43.660        7.150        0.027      341.323       15.955      865.180
05/16/2014  02:03:00       53.759        9.334       23.700       24.657       21.753       23.782      607.967      473.188      565.562        0.259        0.082       54.563       10.643        0.038      341.172       15.700      865.168
05/16/2014  02:04:00       61.078        9.564        2.259       27.915       30.832       15.279      779.228      950.586      233.438        0.289        0.098       61.822       14.181        0.053      341.104       15.585      865.156
05/16/2014  02:05:00       22.726        5.964       24.668       40.496       29.525       18.007     1639.919      871.734      324.258        0.200        0.142       23.496        6.914        0.087      341.053       15.499      865.144
05/16/2014  02:06:00       38.931       44.139       17.709       17.535       15.477       16.998      307.464      239.523      288.923        0.231        0.042       58.854        8.007        0.019      341.692       16.582      865.129
05/16/2014  02:07:00       46.311       22.638        3.935       26.690       24.724       13.918      712.365      611.275      193.714        0.209        0.076       51.548       11.588        0.051      341.600       16.426      865.131
05/16/2014  02:08:00       34.762       25.381        2.242       19.391       15.530       15.714      376.014      241.186      246.926        0.136        0.043       43.042       11.180        0.067      341.633       16.481      865.119
05/16/2014  02:09:00        8.821       16.031        7.491       17.603       17.404       13.153      309.866      302.886      173.007        0.059        0.039       18.297        9.263        0.256      341.584       16.399      865.119
05/16/2014  02:10:00      -16.888       15.884        3.689       18.939       20.406        8.162      358.697      416.422       66.626        0.070        0.042       23.184        6.232        0.072      341.638       16.487      865.138
05/16/2014  02:11:00      -46.919        7.924      -10.431        9.653        9.387        5.376       93.184       88.120       28.904        0.129        0.011       47.584        5.587        0.014      341.830       16.814      865.148
05/16/2014  02:12:00      -11.524        5.388        3.798        9.621        5.609        5.282       92.573       31.459       27.904        0.016        0.008       12.721        4.368        0.118      341.552       16.344      865.140
05/16/2014  02:13:00       -3.790       -9.470       -1.996       17.822       12.324       12.293      317.614      151.873      151.110        0.036        0.031       10.200        5.964        0.342      341.430       16.135      865.130
05/16/2014  02:14:00       11.544      -12.731       -7.200       42.217       23.383       28.016     1782.297      546.752      784.916        0.173        0.156       17.186       21.908        1.625      341.397       16.082      865.125
05/16/2014  02:15:00      -13.153        9.724       19.096       17.558       19.848       15.680      308.283      393.959      245.861        0.079        0.047       16.357       14.361        0.771      341.175       15.705      865.133
05/16/2014  02:16:00      -25.053       -6.797       -0.388       22.236        8.151       11.878      494.461       66.439      141.097        0.069        0.035       25.959       11.558        0.198      341.407       16.098      865.117
05/16/2014  02:17:00      -70.882       -4.439       -7.077       25.591       21.711       14.870      654.907      471.382      221.106        0.322        0.067       71.021        5.971        0.007      341.449       16.169      865.113
05/16/2014  02:18:00      -85.929        5.689       -3.926       34.085       32.674       19.037     1161.812     1067.559      362.408        0.501        0.130       86.117       16.028        0.035      341.303       15.921      865.107
05/16/2014  02:19:00      -59.122       23.411        3.070       46.882       38.752       27.783     2197.876     1501.751      771.921        0.426        0.224       63.588       19.036        0.090      341.313       15.938      865.117
05/16/2014  02:20:00     -131.598       35.616      -18.062       33.814       33.261       18.295     1143.388     1106.315      334.710        1.075        0.129      136.333       11.668        0.007      341.660       16.528      865.120
05/16/2014  02:21:00      -83.729       36.172       -6.376       33.078       25.385       20.500     1094.127      644.397      420.232        0.526        0.108       91.208       16.503        0.033      341.525       16.299      865.107
05/16/2014  02:22:00      -38.182       27.685        1.724       28.404       25.284       18.799      806.767      639.301      353.420        0.201        0.090       47.163       16.138        0.117      341.572       16.378      865.082
05/16/2014  02:23:00       -9.148        9.904       11.398       10.615       16.480        8.788      112.681      271.581       77.222        0.039        0.023       13.482        6.323        0.220      341.313       15.938      865.083
05/16/2014  02:24:00       -0.956        5.697        1.583        6.468        8.128        7.372       41.835       66.066       54.351        0.010        0.008        5.776        4.597        0.633      341.342       15.989      865.090
05/16/2014  02:25:00      -12.479      -14.203        3.050        9.154        9.996        5.410       83.788       99.927       29.266        0.029        0.011       18.906        4.960        0.069      341.320       15.950      865.084
05/16/2014  02:26:00      -17.053      -12.307        5.135       16.416       15.687        6.827      269.489      246.089       46.607        0.052        0.028       21.031        7.669        0.133      341.334       15.973      865.076
05/16/2014  02:27:00       13.713       11.198        5.554       19.493       15.268       12.196      379.968      233.119      148.739        0.055        0.038       17.705        6.510        0.135      341.009       15.423      865.064
05/16/2014  02:28:00       12.243       -4.504       -1.510       13.894       13.233       17.452      193.053      175.106      304.557        0.042        0.034       13.045        8.613        0.436      341.101       15.580      865.053
05/16/2014  02:29:00        1.894        3.640       -7.716       16.897       11.173       13.337      285.523      124.845      177.883        0.033        0.029        4.103       14.335       12.207      341.800       16.764      865.059
05/16/2014  02:30:00      -40.193       -1.934       -3.542       16.489        9.666        9.978      271.875       93.441       99.570        0.105        0.023       40.239       11.253        0.078      341.413       16.108      865.058
05/16/2014  02:31:00      -68.956       -2.193       -5.847       25.833       14.013        8.231      667.339      196.366       67.754        0.286        0.047       68.991        9.384        0.019      341.336       15.978      865.054
05/16/2014  02:32:00      -51.767        3.242       -5.239       27.764       17.594       15.354      770.828      309.540      235.746        0.202        0.066       51.868       16.571        0.102      341.329       15.966      865.043
05/16/2014  02:33:00      -18.033       14.192       -3.258       16.535       12.225        8.475      273.396      149.461       71.817        0.052        0.025       22.947        8.944        0.152      341.598       16.422      865.029
05/16/2014  02:34:00       28.219       14.479        3.429       17.868       10.404       16.050      319.262      108.243      257.614        0.085        0.034       31.717        7.019        0.049      341.535       16.316      865.020
05/16/2014  02:35:00        4.385        4.692        8.446       11.951        8.386       10.088      142.826       70.324      101.762        0.021        0.016        6.422        5.326        0.688      341.213       15.771      864.991
05/16/2014  02:36:00      -29.847      -17.730       -7.400       29.039       13.922       11.036      843.284      193.823      121.799        0.121        0.058       34.716       13.087        0.142      341.321       15.953      864.971
05/16/2014  02:37:00      -97.072      -32.396      -11.371       25.146       16.611       14.826      632.320      275.915      219.801        0.586        0.056      102.335       13.356        0.017      341.112       15.599      864.979
05/16/2014  02:38:00      -93.767      -41.861        0.108       30.647       25.070       15.603      939.245      628.497      243.447        0.618        0.091      102.687        9.398        0.008      341.055       15.502      864.989
05/16/2014  02:39:00      -90.425      -49.498       -3.181       30.762       40.607       23.971      946.292     1648.913      574.630        0.690        0.158      103.086       19.564        0.036      340.857       15.167      865.002
05/16/2014  02:40:00     -106.413      -38.560       -2.586       37.107       34.173       22.292     1376.924     1167.806      496.917        0.793        0.152      113.184       19.568        0.030      340.820       15.104      864.980
05/16/2014  02:41:00      -93.418        9.675       -4.662       51.753       53.781       32.538     2678.401     2892.432     1058.740        0.773        0.331       93.918       27.629        0.087      340.833       15.125      864.959
05/16/2014  02:42:00      -93.577       47.219       -6.679       79.908       44.883       34.670     6385.217     2014.512     1202.034        1.031        0.480      104.815       35.917        0.117      340.891       15.225      864.953
05/16/2014  02:43:00      -96.745       49.625       -7.916       64.836       39.303       32.755     4203.672     1544.763     1072.917        0.935        0.341      108.730       17.149        0.025      341.046       15.487      864.946
05/16/2014  02:44:00        0.793        1.047       -5.588       12.778       16.390       10.714      163.283      268.626      114.791        0.029        0.027        1.314        7.076       29.016      341.088       15.558      864.940
05/16/2014  02:45:00       30.950      -11.981        2.265       20.770       17.972       12.045      431.400      322.978      145.086        0.100        0.045       33.188       10.963        0.109      340.935       15.299      864.928
05/16/2014  02:46:00       39.097      -43.784        3.207       19.206       22.799       20.796      368.860      519.782      432.460        0.239        0.066       58.699       15.706        0.072      340.952       15.328      864.921
05/16/2014  02:47:00       42.236      -41.639       -1.047       21.174       13.198       14.796      448.323      174.191      218.921        0.218        0.042       59.311        7.887        0.018      340.965       15.349      864.925
05/16/2014  02:48:00        9.905      -15.441        1.642       25.657       10.226       13.415      658.294      104.565      179.973        0.064        0.047       18.345        7.220        0.155      341.063       15.517      864.896
05/16/2014  02:49:00      -36.673        5.168        0.519       22.594        8.277       11.126      510.469       68.508      123.792        0.104        0.035       37.036       13.898        0.141      340.904       15.245      864.877
05/16/2014  02:50:00      -61.621       -0.574       -6.896        6.924        4.532        7.620       47.942       20.540       58.066        0.199        0.006       61.624        2.179        0.001      341.038       15.471      864.864
05/16/2014  02:51:00      -73.207        1.550      -10.687       21.912       11.915       11.934      480.127      141.975      142.425        0.312        0.038       73.223        9.972        0.019      341.030       15.460      864.861
05/16/2014  02:52:00      -75.181       -0.689      -12.464       17.883       21.594       12.583      319.787      466.302      158.321        0.338        0.047       75.184        6.123        0.007      340.889       15.223      864.852
05/16/2014  02:53:00      -83.623      -25.195       -8.635       19.451       18.336       12.012      378.356      336.215      144.297        0.428        0.043       87.336        8.062        0.009      340.671       14.852      864.860
05/16/2014  02:54:00     -116.933      -51.099       -8.083       44.803       31.776       25.017     2007.308     1009.694      625.862        1.000        0.182      127.610       16.851        0.017      340.552       14.652      864.887
05/16/2014  02:55:00     -138.964      -53.488        4.025       44.368       46.257       22.892     1968.494     2139.703      524.054        1.341        0.232      148.903       19.480        0.017      340.534       14.621      864.904
05/16/2014  02:56:00     -109.663      -12.749       -2.318       32.130       27.022       20.097     1032.351      730.208      403.907        0.718        0.108      110.402       15.659        0.020      340.590       14.717      864.914
05/16/2014  02:57:00      -98.684        1.943       -1.736       21.712       18.223       15.122      471.390      332.082      228.660        0.539        0.052       98.703        6.067        0.004      340.783       15.042      864.906
05/16/2014  02:58:00      -61.619        1.405       -6.525       14.925       16.944        8.051      222.760      287.088       64.812        0.221        0.029       61.635        8.231        0.018      340.832       15.124      864.897
05/16/2014  02:59:00      -14.951        2.108        6.273       15.862       11.041       12.608      251.614      121.914      158.951        0.040        0.027       15.099        9.054        0.360      340.633       14.788      864.879
05/16/2014  03:00:00      -37.365       -0.852       -3.800       19.245       12.332       15.571      370.384      152.077      242.460        0.109        0.038       37.375       14.060        0.142      340.889       15.221      864.860
05/16/2014  03:01:00      -73.886      -23.774       -8.424       30.397       33.841       25.626      924.003     1145.182      656.670        0.441        0.136       77.616       14.876        0.037      340.845       15.146      864.869
05/16/2014  03:02:00     -154.807       12.711       -8.534       54.186       44.490       34.693     2936.177     1979.370     1203.621        1.516        0.306      155.328       33.748        0.047      340.768       15.017      864.900
05/16/2014  03:03:00     -204.904        9.609      -14.485       68.943       65.980       29.356     4753.179     4353.317      861.794        2.613        0.498      205.129       32.800        0.026      340.760       15.000      864.912
05/16/2014  03:04:00     -131.869       -4.163      -17.506       55.093       37.662       21.855     3035.280     1418.403      477.628        1.132        0.247      131.935       24.829        0.035      340.714       14.925      864.901
05/16/2014  03:05:00     -108.752       23.172       -6.916       51.969       29.114       18.497     2700.815      847.616      342.153        0.815        0.195      111.193       15.475        0.019      341.120       15.613      864.906
05/16/2014  03:06:00      -24.346      -18.308        6.170       16.324       31.561       15.172      266.487      996.104      230.180        0.123        0.075       30.462       16.375        0.289      340.928       15.287      864.921
05/16/2014  03:07:00      -37.007       -4.382       -1.400       22.294       18.347       10.454      497.017      336.595      109.287        0.117        0.047       37.265       13.387        0.129      340.866       15.183      864.915
05/16/2014  03:08:00     -114.326      -39.484      -13.652       25.848       15.341        9.983      668.131      235.333       99.653        0.791        0.050      120.952        9.472        0.006      340.868       15.185      864.906
05/16/2014  03:09:00     -117.186      -14.430      -15.006       25.444       20.596       13.149      647.400      424.182      172.903        0.770        0.062      118.071        9.801        0.007      340.734       14.960      864.890
05/16/2014  03:10:00     -119.733       43.215       -2.781       84.366       49.978       36.833     7117.633     2497.759     1356.663        1.359        0.549      127.293       42.755        0.113      340.583       14.702      864.867
05/16/2014  03:11:00     -147.882       44.757      -14.365       56.085       40.706       27.404     3145.507     1657.010      750.970        1.481        0.278      154.506       25.438        0.027      340.658       14.829      864.844
05/16/2014  03:12:00      -81.250       15.130       -3.711       30.824       28.769       19.715      950.096      827.665      388.692        0.450        0.108       82.646       14.989        0.033      340.797       15.066      864.845
05/16/2014  03:13:00      -29.646      -31.818        4.441       46.662       31.120       21.883     2177.379      968.446      478.863        0.277        0.181       43.489       25.245        0.337      340.674       14.859      864.864
05/16/2014  03:14:00      -48.398      -16.516        2.906       32.173       15.543       14.108     1035.076      241.591      199.049        0.205        0.074       51.138       16.119        0.099      340.646       14.811      864.865
05/16/2014  03:15:00       -4.408       11.215        7.788       30.794        9.780       11.762      948.250       95.652      138.341        0.069        0.059       12.050       12.126        1.013      340.467       14.507      864.831
05/16/2014  03:16:00       33.169       25.001        7.699       17.849       13.719       19.168      318.569      188.204      367.396        0.133        0.044       41.536        5.166        0.015      340.799       15.068      864.777
05/16/2014  03:17:00       25.469        4.477       -1.640       17.427       25.460       18.063      303.695      648.196      326.256        0.097        0.064       25.860       14.305        0.306      341.195       15.739      864.779
05/16/2014  03:18:00      -67.679      -29.828       -7.793       33.588       10.723       11.014     1128.128      114.989      121.313        0.345        0.068       73.960       10.346        0.020      340.929       15.290      864.801
05/16/2014  03:19:00     -142.503      -13.494      -16.408       33.990       18.275       14.542     1155.304      333.965      211.476        1.123        0.085      143.140       11.396        0.006      340.616       14.759      864.815
05/16/2014  03:20:00     -178.074        0.575      -16.971       51.334       44.372       29.085     2635.229     1968.892      845.922        1.872        0.273      178.075       26.898        0.023      340.313       14.246      864.827
05/16/2014  03:21:00     -179.530       -1.626      -12.662       51.864       41.401       29.662     2689.905     1714.022      879.816        1.884        0.264      179.538       26.264        0.021      340.296       14.218      864.837
05/16/2014  03:22:00     -111.521      -44.026       -2.379       78.211       38.537       24.997     6117.027     1485.123      624.852        1.130        0.411      119.897       30.318        0.064      340.310       14.241      864.855
05/16/2014  03:23:00      -76.287      -29.686        3.902       30.178       38.266       21.137      910.716     1464.272      446.771        0.477        0.141       81.859       17.171        0.044      340.445       14.470      864.863
05/16/2014  03:24:00      -83.249        3.287       -4.181       20.325       19.802       14.187      413.102      392.138      201.274        0.398        0.050       83.314       11.775        0.020      340.400       14.393      864.855
05/16/2014  03:25:00      -78.627       10.346      -12.965       28.317       21.453       17.828      801.844      460.226      317.821        0.402        0.079       79.305       16.499        0.043      340.532       14.618      864.858
05/16/2014  03:26:00      -72.339        5.409       -5.164       26.342       21.832       17.405      693.889      476.643      302.918        0.338        0.074       72.541       10.314        0.020      340.768       15.017      864.847
05/16/2014  03:27:00      -49.258       -4.154       -6.175       16.872       24.116       14.119      284.674      581.592      199.353        0.177        0.053       49.432       11.873        0.058      340.511       14.582      864.834
05/16/2014  03:28:00      -68.310      -42.348       -3.826       17.450       24.514       14.349      304.488      600.943      205.907        0.379        0.056       80.372       10.715        0.018      340.497       14.557      864.843
05/16/2014  03:29:00      -98.309      -54.746       -8.034       21.968       24.242       15.447      482.605      587.685      238.600        0.702        0.065      112.525       11.281        0.010      340.535       14.622      864.855
05/16/2014  03:30:00     -123.626      -58.571       -9.290       28.942       26.154       14.359      837.642      684.023      206.193        1.026        0.086      136.799        7.762        0.003      340.429       14.445      864.854
05/16/2014  03:31:00     -147.510       30.023      -16.444       30.652       36.801       19.003      939.554     1354.291      361.103        1.279        0.133      150.534       14.537        0.009      340.364       14.334      864.848
05/16/2014  03:32:00     -142.958       58.880      -24.786       50.633       41.143       20.005     2563.723     1692.747      400.201        1.459        0.233      154.609       16.775        0.012      340.675       14.859      864.841
05/16/2014  03:33:00      -92.605       -8.622       -2.124       45.173       37.833       27.374     2040.578     1431.315      749.339        0.644        0.211       93.006       22.235        0.057      340.579       14.698      864.839
05/16/2014  03:34:00      -97.150      -54.552       -3.478       43.488       36.920       27.180     1891.179     1363.114      738.763        0.821        0.200      111.418       24.925        0.050      340.385       14.371      864.836
05/16/2014  03:35:00     -141.931      -24.789       -4.807       23.340       32.799       22.506      544.774     1075.769      506.518        1.145        0.106      144.079       14.230        0.010      340.280       14.192      864.840
05/16/2014  03:36:00      -98.119       -1.634       -8.610       41.090       34.227       17.405     1688.419     1171.465      302.931        0.643        0.158       98.133       17.426        0.032      340.181       14.025      864.849
05/16/2014  03:37:00     -154.605       30.705      -18.013       60.640       43.087       29.002     3677.235     1856.521      841.106        1.577        0.319      157.624       27.087        0.030      340.314       14.248      864.846
05/16/2014  03:38:00     -184.221       37.672      -18.596       42.751       44.251       27.109     1827.623     1958.143      734.921        2.011        0.226      188.034       18.612        0.010      340.332       14.279      864.857
05/16/2014  03:39:00     -160.115       -2.081      -22.225       42.050       46.432       23.547     1768.229     2155.933      554.470        1.531        0.224      160.128       18.908        0.014      340.391       14.378      864.860
05/16/2014  03:40:00      -88.999      -34.195      -12.556       28.916       28.402       20.764      836.132      806.665      431.134        0.566        0.104       95.342       12.303        0.017      340.348       14.307      864.847
05/16/2014  03:41:00      -75.147      -36.189       -5.977       25.528       32.131       18.601      651.686     1032.432      346.005        0.451        0.102       83.407        9.632        0.013      340.198       14.052      864.829
05/16/2014  03:42:00      -97.448      -27.291       -7.189       28.705       20.856       20.765      824.005      434.960      431.189        0.599        0.085      101.197       17.580        0.030      340.094       13.876      864.819
05/16/2014  03:43:00      -69.452      -37.527      -10.404       31.216       20.230       16.959      974.415      409.255      287.598        0.401        0.084       78.942        8.969        0.013      340.164       13.995      864.820
05/16/2014  03:44:00      -43.144       -8.896        1.395       22.041       32.105       14.130      485.812     1030.741      199.644        0.183        0.086       44.052       13.456        0.093      340.233       14.112      864.804
05/16/2014  03:45:00      -82.999      -21.033       -8.385       31.292       20.757       16.714      979.189      430.857      279.345        0.455        0.084       85.622       16.728        0.038      340.460       14.495      864.775
05/16/2014  03:46:00     -129.763        1.189      -14.988       68.586       53.354       34.561     4703.995     2846.624     1194.489        1.290        0.437      129.769       36.393        0.079      340.315       14.250      864.754
05/16/2014  03:47:00     -173.389       -7.822      -19.932       68.488       40.728       33.068     4690.646     1658.796     1093.514        1.898        0.372      173.565       28.747        0.027      340.182       14.023      864.755
05/16/2014  03:48:00     -137.333      -53.579      -19.155       75.671       46.881       27.354     5726.028     2197.793      748.254        1.538        0.434      147.415       24.890        0.029      340.007       13.730      864.769
05/16/2014  03:49:00     -126.726      -71.570       -4.539       36.681       34.764       21.128     1345.472     1208.510      446.408        1.210        0.150      145.540       16.315        0.013      340.015       13.744      864.774
05/16/2014  03:50:00     -114.179      -24.250      -22.045       29.838       43.399       18.133      890.301     1883.508      328.805        0.861        0.155      116.725       15.365        0.017      340.185       14.030      864.767
05/16/2014  03:51:00     -133.644       19.247      -11.277       57.927       36.089       22.336     3355.533     1302.427      498.913        1.176        0.258      135.023       31.094        0.053      340.217       14.085      864.740
05/16/2014  03:52:00     -159.685       52.546      -12.849       41.560       32.365       27.301     1727.246     1047.462      745.326        1.597        0.176      168.108       17.389        0.011      340.466       14.506      864.715
05/16/2014  03:53:00     -183.780       24.748      -12.146       34.338       40.854       19.460     1179.102     1669.038      378.701        1.888        0.161      185.439       16.774        0.008      340.417       14.421      864.703
05/16/2014  03:54:00     -145.738       -8.594      -12.873       49.404       57.223       30.834     2440.757     3274.431      950.707        1.407        0.333      145.991       25.668        0.031      340.351       14.311      864.705
05/16/2014  03:55:00     -127.153       -1.676       -1.492       57.617       35.772       30.604     3319.692     1279.628      936.607        1.085        0.277      127.164       32.118        0.064      340.220       14.090      864.714
05/16/2014  03:56:00     -136.136        3.992      -10.791       40.490       32.345       25.870     1639.472     1046.198      669.275        1.101        0.168      136.194       24.139        0.031      340.384       14.367      864.716
05/16/2014  03:57:00     -123.419       -8.381       -8.580       27.056       31.321       21.854      732.003      980.977      477.593        0.878        0.110      123.703       18.057        0.021      340.344       14.300      864.717
05/16/2014  03:58:00     -106.342       -5.278       -8.707       33.323       29.820       18.820     1110.453      889.250      354.205        0.688        0.118      106.472       15.033        0.020      340.317       14.254      864.713
05/16/2014  03:59:00     -105.219       -2.067       -0.858       33.826       36.371       25.129     1144.187     1322.864      631.479        0.709        0.155      105.240       18.050        0.029      340.343       14.298      864.691
05/16/2014  04:00:00      -96.249       -4.784      -13.884       33.731       26.709       25.284     1137.766      713.349      639.297        0.598        0.125       96.367       18.936        0.039      340.482       14.533      864.666
05/16/2014  04:01:00      -67.552       -2.140        4.330       58.452       26.082       26.233     3416.630      680.285      688.167        0.468        0.239       67.585       29.108        0.185      340.349       14.308      864.664
05/16/2014  04:02:00      -60.004        4.174       -0.209       60.233       36.481       27.243     3627.976     1330.854      742.163        0.466        0.285       60.149       25.511        0.180      340.332       14.278      864.683
05/16/2014  04:03:00     -129.283       19.627       -7.611       43.777       40.414       30.703     1916.430     1633.328      942.660        1.082        0.225      130.764       19.232        0.022      340.369       14.342      864.698
05/16/2014  04:04:00     -127.275        7.881       -8.221       55.085       35.842       27.244     3034.385     1284.665      742.215        1.069        0.253      127.519       29.504        0.054      340.381       14.363      864.690
05/16/2014  04:05:00     -109.036      -30.796      -15.390       51.193       52.266       27.244     2620.691     2731.769      742.211        0.958        0.305      113.302       23.346        0.042      340.346       14.303      864.686
05/16/2014  04:06:00     -167.067      -45.957       -8.198       34.683       44.488       24.709     1202.899     1979.195      610.519        1.694        0.190      173.272       19.589        0.013      340.001       13.722      864.691
05/16/2014  04:07:00     -134.607      -19.900      -12.807       34.474       27.830       22.339     1188.439      774.516      499.044        1.057        0.123      136.070       16.356        0.014      339.998       13.716      864.692
05/16/2014  04:08:00     -127.198      -17.031      -20.839       26.249       21.528       19.927      689.012      463.436      397.067        0.923        0.077      128.333       15.397        0.014      340.068       13.833      864.684
05/16/2014  04:09:00      -56.403      -22.203       -3.176       34.405       17.484       14.848     1183.689      305.674      220.473        0.270        0.085       60.615       16.592        0.075      339.976       13.678      864.662
05/16/2014  04:10:00      -16.411       -4.967       -3.957       12.562       17.871       10.446      157.795      319.357      109.125        0.045        0.029       17.146        8.438        0.242      340.198       14.052      864.639
05/16/2014  04:11:00      -12.622        3.794       -3.189       10.934       10.667        7.406      119.554      113.786       54.850        0.024        0.014       13.180        6.192        0.221      340.611       14.751      864.622
05/16/2014  04:12:00      -97.362      -54.719       -1.203       38.538       29.751       19.076     1485.207      885.150      363.891        0.760        0.137      111.686       13.220        0.014      340.096       13.881      864.632
05/16/2014  04:13:00     -141.166      -72.964      -16.994       30.396       29.291       21.481      923.898      857.956      461.438        1.389        0.112      158.908       11.447        0.005      339.865       13.492      864.655
05/16/2014  04:14:00     -112.107      -45.325       -7.395       32.757       27.439       19.836     1073.003      752.902      393.480        0.845        0.111      120.923       17.392        0.021      339.772       13.336      864.679
05/16/2014  04:15:00     -107.893      -30.808       -6.783       25.321       25.458       15.082      641.151      648.133      227.476        0.708        0.076      112.205       11.165        0.010      339.904       13.557      864.682
05/16/2014  04:16:00      -52.683       -4.435        2.551       42.263       21.771       18.704     1786.140      473.959      349.821        0.271        0.130       52.869       25.041        0.224      339.811       13.402      864.662
05/16/2014  04:17:00        3.133       46.445       -6.578       12.956       22.992       12.316      167.851      528.609      151.691        0.153        0.042       46.551        9.006        0.037      340.395       14.386      864.636
05/16/2014  04:18:00      -14.989       62.016      -10.243       12.809       12.140        6.375      164.060      147.377       40.639        0.226        0.018       63.802        6.327        0.010      341.113       15.600      864.626
05/16/2014  04:19:00      -38.042      -17.381       -4.440       26.170       24.946       11.798      684.887      622.303      139.187        0.161        0.072       41.824       10.568        0.064      340.291       14.210      864.646
05/16/2014  04:20:00     -147.260      -68.747      -15.396       26.066       17.762       13.749      679.458      315.482      189.042        1.392        0.059      162.517        9.477        0.003      339.888       13.530      864.676
05/16/2014  04:21:00     -179.023      -55.780       -6.871       27.613       27.722       19.102      762.467      768.507      364.886        1.855        0.095      187.512       17.377        0.009      339.986       13.696      864.696
05/16/2014  04:22:00     -127.416      -38.700       -7.183       36.666       39.819       23.249     1344.427     1585.581      540.507        1.063        0.174      133.163       18.183        0.019      339.944       13.623      864.693
05/16/2014  04:23:00     -120.814      -34.475      -12.129       21.497       20.938       13.411      462.142      438.383      179.862        0.851        0.054      125.637        4.654        0.001      340.035       13.777      864.677
05/16/2014  04:24:00     -106.114      -29.281      -15.646       12.084       12.681       10.385      146.027      160.818      107.844        0.639        0.021      110.080        3.524        0.001      340.171       14.007      864.670
05/16/2014  04:25:00      -73.788      -30.555       -8.061       12.178       10.111        7.486      148.299      102.227       56.047        0.337        0.015       79.864        5.806        0.005      340.263       14.163      864.661
05/16/2014  04:26:00      -84.410      -37.766       -9.239       21.884       12.916       10.240      478.906      166.812      104.860        0.469        0.038       92.473       10.974        0.014      340.207       14.068      864.655
05/16/2014  04:27:00     -155.449      -53.694       -8.490       28.844       18.714        9.103      831.989      350.212       82.872        1.419        0.063      164.461        9.600        0.003      340.217       14.085      864.649
05/16/2014  04:28:00     -215.807      -85.818      -17.412       32.305       35.891       20.932     1043.581     1288.170      438.141        2.850        0.138      232.244       13.299        0.003      339.812       13.399      864.646
05/16/2014  04:29:00     -175.330      -16.128      -17.536       42.275       51.709       25.678     1787.211     2673.831      659.349        1.821        0.256      176.070       14.215        0.007      339.830       13.431      864.647
05/16/2014  04:30:00     -193.656       35.740      -16.084       41.461       44.646       20.738     1718.989     1993.259      430.056        2.159        0.207      196.926       12.669        0.004      339.927       13.594      864.653
05/16/2014  04:31:00      -99.293       24.942       -9.218       45.354       32.225       20.057     2056.957     1038.450      402.302        0.703        0.175      102.378       15.880        0.024      340.019       13.751      864.654
05/16/2014  04:32:00      -32.664      -14.662        5.369       23.109       22.677       15.987      534.018      514.251      255.577        0.131        0.065       35.804        9.781        0.075      340.005       13.727      864.652
05/16/2014  04:33:00      -67.768      -35.330        1.743       72.767       21.705       11.826     5295.028      471.108      139.851        0.587        0.295       76.425       17.582        0.053      339.841       13.452      864.664
05/16/2014  04:34:00     -148.994      -53.535      -16.294       21.751       25.599       20.086      473.115      655.301      403.446        1.343        0.077      158.320       10.882        0.005      339.765       13.323      864.668
05/16/2014  04:35:00     -185.143       27.240      -16.953       47.111       57.929       23.598     2219.429     3355.796      556.853        2.072        0.307      187.136       18.879        0.010      339.812       13.399      864.646
05/16/2014  04:36:00     -145.149       59.475       -5.415       54.068       37.033       28.717     2923.350     1371.413      824.651        1.488        0.256      156.862       27.795        0.031      339.907       13.562      864.624
05/16/2014  04:37:00      -93.576        5.731       -7.880       27.459       30.815       17.880      753.991      949.575      319.705        0.544        0.101       93.751       15.250        0.026      339.961       13.653      864.614
05/16/2014  04:38:00      -82.907      -25.558      -15.461       33.825       33.661       21.267     1144.132     1133.091      452.270        0.525        0.136       86.757       14.904        0.030      339.936       13.611      864.625
05/16/2014  04:39:00     -161.504      -67.329      -14.463       32.308       39.415       22.477     1043.794     1553.504      505.212        1.696        0.155      174.976       11.449        0.004      339.751       13.298      864.641
05/16/2014  04:40:00     -167.987       29.630      -13.366       55.236       47.260       29.800     3051.017     2233.494      888.033        1.772        0.309      170.580       26.191        0.024      339.739       13.278      864.638
05/16/2014  04:41:00     -160.139       32.821      -14.886       37.463       28.767       17.771     1403.449      827.520      315.794        1.474        0.127      163.468        9.992        0.004      339.648       13.123      864.622
05/16/2014  04:42:00     -130.877       23.820      -10.120       39.348       36.777       21.758     1548.228     1352.560      473.409        1.059        0.169      133.027       12.537        0.009      339.778       13.346      864.630
05/16/2014  04:43:00      -96.545      -24.706       -6.701       47.753       41.009       28.327     2280.311     1681.700      802.411        0.737        0.238       99.656       26.588        0.071      339.676       13.173      864.635
05/16/2014  04:44:00     -142.591      -17.740       -6.460       57.067       33.508       30.211     3256.661     1122.771      912.681        1.299        0.265      143.690       31.181        0.047      339.559       12.975      864.632
05/16/2014  04:45:00      -96.616      -30.182       -8.391       47.532       36.113       21.536     2259.301     1304.120      463.795        0.717        0.201      101.221       13.263        0.017      339.501       12.875      864.626
05/16/2014  04:46:00     -178.721        8.183      -17.396       32.769       26.566       19.547     1073.830      705.750      382.071        1.724        0.108      178.908       16.453        0.008      339.513       12.896      864.631
05/16/2014  04:47:00     -176.545       -4.576      -24.084       25.724       19.119       15.241      661.747      365.525      232.291        1.651        0.063      176.604        9.841        0.003      339.537       12.938      864.633
05/16/2014  04:48:00     -159.273       17.529      -23.067       25.326       29.959       17.893      641.389      897.521      320.150        1.403        0.093      160.235       11.694        0.005      339.598       13.041      864.623
05/16/2014  04:49:00     -116.610       65.779      -18.102       37.598       30.997       22.976     1413.603      960.817      527.881        1.058        0.145      133.883       20.467        0.023      340.027       13.765      864.599
05/16/2014  04:50:00     -108.102       58.697       -6.528       47.128       37.261       31.982     2221.013     1388.345     1022.851        0.990        0.232      123.010       30.565        0.062      340.243       14.129      864.579
05/16/2014  04:51:00     -170.511       36.660      -20.768       52.069       52.333       27.771     2711.224     2738.695      771.227        1.853        0.311      174.407       27.240        0.024      340.120       13.920      864.565
05/16/2014  04:52:00     -200.283       29.252      -17.729       45.042       45.205       24.350     2028.810     2043.485      592.924        2.297        0.233      202.408       14.212        0.005      339.652       13.128      864.569
05/16/2014  04:53:00     -187.278        0.738      -23.669       26.730       26.579       16.959      714.505      706.437      287.620        1.867        0.085      187.279       10.193        0.003      339.482       12.845      864.568
05/16/2014  04:54:00     -141.930       17.868      -15.340       33.871       33.823       20.363     1147.249     1143.963      414.640        1.170        0.135      143.050       14.953        0.011      339.491       12.861      864.552
05/16/2014  04:55:00      -91.299       33.444       -2.137       37.796       25.687       22.380     1428.504      659.838      500.885        0.602        0.129       97.232       14.958        0.024      339.781       13.351      864.522
05/16/2014  04:56:00     -123.436        3.374       -9.141       22.434       38.618       15.169      503.295     1491.332      230.109        0.878        0.111      123.482       12.851        0.011      339.779       13.346      864.499
05/16/2014  04:57:00     -111.389      -22.405       -6.890       39.784       35.237       22.369     1582.749     1241.612      500.365        0.814        0.166      113.620       16.423        0.021      339.589       13.027      864.509
05/16/2014  04:58:00     -170.073       17.159      -15.425       51.751       41.398       28.107     2678.157     1713.767      789.994        1.732        0.259      170.936       28.838        0.028      339.574       13.001      864.514
05/16/2014  04:59:00     -151.082      -33.637      -17.157       48.191       45.829       28.084     2322.394     2100.264      788.728        1.473        0.261      154.781       20.119        0.017      339.518       12.906      864.519
05/16/2014  05:00:00     -176.343       30.393      -28.950       52.989       49.738       30.601     2807.801     2473.835      936.432        1.954        0.311      178.943       21.688        0.015      339.498       12.872      864.514
05/16/2014  05:01:00     -164.394       13.390      -11.921       53.877       51.183       29.571     2902.761     2619.673      874.439        1.687        0.320      164.938       31.687        0.037      339.617       13.071      864.515
05/16/2014  05:02:00     -119.925        3.896       -1.518       51.994       48.203       34.805     2703.422     2323.562     1211.386        1.032        0.312      119.989       34.744        0.084      339.552       12.964      864.521
05/16/2014  05:03:00     -191.557       26.015      -16.220       52.117       36.373       27.980     2716.147     1322.961      782.883        2.123        0.241      193.316       24.497        0.016      339.699       13.210      864.534
05/16/2014  05:04:00     -165.433        3.079       -8.186       45.521       47.532       29.490     2072.166     2259.327      869.650        1.632        0.260      165.462       27.270        0.027      339.629       13.092      864.522
05/16/2014  05:05:00     -148.727      -56.724      -19.047       29.311       32.533       18.579      859.106     1058.380      345.183        1.398        0.113      159.177       15.569        0.010      339.582       13.014      864.510
05/16/2014  05:06:00     -179.626      -52.960      -12.720       67.965       49.829       27.811     4619.189     2482.906      773.450        2.155        0.394      187.271       25.417        0.018      339.588       13.023      864.520
05/16/2014  05:07:00     -157.778      -26.546      -12.361       61.035       54.163       38.987     3725.212     2933.611     1519.989        1.696        0.409      159.996       32.512        0.041      339.508       12.887      864.528
05/16/2014  05:08:00     -171.545        2.218      -22.402       44.348       48.633       26.465     1966.706     2365.132      700.403        1.748        0.252      171.559       16.734        0.010      339.512       12.896      864.513
05/16/2014  05:09:00     -119.085       -6.506      -10.312       45.249       37.062       29.331     2047.466     1373.628      860.335        0.930        0.214      119.263       25.562        0.046      339.566       12.986      864.512
05/16/2014  05:10:00      -99.027       -2.486      -20.945       36.589       51.950       25.203     1338.763     2698.784      635.190        0.746        0.234       99.058       14.750        0.022      339.612       13.064      864.516
05/16/2014  05:11:00     -119.334      -21.764       -5.516       37.411       30.657       26.868     1399.558      939.868      721.867        0.890        0.153      121.303       24.424        0.041      339.656       13.139      864.507
05/16/2014  05:12:00     -169.708      -53.109       -8.732       27.273       29.249       20.396      743.814      855.480      416.000        1.686        0.101      177.824        9.535        0.003      339.686       13.189      864.521
05/16/2014  05:13:00     -148.334      -38.667       -5.743       37.648       36.976       19.838     1417.382     1367.228      393.564        1.335        0.159      153.291       15.376        0.010      339.637       13.107      864.524
05/16/2014  05:14:00     -164.397      -39.159      -11.983       46.906       36.634       25.393     2200.159     1342.076      644.825        1.644        0.209      168.996       24.441        0.021      339.621       13.079      864.519
05/16/2014  05:15:00     -172.035        3.764      -14.490       68.890       48.898       30.313     4745.881     2391.011      918.898        1.894        0.403      172.076       33.056        0.037      339.551       12.960      864.532
05/16/2014  05:16:00     -169.799       -5.046      -12.275       61.205       38.745       27.160     3746.042     1501.167      737.661        1.750        0.299      169.874       26.455        0.024      339.573       12.996      864.528
05/16/2014  05:17:00     -143.065      -48.157      -12.802       44.964       44.183       26.325     2021.787     1952.101      692.981        1.381        0.233      150.953       26.667        0.031      339.611       13.063      864.523
05/16/2014  05:18:00     -138.629      -46.585       -8.990       45.446       40.476       25.340     2065.379     1638.332      642.114        1.291        0.217      146.247       20.476        0.020      339.578       13.008      864.538
05/16/2014  05:19:00     -192.771      -30.616      -15.946       55.868       47.835       28.926     3121.265     2288.225      836.724        2.230        0.312      195.187       19.017        0.009      339.519       12.904      864.541
05/16/2014  05:20:00     -187.519      -42.562       -9.300       53.631       56.156       36.258     2876.261     3153.527     1314.633        2.220        0.367      192.288       32.148        0.028      339.496       12.866      864.526
05/16/2014  05:21:00     -179.012        0.100      -22.105       55.601       46.985       27.137     3091.514     2207.615      736.415        1.928        0.302      179.012       24.828        0.019      339.552       12.961      864.520
05/16/2014  05:22:00     -156.232        5.229      -10.552       60.150       59.883       41.017     3617.995     3585.993     1682.368        1.671        0.444      156.320       36.584        0.055      339.531       12.926      864.541
05/16/2014  05:23:00     -175.462       33.812      -21.023       60.537       62.113       28.652     3664.788     3857.966      820.921        2.036        0.417      178.690       35.875        0.040      339.599       13.040      864.552
05/16/2014  05:24:00     -120.250       12.111      -12.748       38.504       49.789       24.817     1482.525     2478.989      615.906        0.967        0.229      120.858       26.143        0.047      339.556       12.971      864.555
05/16/2014  05:25:00     -126.017       -9.271      -15.624       37.485       61.240       31.726     1405.138     3750.317     1006.552        1.118        0.308      126.357       16.800        0.018      339.607       13.055      864.569
05/16/2014  05:26:00      -85.857      -64.659       -7.243       44.984       39.282       33.923     2023.543     1543.068     1150.740        0.816        0.236      107.481       29.948        0.078      339.566       12.989      864.573
05/16/2014  05:27:00     -150.247      -48.067      -18.300       57.431       35.311       21.591     3298.292     1246.837      466.169        1.511        0.251      157.749       24.398        0.024      339.576       13.005      864.577
05/16/2014  05:28:00     -177.036      -14.660      -17.830       40.154       31.087       23.535     1612.375      966.424      553.873        1.750        0.157      177.642       20.963        0.014      339.554       12.966      864.592
05/16/2014  05:29:00     -186.080      -15.855      -23.678       29.408       30.398       20.791      864.846      924.051      432.273        1.883        0.111      186.754       16.524        0.008      339.552       12.961      864.596
05/16/2014  05:30:00     -175.524       13.552      -21.477       47.505       32.667       21.489     2256.712     1067.116      461.786        1.762        0.189      176.046       24.277        0.019      339.602       13.046      864.586
05/16/2014  05:31:00     -103.587       -4.130      -14.322       26.930       36.089       19.209      725.247     1302.447      369.002        0.667        0.120      103.669       14.552        0.020      339.629       13.093      864.579
05/16/2014  05:32:00      -81.976       10.334      -10.269       31.640       39.208       17.701     1001.072     1537.273      313.319        0.489        0.143       82.625       18.811        0.052      339.672       13.165      864.592
05/16/2014  05:33:00      -95.019      -41.217      -13.055       26.345       23.068       18.972      694.072      532.145      359.926        0.624        0.079      103.573       11.837        0.013      339.682       13.181      864.593
05/16/2014  05:34:00     -126.207      -25.748      -11.236       30.492       37.966       16.798      929.756     1441.426      282.181        0.968        0.133      128.807       13.982        0.012      339.647       13.124      864.591
05/16/2014  05:35:00     -126.706      -33.668      -13.611       46.734       46.258       25.134     2184.099     2139.802      631.730        1.116        0.248      131.102       27.564        0.044      339.585       13.020      864.589
05/16/2014  05:36:00     -106.646      -20.155       -4.873       38.981       35.216       17.637     1519.482     1240.186      311.079        0.744        0.154      108.534       18.227        0.028      339.566       12.987      864.590
05/16/2014  05:37:00      -84.981      -22.823       -3.231       35.041       41.500       19.014     1227.877     1722.279      361.518        0.553        0.166       87.992       14.222        0.026      339.544       12.950      864.590
05/16/2014  05:38:00     -142.883       -5.955      -12.635       32.440       25.027       22.095     1052.348      626.367      488.196        1.139        0.108      143.007       17.797        0.015      339.597       13.040      864.593
05/16/2014  05:39:00     -143.400      -13.395      -13.646       31.020       27.100       19.670      962.267      734.412      386.927        1.151        0.104      144.024       20.521        0.020      339.539       12.942      864.591
05/16/2014  05:40:00     -168.326      -20.693      -12.542       43.725       33.884       22.630     1911.859     1148.134      512.131        1.624        0.179      169.593       21.689        0.016      339.510       12.891      864.591
05/16/2014  05:41:00     -102.851      -68.084        0.935       47.782       34.494       24.590     2283.127     1189.817      604.656        0.965        0.204      123.344       15.084        0.015      339.529       12.924      864.601
05/16/2014  05:42:00      -74.515      -61.518       10.871       65.467       32.809       26.740     4285.929     1076.428      715.038        0.777        0.304       96.628       30.901        0.102      339.616       13.070      864.597
05/16/2014  05:43:00      -65.388      -67.633       -0.429       30.959       28.600       19.676      958.457      817.957      387.158        0.551        0.108       94.074       12.329        0.017      339.629       13.093      864.579
05/16/2014  05:44:00      -14.952      -13.025        2.440       15.206       21.084        8.920      231.230      444.519       79.561        0.058        0.038       19.829        9.197        0.215      339.631       13.095      864.557
05/16/2014  05:45:00      -18.579       -7.195       -1.071       10.687        7.285        7.653      114.219       53.066       58.565        0.031        0.011       19.923        7.587        0.145      339.607       13.057      864.556
05/16/2014  05:46:00      -18.312       -6.069       -5.143        9.852        6.996        6.089       97.056       48.942       37.076        0.029        0.009       19.292        6.682        0.120      339.680       13.180      864.576
05/16/2014  05:47:00      -62.902        3.277       -4.219       26.509       15.504       10.376      702.743      240.378      107.667        0.252        0.053       62.987       13.117        0.043      339.635       13.103      864.594
05/16/2014  05:48:00      -69.715       -6.700       -2.857       17.326       17.416       12.150      300.198      303.334      147.629        0.283        0.038       70.036        9.170        0.017      339.540       12.942      864.586
05/16/2014  05:49:00      -77.601      -28.009       -8.682       19.140       27.561       10.729      366.327      759.607      115.119        0.406        0.062       82.501        6.662        0.007      339.583       13.016      864.545
05/16/2014  05:50:00      -88.171        2.248       -8.330       34.299       21.126       17.369     1176.418      446.329      301.665        0.489        0.096       88.199       18.783        0.045      339.515       12.901      864.481
05/16/2014  05:51:00     -118.494       30.378       -9.730       33.350       21.778       14.441     1112.212      474.270      208.540        0.843        0.090      122.326       15.130        0.015      339.550       12.961      864.439
05/16/2014  05:52:00      -91.338      -21.749       -8.151       41.771       22.381       16.747     1744.846      500.887      280.450        0.570        0.126       93.892       18.307        0.038      339.487       12.853      864.433
05/16/2014  05:53:00      -91.296      -51.714       -6.870       40.654       23.657       25.183     1652.758      559.648      634.171        0.695        0.142      104.925       19.425        0.034      339.431       12.758      864.458
05/16/2014  05:54:00      -65.549      -62.319        2.612       52.680       33.411       22.106     2775.151     1116.319      488.693        0.628        0.219       90.445       20.200        0.050      339.411       12.726      864.482
05/16/2014  05:55:00       32.395      -15.736       11.863       24.047       23.429       18.210      578.268      548.908      331.593        0.145        0.073       36.014       12.862        0.128      339.364       12.647      864.488
05/16/2014  05:56:00       20.142       18.486       24.748       12.701       16.736       12.627      161.321      280.093      159.451        0.098        0.030       27.339        7.917        0.084      339.163       12.308      864.492
05/16/2014  05:57:00        9.797      -46.029        2.050       19.686       19.785       14.487      387.522      391.442      209.864        0.160        0.049       47.060       12.768        0.074      339.600       13.044      864.502
05/16/2014  05:58:00      -43.033      -19.460        7.816       25.118       19.037       17.628      630.891      362.392      310.744        0.180        0.065       47.228       10.329        0.048      339.667       13.159      864.516
05/16/2014  05:59:00     -117.080      -61.180       -4.489       42.358       22.402       14.309     1794.158      501.857      204.753        0.999        0.125      132.101       16.722        0.016      339.581       13.013      864.524
05/16/2014  06:00:00     -123.863      -53.425       -6.050       22.615       19.568       15.788      511.455      382.920      249.251        0.969        0.057      134.894       13.062        0.009      339.524       12.916      864.523
05/16/2014  06:01:00      -88.854      -31.676       -8.025       21.190       13.080        9.705      449.011      171.075       94.197        0.484        0.036       94.331        9.335        0.010      339.539       12.939      864.515
05/16/2014  06:02:00      -38.154      -32.406        0.032       27.574       19.775       17.742      760.324      391.031      314.771        0.199        0.073       50.059       13.353        0.071      339.602       13.048      864.512
05/16/2014  06:03:00      -47.888      -74.901        1.200       36.645       40.579       21.861     1342.819     1646.672      477.896        0.569        0.173       88.902       21.177        0.057      339.491       12.861      864.519
05/16/2014  06:04:00      -87.550      -43.702       -6.904       18.247       20.418       13.887      332.957      416.911      192.859        0.528        0.047       97.851        9.006        0.008      339.513       12.897      864.532
05/16/2014  06:05:00     -100.290      -23.428      -11.863       18.519       14.880       13.324      342.936      221.420      177.540        0.574        0.037      102.990       11.667        0.013      339.510       12.892      864.530
05/16/2014  06:06:00     -129.562      -35.538      -16.356       30.092       21.201       13.319      905.531      449.485      177.406        0.992        0.077      134.347       11.547        0.007      339.508       12.889      864.538
05/16/2014  06:07:00     -133.289      -73.915       -8.062       24.407       28.232       14.339      595.726      797.045      205.596        1.245        0.080      152.412       11.555        0.006      339.463       12.813      864.542
05/16/2014  06:08:00     -107.924      -53.853        1.406       32.912       29.047       23.255     1083.207      843.722      540.800        0.851        0.123      120.614       20.981        0.030      339.413       12.729      864.538
05/16/2014  06:09:00      -68.509      -80.064        5.706       42.484       53.114       23.977     1804.928     2821.128      574.897        0.817        0.260      105.374       24.425        0.054      339.378       12.670      864.539
05/16/2014  06:10:00      -79.155      -76.108       -3.424       25.494       38.663       15.516      649.939     1494.809      240.731        0.723        0.119      109.808       17.721        0.026      339.461       12.809      864.549
05/16/2014  06:11:00      -74.554      -24.052       -7.663       14.136       10.667        8.725      199.815      113.774       76.124        0.329        0.019       78.338        1.878        0.001      339.497       12.870      864.546
05/16/2014  06:12:00      -87.997      -23.416      -11.920       21.818       15.191        8.604      476.009      230.752       74.025        0.461        0.039       91.060       10.000        0.012      339.542       12.947      864.545
05/16/2014  06:13:00     -115.756      -47.903       -7.101       32.900       23.660       14.121     1082.431      559.777      199.397        0.879        0.092      125.276        9.599        0.006      339.557       12.973      864.564
05/16/2014  06:14:00     -115.852      -61.784       -1.761       53.159       22.688       23.316     2825.876      514.757      543.648        1.056        0.194      131.297       23.236        0.031      339.411       12.726      864.604
05/16/2014  06:15:00      -64.284      -73.980        1.132       46.289       25.743       21.182     2142.698      662.702      448.657        0.643        0.163       98.008       18.577        0.036      339.420       12.740      864.654
05/16/2014  06:16:00      -60.254      -23.206       -1.223       21.432       38.934       13.463      459.344     1515.856      181.256        0.316        0.108       64.569       14.706        0.052      339.523       12.915      864.677
05/16/2014  06:17:00      -81.304       36.355       -9.774       13.501       12.180        8.835      182.274      148.351       78.062        0.422        0.020       89.062        6.867        0.006      339.581       13.011      864.661
05/16/2014  06:18:00      -85.461       37.874       -7.322       24.854       14.235       13.234      617.720      202.622      175.132        0.489        0.050       93.477       10.473        0.013      339.511       12.893      864.657
05/16/2014  06:19:00      -55.187       56.951      -16.828       12.446       24.551       10.030      154.911      602.750      100.606        0.372        0.043       79.303        7.446        0.009      339.624       13.082      864.658
05/16/2014  06:20:00      -23.367       51.906       -2.343       17.267       19.777       12.333      298.139      391.110      152.100        0.204        0.042       56.924       11.094        0.038      339.986       13.696      864.666
05/16/2014  06:21:00      -20.779       -1.028       -2.049       13.467       22.965        8.505      181.359      527.410       72.341        0.061        0.039       20.805        7.458        0.128      339.765       13.324      864.682
05/16/2014  06:22:00        2.764      -42.438        4.399       15.065       24.854       12.414      226.956      617.725      154.103        0.141        0.050       42.528       12.218        0.083      339.547       12.955      864.702
05/16/2014  06:23:00       -5.821      -15.441       18.087        9.890       20.049       12.674       97.807      401.946      160.618        0.063        0.033       16.502        9.435        0.327      339.552       12.964      864.721
05/16/2014  06:24:00        6.654        2.065        5.336       14.271       11.474       14.181      203.672      131.661      201.090        0.031        0.027        6.967       10.241        2.161      339.367       12.651      864.740
05/16/2014  06:25:00       10.545      -14.028        7.734       18.694       12.367        9.196      349.468      152.936       84.568        0.048        0.029       17.549        4.931        0.079      339.512       12.896      864.763
05/16/2014  06:26:00        8.958      -31.457        1.801       12.082       27.214       11.725      145.983      740.615      137.483        0.105        0.051       32.707        6.891        0.044      339.736       13.274      864.772
05/16/2014  06:27:00      -13.960       50.691       -7.133       16.136       21.930        9.047      260.359      480.945       81.845        0.182        0.041       52.578        7.538        0.021      339.726       13.259      864.721
05/16/2014  06:28:00      -70.655       42.357      -12.135       39.027       34.457       12.565     1523.111     1187.259      157.881        0.490        0.143       82.379        8.316        0.010      339.511       12.895      864.706
05/16/2014  06:29:00     -103.035      -11.565       -9.175       24.376       23.787       20.548      594.201      565.843      422.223        0.621        0.079      103.682       14.486        0.020      339.420       12.740      864.792
05/16/2014  06:30:00      -11.227      -25.276        4.580       43.688       20.575       16.614     1908.666      423.347      276.017        0.170        0.130       27.658        9.903        0.128      339.522       12.913      864.842
05/16/2014  06:31:00       11.178        4.718       19.893       14.979       16.973       12.629      224.371      288.073      159.488        0.061        0.034       12.133       10.585        0.761      339.546       12.954      864.808
05/16/2014  06:32:00       31.830       17.358        4.434       13.944        9.011       12.547      194.421       81.197      157.433        0.088        0.022       36.256        5.961        0.027      339.167       12.315      864.742
05/16/2014  06:33:00       34.499      -14.251       -0.880       13.132       15.885       15.256      172.461      252.335      232.753        0.103        0.033       37.327        3.782        0.010      339.378       12.671      864.727
05/16/2014  06:34:00      -21.238       -7.474        0.923       29.699        9.894        6.508      882.050       97.885       42.357        0.076        0.051       22.515       10.879        0.233      339.849       13.464      864.733
05/16/2014  06:35:00     -102.593       12.425      -10.026       30.143       18.442        9.728      908.583      340.124       94.643        0.606        0.067      103.343        6.564        0.004      339.616       13.071      864.709
05/16/2014  06:36:00      -98.646       39.602      -16.323       28.834       20.799       15.584      831.418      432.610      242.847        0.654        0.075      106.298       11.103        0.011      339.597       13.040      864.674
05/16/2014  06:37:00      -33.846       90.334      -10.347       26.139       30.430       14.312      683.266      925.993      204.828        0.561        0.091       96.466       12.111        0.016      339.812       13.403      864.626
05/16/2014  06:38:00      -12.627      142.135      -17.058       19.897       27.950       15.489      395.875      781.213      239.904        1.103        0.071      142.695       12.631        0.008      339.913       13.572      864.620
05/16/2014  06:39:00       32.252      152.105      -25.462       21.068       23.574       19.994      443.841      555.726      399.746        1.311        0.070      155.487       15.974        0.011      339.915       13.576      864.631
05/16/2014  06:40:00       29.699       66.530       -3.897       25.130       51.459       22.863      631.507     2648.022      522.704        0.456        0.190       72.858       26.586        0.133      339.890       13.534      864.671
05/16/2014  06:41:00       -9.713        9.851        1.661       22.951       19.963       13.738      526.735      398.510      188.721        0.065        0.056       13.834       10.270        0.551      339.936       13.611      864.740
05/16/2014  06:42:00       -0.465      -15.073       12.766       11.685       16.099       13.237      136.542      259.183      175.228        0.048        0.029       15.080        6.782        0.202      340.057       13.815      864.780
05/16/2014  06:43:00        4.010        2.632       21.820       24.674       21.859       17.733      608.809      477.831      314.456        0.095        0.070        4.796       14.091        8.631      339.728       13.261      864.769
05/16/2014  06:44:00       37.331       28.943        9.275       14.269        8.838       17.983      203.614       78.111      323.405        0.146        0.030       47.237        4.536        0.009      339.534       12.934      864.706
05/16/2014  06:45:00       -0.581       31.180        5.882       21.489       12.691       15.939      461.771      161.069      254.057        0.094        0.044       31.186       12.833        0.169      339.677       13.174      864.686
05/16/2014  06:46:00      -85.150       -9.096      -14.384       61.075       22.707       13.936     3730.101      515.603      194.210        0.599        0.222       85.635       16.713        0.038      339.905       13.559      864.716
05/16/2014  06:47:00     -180.509      -60.540       -1.658       42.537       44.175       24.465     1809.381     1951.398      598.554        2.030        0.218      190.391       18.774        0.010      339.940       13.616      864.765
05/16/2014  06:48:00     -149.629      -17.066       -1.789       46.361       51.091       25.346     2149.369     2610.302      642.402        1.404        0.270      150.599       13.016        0.007      339.846       13.459      864.806
05/16/2014  06:49:00      -68.885        6.602       -1.044       61.006       21.139       19.740     3721.719      446.848      389.682        0.467        0.228       69.200       23.578        0.116      339.830       13.432      864.761
05/16/2014  06:50:00       32.910       16.785       10.281       22.392       24.414       17.739      501.416      596.046      314.660        0.144        0.071       36.943        5.608        0.023      339.729       13.263      864.690
05/16/2014  06:51:00       59.060       39.831        0.660       41.830       24.431       24.834     1749.715      596.874      616.729        0.402        0.148       71.236       13.079        0.034      339.861       13.486      864.648
05/16/2014  06:52:00        1.808       52.043       -9.186       23.604       23.515       13.240      557.131      552.943      175.290        0.204        0.064       52.075       10.812        0.043      340.018       13.749      864.662
05/16/2014  06:53:00      -93.054       -0.431      -11.839       28.007       28.330       17.563      784.386      802.586      308.453        0.535        0.095       93.055       15.797        0.029      340.012       13.741      864.718
05/16/2014  06:54:00     -132.393      -70.972       -9.675       73.641       39.841       25.923     5423.041     1587.289      672.020        1.517        0.384      150.216       29.432        0.038      339.982       13.689      864.786
05/16/2014  06:55:00     -150.829      -50.079        0.617       53.172       56.576       25.614     2827.245     3200.825      656.094        1.597        0.334      158.925       19.194        0.015      340.097       13.883      864.857
05/16/2014  06:56:00      -38.180        5.470       -6.623       39.220       34.149       18.632     1538.237     1166.188      347.140        0.229        0.153       38.570       19.131        0.246      340.115       13.912      864.840
05/16/2014  06:57:00       12.352       15.998       10.576       22.442       14.918       15.132      503.647      222.557      228.972        0.074        0.048       20.212        5.757        0.081      340.156       13.981      864.738
05/16/2014  06:58:00       65.346       77.803       -7.625       36.061       26.749       21.952     1300.364      715.525      481.906        0.644        0.125      101.604       17.962        0.031      340.003       13.726      864.616
05/16/2014  06:59:00       50.638       71.721        5.210       43.493       39.495       37.232     1891.671     1559.874     1386.203        0.629        0.242       87.796       23.335        0.071      340.126       13.931      864.515
05/16/2014  07:00:00        2.570       73.111       -9.334       63.353       70.970       27.748     4013.547     5036.674      769.975        0.763        0.491       73.156       20.473        0.078      340.104       13.895      864.523
05/16/2014  07:01:00     -122.999      -82.969        0.839       81.635       61.737       38.448     6664.248     3811.414     1478.254        1.698        0.598      148.366       40.252        0.074      340.153       13.976      864.675
05/16/2014  07:02:00     -145.043      -97.919        9.109       84.729       68.893       45.253     7179.033     4746.297     2047.818        2.234        0.699      175.002       42.138        0.058      340.122       13.922      864.771
05/16/2014  07:03:00      -40.662      -14.362       16.965       66.660       63.968       37.112     4443.616     4091.928     1377.295        0.603        0.496       43.124       48.178        1.248      340.265       14.165      864.729
05/16/2014  07:04:00       30.833       74.511       57.391       38.107       43.434       45.799     1452.115     1886.489     2097.532        0.762        0.272       80.639       25.532        0.100      339.832       13.437      864.662
05/16/2014  07:05:00      -20.619       21.216       -0.768       56.500       21.757       17.149     3192.292      473.350      294.090        0.242        0.198       29.585        6.227        0.044      340.155       13.981      864.659
05/16/2014  07:06:00     -166.076       -0.270      -12.932       66.774       30.336       28.071     4458.788      920.284      787.975        1.696        0.308      166.076       30.391        0.033      340.217       14.083      864.733
05/16/2014  07:07:00     -163.751      -73.906      -16.543       74.088       55.196       32.254     5489.002     3046.591     1040.323        2.106        0.479      179.657       12.753        0.005      340.193       14.043      864.799
05/16/2014  07:08:00      -30.274      -16.713       12.040       54.729       33.980       26.370     2995.252     1154.629      695.380        0.309        0.242       34.581       28.514        0.680      340.319       14.258      864.828
05/16/2014  07:09:00      -16.645      -75.426       12.219       33.197       36.606       17.598     1102.048     1340.007      309.705        0.443        0.138       77.241       16.163        0.044      340.329       14.275      864.806
05/16/2014  07:10:00      -50.609     -116.054       -8.558       26.395       28.385       17.087      696.722      805.709      291.958        0.895        0.090      126.609       15.355        0.015      340.300       14.225      864.804
05/16/2014  07:11:00      -91.557      -34.891       -5.715       30.490       24.877       15.752      929.620      618.875      248.132        0.571        0.090       97.980       12.304        0.016      340.404       14.400      864.787
05/16/2014  07:12:00      -51.026       22.105       -4.104       16.193       13.178       10.385      262.215      173.654      107.840        0.183        0.027       55.608        7.275        0.017      340.385       14.370      864.755
05/16/2014  07:13:00      -48.684       13.534       -6.472       22.998       13.419        8.261      528.898      180.071       68.241        0.169        0.039       50.530        8.571        0.029      340.419       14.424      864.722
05/16/2014  07:14:00     -113.571        0.290       -7.864       40.742       21.823       15.479     1659.897      476.231      239.593        0.767        0.119      113.571       12.903        0.013      340.429       14.446      864.746
05/16/2014  07:15:00      -87.370      -15.037       -0.851       33.916       30.080       23.816     1150.273      904.814      567.199        0.524        0.131       88.654       21.665        0.060      340.386       14.373      864.763
05/16/2014  07:16:00       -4.250      -30.744       17.920       28.177       19.194       19.302      793.954      368.400      372.571        0.141        0.077       31.036       19.309        0.387      340.552       14.651      864.763
05/16/2014  07:17:00       -2.008        3.334       26.827       10.091       18.358        8.633      101.825      337.006       74.521        0.062        0.026        3.892        5.610        2.078      340.676       14.862      864.733
05/16/2014  07:18:00       16.144        2.190       13.503       18.067       14.082       16.171      326.420      198.308      261.505        0.062        0.039       16.292        9.396        0.333      340.261       14.161      864.712
05/16/2014  07:19:00       -4.540        9.612        9.230        9.968       11.369        9.778       99.365      129.260       95.614        0.026        0.016       10.630        8.048        0.573      340.322       14.262      864.725
05/16/2014  07:20:00      -36.980      -24.340       -4.988       19.210       12.084        6.389      369.040      146.024       40.818        0.127        0.028       44.272        2.767        0.004      340.551       14.652      864.780
05/16/2014  07:21:00      -30.397      -14.143        4.410       13.347       16.948       10.009      178.137      287.238      100.186        0.085        0.028       33.527        7.935        0.056      340.731       14.955      864.798
05/16/2014  07:22:00       45.509       -7.749       11.602       32.069       15.737       17.650     1028.396      247.662      311.528        0.193        0.079       46.164       13.820        0.090      340.169       14.005      864.781
05/16/2014  07:23:00       49.724      -11.151        4.727       26.448       17.007       18.831      699.481      289.250      354.591        0.198        0.067       50.958       14.564        0.082      340.194       14.046      864.753
05/16/2014  07:24:00       45.573      -10.956       12.104       27.654       25.080       23.062      764.729      629.025      531.869        0.213        0.096       46.871       18.252        0.152      340.244       14.131      864.731
05/16/2014  07:25:00       32.134       -0.052        3.099       20.556       17.833       20.751      422.533      317.999      430.611        0.111        0.059       32.135       13.776        0.184      340.368       14.339      864.732
05/16/2014  07:26:00       17.833        1.480       16.841       25.051       24.724       17.981      627.577      611.258      323.329        0.108        0.078       17.895       17.314        0.936      340.319       14.258      864.732
05/16/2014  07:27:00        0.554        6.725       29.410       26.789       28.471       21.211      717.672      810.579      449.915        0.144        0.099        6.748       18.537        7.546      340.323       14.264      864.754
05/16/2014  07:28:00       -2.498        6.143       15.459       15.939       20.688       21.863      254.053      427.986      477.974        0.072        0.058        6.631       15.359        5.364      340.396       14.387      864.760
05/16/2014  07:29:00       27.032       10.786        5.894       20.085       18.136       22.998      403.422      328.917      528.917        0.107        0.063       29.104       13.527        0.216      340.191       14.041      864.736
05/16/2014  07:30:00       17.582       12.333       -6.919       18.419       28.660       14.725      339.248      821.376      216.836        0.094        0.069       21.476        5.969        0.077      340.360       14.326      864.727
05/16/2014  07:31:00      -19.421      -42.239        5.217       14.555       15.362       12.473      211.837      235.984      155.581        0.140        0.030       46.489        9.894        0.045      340.626       14.778      864.752
05/16/2014  07:32:00      -15.508      -23.918        9.936       37.528       21.810       25.034     1408.372      475.687      626.681        0.171        0.126       28.506       23.436        0.676      340.800       15.072      864.793
05/16/2014  07:33:00      -40.656      -69.058        2.030       42.196       26.823       24.736     1780.463      719.496      611.889        0.477        0.156       80.137       26.285        0.108      340.847       15.150      864.775
05/16/2014  07:34:00      -19.618      -10.344        0.460       20.639       19.463        9.001      425.978      378.813       81.016        0.069        0.044       22.178        8.483        0.146      340.950       15.324      864.714
05/16/2014  07:35:00       24.211       21.054       12.012       17.767       19.939       14.085      315.657      397.544      198.401        0.104        0.046       32.085       13.401        0.174      340.873       15.194      864.655
05/16/2014  07:36:00       19.135       34.314       -7.237       21.328       18.207       12.959      454.873      331.510      167.936        0.127        0.048       39.288       11.574        0.087      340.818       15.101      864.640
05/16/2014  07:37:00      -28.810        3.868       -7.478       22.517       16.049        8.870      507.009      257.570       78.670        0.087        0.042       29.068        5.766        0.039      340.944       15.314      864.665
05/16/2014  07:38:00      -56.142      -32.438       -2.058       24.606       24.418       15.804      605.477      596.246      249.753        0.283        0.073       64.840       13.409        0.043      340.948       15.320      864.675
05/16/2014  07:39:00      -48.798      -39.071       -0.969       14.473       12.007       10.187      209.481      144.177      103.778        0.218        0.023       62.512        6.125        0.010      340.989       15.390      864.666
05/16/2014  07:40:00      -28.860      -24.498        4.333       18.674       24.720       12.171      348.712      611.087      148.142        0.128        0.055       37.855       10.992        0.084      341.143       15.651      864.638
05/16/2014  07:41:00       -5.277      -26.431        8.528       11.865       20.380       12.660      140.788      415.329      160.274        0.076        0.036       26.953       13.987        0.269      341.141       15.646      864.630
05/16/2014  07:42:00       42.196        0.012       25.151       29.313       16.444       20.603      859.249      270.394      424.501        0.198        0.078       42.196       10.817        0.066      340.582       14.703      864.651
05/16/2014  07:43:00       43.560        2.345       24.345       38.350       23.802       24.229     1470.695      566.535      587.046        0.256        0.131       43.623       22.658        0.270      340.723       14.941      864.665
05/16/2014  07:44:00       63.843      -42.958        3.275       27.940       30.883       25.572      780.653      953.778      653.947        0.416        0.119       76.951        7.358        0.009      340.555       14.657      864.642
05/16/2014  07:45:00       13.996      -26.447        1.958       23.187       25.349       27.879      537.615      642.556      777.260        0.143        0.098       29.922       22.218        0.551      340.767       15.014      864.632
05/16/2014  07:46:00       15.837      -31.306       -2.157       19.960       29.526       22.168      398.382      871.796      491.413        0.150        0.088       35.084       21.989        0.393      341.080       15.545      864.638
05/16/2014  07:47:00      -35.616        0.446        7.912       28.019       18.461       14.630      785.088      340.818      214.023        0.134        0.067       35.619        8.904        0.062      341.093       15.567      864.656
05/16/2014  07:48:00      -49.626       -7.488        3.800       40.444       15.704       12.634     1635.715      246.603      159.614        0.229        0.102       50.188       16.915        0.114      341.364       16.025      864.667
05/16/2014  07:49:00      -25.539      -17.767        4.846       14.699       10.064        8.696      216.071      101.284       75.615        0.069        0.020       31.111        6.910        0.049      341.370       16.036      864.661
05/16/2014  07:50:00       31.072        1.034       25.164       27.503       17.531       25.296      756.417      307.351      639.907        0.165        0.085       31.089       11.722        0.142      341.338       15.983      864.662
05/16/2014  07:51:00       20.629       45.707        9.626       25.514       29.945       23.432      650.954      896.678      549.066        0.235        0.105       50.146       13.072        0.068      341.048       15.491      864.635
05/16/2014  07:52:00       19.529      -56.712      -12.851       31.559       42.778       24.881      995.941     1829.998      619.069        0.360        0.172       59.981       10.106        0.028      340.599       14.731      864.641
05/16/2014  07:53:00       21.702       -4.039       16.560       24.652       30.146       27.265      607.711      908.765      743.377        0.151        0.113       22.075       22.399        1.030      341.144       15.653      864.696
05/16/2014  07:54:00       -6.695       -5.596       23.752       18.367       26.355       19.006      337.334      694.574      361.224        0.102        0.070        8.725       17.034        3.811      341.549       16.339      864.737
05/16/2014  07:55:00        2.428       13.489       29.795       25.966       23.923       25.749      674.229      572.287      663.015        0.149        0.095       13.706       13.424        0.959      341.694       16.586      864.735
05/16/2014  07:56:00       78.796        7.956       15.834       39.500       38.391       25.741     1560.276     1473.838      662.595        0.511        0.185       79.197       19.832        0.063      340.979       15.374      864.687
05/16/2014  07:57:00       50.221      -15.077        2.712       33.524       19.897       26.142     1123.861      395.904      683.383        0.248        0.110       52.435       14.687        0.078      341.021       15.445      864.640
05/16/2014  07:58:00       13.955      -25.300        2.959       19.430       26.028       16.962      377.527      677.446      287.724        0.109        0.067       28.893       15.959        0.305      341.354       16.009      864.629
05/16/2014  07:59:00       17.691      -53.931       -1.751       30.941       26.442       22.936      957.337      699.203      526.080        0.270        0.109       56.758       18.714        0.109      341.277       15.877      864.658
05/16/2014  08:00:00       11.527      -34.074       19.866       35.739       34.879       22.311     1277.287     1216.534      497.764        0.234        0.150       35.971       12.530        0.121      341.629       16.475      864.676
05/16/2014  08:01:00        8.357       14.352       43.890       32.004       39.867       33.303     1024.242     1589.394     1109.116        0.296        0.186       16.608       20.988        1.597      341.894       16.925      864.662
05/16/2014  08:02:00       28.678       27.915       53.653       46.147       45.161       43.017     2129.580     2039.539     1850.493        0.525        0.301       40.021       40.362        1.017      341.469       16.202      864.604
05/16/2014  08:03:00       60.420       16.947       36.282       45.695       57.972       29.578     2088.073     3360.761      874.859        0.579        0.316       62.752       22.333        0.127      341.222       15.785      864.557
05/16/2014  08:04:00      104.125       73.318       51.457       48.693       40.923       33.683     2371.036     1674.681     1134.552        1.202        0.259      127.348        9.785        0.006      341.472       16.207      864.543
05/16/2014  08:05:00        8.223       10.926       11.395       33.897       40.612       25.123     1148.973     1649.314      631.169        0.187        0.171       13.675       22.572        2.725      341.511       16.274      864.562
05/16/2014  08:06:00       15.436      -54.519       -1.691       18.315       26.353       19.020      335.427      694.459      361.772        0.230        0.070       56.662       15.555        0.075      341.461       16.189      864.612
05/16/2014  08:07:00        5.654      -31.605       15.880       20.375       44.834       29.342      415.149     2010.062      860.935        0.228        0.164       32.107       32.508        1.025      342.042       17.176      864.664
05/16/2014  08:08:00      -23.921      -44.884        3.872       33.900       27.950       20.985     1149.220      781.192      440.390        0.249        0.119       50.861        8.038        0.025      341.959       17.036      864.698
05/16/2014  08:09:00      -35.529       -8.756        8.580       32.327       28.278       25.315     1045.013      799.657      640.838        0.195        0.124       36.592       22.820        0.389      341.896       16.927      864.689
05/16/2014  08:10:00       20.008       12.696        9.678       30.116       28.460       24.766      906.972      809.961      613.374        0.149        0.117       23.696       12.766        0.290      341.776       16.724      864.647
05/16/2014  08:11:00       76.278       65.791       16.300       35.406       25.876       23.567     1253.596      669.550      555.411        0.645        0.124      100.731        7.988        0.006      341.617       16.455      864.581
05/16/2014  08:12:00       72.773       26.592       16.396       43.172       32.819       30.804     1863.792     1077.091      948.910        0.508        0.194       77.479       14.093        0.033      342.157       17.371      864.535
05/16/2014  08:13:00       -3.518       17.328       10.490       42.279       21.461       22.902     1787.491      460.561      524.510        0.160        0.139       17.682       11.003        0.387      342.442       17.855      864.546
05/16/2014  08:14:00      -22.199        3.523       12.769       21.433       22.115       18.055      459.365      489.092      325.989        0.097        0.064       22.476       14.493        0.416      342.293       17.603      864.600
05/16/2014  08:15:00       22.388      -18.567       14.871       17.847       21.567       21.069      318.517      465.117      443.894        0.115        0.061       29.085        4.647        0.026      342.250       17.530      864.650
05/16/2014  08:16:00      -22.657       -3.031       14.952       26.741       19.248       26.429      715.088      370.482      698.507        0.126        0.089       22.859       14.531        0.404      342.361       17.717      864.661
05/16/2014  08:17:00       31.343        7.595       37.729       37.261       39.240       33.542     1388.364     1539.785     1125.053        0.326        0.203       32.250       26.535        0.677      342.070       17.223      864.639
05/16/2014  08:18:00       21.338        0.554       24.146       41.909       40.023       26.554     1756.396     1601.813      705.133        0.255        0.203       21.345       16.825        0.621      341.780       16.731      864.608
05/16/2014  08:19:00      -12.021      -15.379       17.163       24.092       38.061       26.086      580.440     1448.678      680.489        0.169        0.135       19.520       15.668        0.644      341.714       16.618      864.582
05/16/2014  08:20:00        2.854      -34.339       15.867       37.558       40.756       30.499     1410.576     1661.044      930.189        0.272        0.200       34.457       24.036        0.487      341.850       16.850      864.585
05/16/2014  08:21:00       25.464      -46.240        3.483       30.971       31.743       20.826      959.194     1007.634      433.715        0.260        0.120       52.788       10.357        0.038      341.781       16.732      864.591
05/16/2014  08:22:00       18.478       -1.998       25.902       22.266       18.437       19.145      495.791      339.934      366.522        0.111        0.060       18.586       13.676        0.541      342.265       17.554      864.591
05/16/2014  08:23:00       23.812        3.931       28.826       19.488       14.255       16.358      379.767      203.206      267.590        0.113        0.043       24.135        7.088        0.086      342.165       17.384      864.581
05/16/2014  08:24:00       18.901       -0.427       18.765       32.528       20.526       25.795     1058.080      421.313      665.364        0.143        0.107       18.906       16.467        0.759      342.328       17.660      864.557
05/16/2014  08:25:00       27.894      -13.395       12.774       30.297       17.652       22.447      917.883      311.599      503.858        0.143        0.087       30.943       11.878        0.147      341.914       16.956      864.548
05/16/2014  08:26:00       46.425        9.349       22.127       18.858       23.031       18.968      355.611      530.409      359.776        0.199        0.062       47.357       13.026        0.076      341.675       16.552      864.542
05/16/2014  08:27:00       42.114       16.220       19.151       28.050       42.471       24.698      786.827     1803.774      609.999        0.280        0.160       45.130       22.816        0.256      341.712       16.614      864.527
05/16/2014  08:28:00       33.119       -8.755       15.284       24.650       24.617       25.606      607.613      606.007      655.662        0.164        0.093       34.256       16.246        0.225      341.768       16.710      864.507
05/16/2014  08:29:00       23.624      -28.396        5.332       28.584       26.360       29.925      817.024      694.861      895.500        0.190        0.120       36.938       22.391        0.367      341.800       16.766      864.497
05/16/2014  08:30:00        7.032       17.201       30.137       23.412       31.622       28.736      548.104      999.947      825.770        0.181        0.119       18.583       16.765        0.814      342.546       18.031      864.518
05/16/2014  08:31:00       21.857      -32.416       16.131       20.572       31.857       21.789      423.206     1014.867      474.764        0.185        0.096       39.097        7.462        0.036      341.796       16.758      864.560
05/16/2014  08:32:00       52.079       -2.049       -0.283       40.668       33.875       34.215     1653.895     1147.494     1170.655        0.334        0.199       52.119       11.010        0.045      341.868       16.880      864.586
05/16/2014  08:33:00       17.911       24.819       35.205       38.579       31.666       32.670     1488.373     1002.746     1067.322        0.287        0.178       30.607       23.524        0.591      342.297       17.610      864.576
05/16/2014  08:34:00       39.073       35.216       23.468       32.489       35.751       27.164     1055.533     1278.160      737.863        0.319        0.154       52.601       15.083        0.082      341.923       16.974      864.527
05/16/2014  08:35:00       77.638       72.944       43.693       45.587       33.151       35.150     2078.148     1098.958     1235.493        0.883        0.221      106.529       29.468        0.077      342.138       17.338      864.470
05/16/2014  08:36:00       22.535        2.037       35.988       31.427       57.429       38.064      987.658     3298.144     1448.847        0.377        0.287       22.627       34.859        2.373      342.141       17.342      864.469
05/16/2014  08:37:00       49.608      -31.579        9.026       48.373       50.202       38.165     2339.957     2520.196     1456.597        0.493        0.316       58.806       37.270        0.402      342.174       17.399      864.501
05/16/2014  08:38:00       51.959      -12.454       21.288       20.905       19.497       23.680      437.024      380.115      560.729        0.234        0.069       53.431       15.755        0.087      342.315       17.640      864.522
05/16/2014  08:39:00       19.664       -5.025       24.173       19.674       23.195       15.707      387.080      537.998      246.721        0.108        0.059       20.296       14.091        0.482      342.537       18.015      864.523
05/16/2014  08:40:00       23.994       13.455       30.622       21.169       20.305       16.049      448.135      412.278      257.557        0.141        0.056       27.509        9.957        0.131      342.500       17.953      864.519
05/16/2014  08:41:00       12.053      -20.440       17.425       31.329       26.123       27.630      981.499      682.420      763.398        0.165        0.121       23.729       15.063        0.403      342.671       18.244      864.515
05/16/2014  08:42:00       13.943       24.573       25.695       22.913       20.172       18.516      525.021      406.926      342.829        0.137        0.064       28.253       13.993        0.245      342.745       18.371      864.516
05/16/2014  08:43:00       25.807        8.664        5.314       47.248       25.409       28.597     2232.414      645.633      817.811        0.223        0.185       27.222       17.202        0.399      342.453       17.874      864.505
05/16/2014  08:44:00       26.421        9.204       40.808       33.480       26.179       30.354     1120.916      685.319      921.361        0.259        0.136       27.978       20.501        0.537      342.693       18.281      864.456
05/16/2014  08:45:00       65.609        2.821       31.498       47.940       34.870       30.400     2298.258     1215.928      924.183        0.487        0.222       65.670       28.834        0.193      341.992       17.091      864.390
05/16/2014  08:46:00       46.627       79.077       96.154       59.525       60.742       35.741     3543.224     3689.567     1277.390        1.309        0.426       91.800       25.702        0.078      342.589       18.104      864.343
05/16/2014  08:47:00       12.711       12.202       46.834       34.645       46.138       31.133     1200.283     2128.727      969.280        0.340        0.215       17.619       25.966        2.172      342.752       18.382      864.365
05/16/2014  08:48:00       -0.653      -27.028        6.879       21.387       49.669       26.596      457.416     2467.048      707.356        0.220        0.182       27.036       29.639        1.202      342.563       18.060      864.411
05/16/2014  08:49:00       -8.915      -33.033       12.708       36.701       35.069       24.608     1346.992     1229.824      605.577        0.226        0.159       34.215       17.024        0.248      343.027       18.852      864.445
05/16/2014  08:50:00        0.952       -5.075       41.875       22.571       24.510       23.454      509.456      600.740      550.068        0.172        0.083        5.164       20.085       15.129      343.660       19.930      864.469
05/16/2014  08:51:00      -36.454      -10.768       14.994       20.906       35.466       20.756      437.071     1257.808      430.808        0.190        0.106       38.011       19.090        0.252      342.935       18.694      864.471
05/16/2014  08:52:00        3.253       21.760       31.103       46.803       29.717       25.783     2190.486      883.121      664.757        0.259        0.187       22.002       16.041        0.532      343.027       18.851      864.452
05/16/2014  08:53:00       34.106      -33.152       33.782       43.598       45.850       33.348     1900.809     2102.238     1112.119        0.426        0.256       47.563       25.763        0.293      342.527       17.999      864.423
05/16/2014  08:54:00       94.154       98.168       50.819       69.161       47.949       37.953     4783.189     2299.083     1440.432        1.480        0.426      136.022       20.065        0.022      342.823       18.502      864.392
05/16/2014  08:55:00       99.915       71.726       22.632       29.779       30.064       30.182      886.766      903.821      910.946        0.917        0.135      122.995       17.974        0.021      342.605       18.130      864.396
05/16/2014  08:56:00       23.765       69.060        4.132       36.744       29.353       27.509     1350.090      861.570      756.751        0.416        0.148       73.034       25.683        0.124      342.997       18.800      864.401
05/16/2014  08:57:00        0.053        4.580        5.311       23.187       20.829       19.880      537.615      433.841      395.197        0.071        0.068        4.580       12.077        6.954      343.392       19.471      864.415
05/16/2014  08:58:00      -21.822        3.667       27.375       15.805       10.693        7.212      249.800      114.332       52.014        0.083        0.021       22.128        5.243        0.056      343.312       19.336      864.431
05/16/2014  08:59:00      -11.289       24.878       23.933       19.428       19.499       18.002      377.456      380.229      324.055        0.120        0.054       27.319        7.447        0.074      343.106       18.984      864.451
05/16/2014  09:00:00       36.427      -12.283       12.568       46.622       45.119       42.238     2173.573     2035.721     1784.040        0.381        0.300       38.442       39.392        1.050      342.731       18.347      864.470
05/16/2014  09:01:00       44.843       -5.182       24.128       34.459       24.947       24.347     1187.397      622.345      592.766        0.251        0.120       45.142       19.266        0.182      342.693       18.281      864.481
05/16/2014  09:02:00       57.485        7.068       28.304       41.140       29.826       34.491     1692.496      889.569     1189.616        0.396        0.189       57.918       17.282        0.089      342.404       17.791      864.477
05/16/2014  09:03:00       22.026        1.542       18.543       26.203       12.444       23.536      686.590      154.860      553.944        0.111        0.070       22.079       16.679        0.571      343.005       18.813      864.457
05/16/2014  09:04:00        8.921       12.388       21.288       16.713       24.660       14.684      279.309      608.132      215.612        0.089        0.055       15.266       10.841        0.504      343.077       18.937      864.418
05/16/2014  09:05:00       14.445      -18.056       22.380       28.075       33.351       21.616      788.195     1112.278      467.265        0.170        0.118       23.123       17.089        0.546      343.152       19.063      864.381
05/16/2014  09:06:00       21.495       -0.328       31.882       20.744       48.615       26.458      430.302     2363.456      700.046        0.249        0.175       21.498       26.544        1.525      343.215       19.170      864.361
05/16/2014  09:07:00       32.621      -17.303       27.549       24.710       26.355       25.873      610.599      694.575      669.430        0.205        0.099       36.926       18.465        0.250      343.098       18.971      864.362
05/16/2014  09:08:00       42.870       14.375       26.263       25.408       28.686       21.866      645.577      822.879      478.119        0.234        0.097       45.216       13.764        0.093      342.904       18.640      864.365
05/16/2014  09:09:00       48.885      -24.069       22.929       29.293       33.905       26.245      858.088     1149.535      688.825        0.310        0.135       54.489       14.616        0.072      342.970       18.754      864.362
05/16/2014  09:10:00       19.384       10.500       37.142       29.679       42.101       31.060      880.852     1772.481      964.741        0.274        0.181       22.045       27.953        1.608      343.144       19.049      864.362
05/16/2014  09:11:00       45.471       37.618       47.590       50.540       36.967       30.623     2554.341     1366.553      937.751        0.530        0.243       59.014       23.914        0.164      343.447       19.566      864.341
05/16/2014  09:12:00       61.835       47.956       27.719       39.890       40.842       32.563     1591.201     1668.067     1060.326        0.560        0.216       78.252       23.426        0.090      343.443       19.559      864.323
05/16/2014  09:13:00      103.568       55.278       10.448       39.234       31.788       29.968     1539.326     1010.483      898.058        0.867        0.172      117.397       17.553        0.022      343.396       19.478      864.298
05/16/2014  09:14:00       88.150       36.375       15.729       76.832       40.536       39.794     5903.167     1643.133     1583.547        0.923        0.456       95.361       30.971        0.105      343.725       20.040      864.289
05/16/2014  09:15:00       86.175       56.875       15.919       37.763       30.612       31.794     1426.023      937.074     1010.880        0.714        0.169      103.252       14.187        0.019      343.260       19.247      864.291
05/16/2014  09:16:00       45.505       35.018       -0.402       41.644       25.229       24.489     1734.203      636.527      599.712        0.313        0.149       57.419       20.707        0.130      343.666       19.939      864.286
05/16/2014  09:17:00       83.996       44.686       25.054       37.461       33.059       35.288     1403.319     1092.929     1245.218        0.671        0.187       95.143       17.053        0.032      343.319       19.348      864.256
05/16/2014  09:18:00       78.618       66.848       21.554       58.517       40.088       45.424     3424.197     1607.062     2063.353        0.910        0.355      103.197       28.112        0.074      343.349       19.399      864.207
05/16/2014  09:19:00       89.910       54.364       16.891       41.501       35.483       30.502     1722.368     1259.017      930.366        0.762        0.196      105.068       19.455        0.034      343.623       19.866      864.169
05/16/2014  09:20:00       31.294       44.255       11.990       29.233       34.661       24.197      854.543     1201.417      585.491        0.286        0.132       54.202       17.810        0.108      343.842       20.238      864.177
05/16/2014  09:21:00       19.862       31.270       13.002       25.848       29.014       26.013      668.120      841.811      676.688        0.186        0.109       37.045       19.694        0.283      344.077       20.640      864.192
05/16/2014  09:22:00        0.285       17.602       19.328       17.201       25.857       19.811      295.883      668.579      392.488        0.102        0.068       17.605       14.957        0.722      344.714       21.728      864.209
05/16/2014  09:23:00       -6.533        1.708       23.510       15.505       17.635       17.725      240.397      310.991      314.193        0.073        0.043        6.753       14.607        4.679      344.381       21.159      864.213
05/16/2014  09:24:00       -3.349        3.216       25.317       18.770       14.633       20.938      352.302      214.125      438.398        0.083        0.050        4.643       10.829        5.440      344.561       21.468      864.211
05/16/2014  09:25:00        6.158        8.702       28.085       22.984       23.633       16.264      528.258      558.521      264.523        0.113        0.068       10.660        9.723        0.832      344.500       21.365      864.195
05/16/2014  09:26:00       13.849       -6.487       19.778       20.737       23.938       22.373      430.030      573.019      500.540        0.106        0.075       15.293        8.893        0.338      344.075       20.636      864.196
05/16/2014  09:27:00       30.345      -10.373       20.497       30.566       32.907       34.098      934.269     1082.883     1162.703        0.231        0.159       32.069       31.656        0.974      343.776       20.128      864.202
05/16/2014  09:28:00       -6.405       15.484       45.276       24.510       22.338       22.577      600.722      498.970      509.706        0.197        0.080       16.757       16.869        1.013      344.451       21.280      864.224
05/16/2014  09:29:00      -14.224        3.029       30.846       19.608       14.790       15.311      384.489      218.746      234.437        0.100        0.042       14.543       10.091        0.481      344.439       21.257      864.240
05/16/2014  09:30:00       35.634       -1.041       16.927       33.633       17.924       25.350     1131.193      321.278      642.638        0.183        0.105       35.649       17.716        0.247      344.250       20.938      864.245
05/16/2014  09:31:00       87.031       44.014       10.429       49.904       37.104       34.896     2490.366     1376.676     1217.715        0.735        0.254       97.528       18.372        0.035      343.863       20.275      864.238
05/16/2014  09:32:00       76.708       59.315       12.972       41.092       24.686       26.580     1688.522      609.374      706.519        0.629        0.150       96.966       25.194        0.068      343.572       19.777      864.215
05/16/2014  09:33:00       17.592       -2.722       11.532       21.045       13.257       13.776      442.896      175.744      189.766        0.063        0.040       17.801       11.347        0.406      344.323       21.060      864.197
05/16/2014  09:34:00      -44.059      -12.125        5.973       21.818       23.047       13.220      476.010      531.184      174.765        0.165        0.059       45.697       12.173        0.071      344.136       20.741      864.191
05/16/2014  09:35:00      -24.543      -19.769       -3.379       28.373       12.057       10.027      805.010      145.371      100.531        0.103        0.053       31.515        6.760        0.046      344.105       20.688      864.190
05/16/2014  09:36:00        1.294       12.101       36.843       13.911       26.426       13.854      193.529      698.326      191.925        0.129        0.054       12.170       13.306        1.196      344.904       22.056      864.170
05/16/2014  09:37:00       34.815       -5.506       32.687       33.029       30.953       26.157     1090.883      958.061      684.203        0.252        0.137       35.248       25.423        0.520      344.155       20.774      864.179
05/16/2014  09:38:00        6.694      -21.589        9.141       12.957       19.415       24.754      167.873      376.932      612.781        0.088        0.058       22.603       14.652        0.420      344.560       21.465      864.184
05/16/2014  09:39:00        5.916       16.202       38.939       23.809       24.382       16.165      566.875      594.463      261.308        0.162        0.071       17.248       14.696        0.726      345.115       22.416      864.181
05/16/2014  09:40:00       12.640       27.450       11.288       17.923       28.476       23.172      321.222      810.890      536.954        0.135        0.083       30.220       12.028        0.158      344.320       21.055      864.151
05/16/2014  09:41:00       57.879       -2.388       19.568       33.740       17.427       22.665     1138.400      303.716      513.699        0.285        0.098       57.928        7.740        0.018      344.205       20.858      864.114
05/16/2014  09:42:00       19.478       60.352        6.464       32.653       38.031       32.125     1066.242     1446.332     1032.028        0.380        0.177       63.417       22.842        0.130      344.890       22.032      864.071
05/16/2014  09:43:00      -10.118      136.376       -5.119       27.711       60.549       30.599      767.903     3666.161      936.294        1.205        0.269      136.750       30.890        0.051      344.860       21.980      864.024
05/16/2014  09:44:00      -24.972       49.949       17.612       19.255       47.732       30.846      370.747     2278.340      951.493        0.351        0.180       55.843       31.757        0.323      345.215       22.587      864.010
05/16/2014  09:45:00       25.978       69.732       21.261       59.561       66.022       39.872     3547.534     4358.890     1589.800        0.774        0.475       74.414       38.192        0.263      345.206       22.570      864.004
05/16/2014  09:46:00       35.270       92.830       -1.629       45.901       67.026       31.591     2106.890     4492.470      997.984        0.873        0.380       99.304       32.651        0.108      345.200       22.563      864.008
05/16/2014  09:47:00       53.336       83.771        1.021       67.829       55.218       37.230     4600.780     3049.050     1386.056        0.945        0.452       99.309       27.368        0.076      345.186       22.537      864.017
05/16/2014  09:48:00      125.287       98.161        5.612       65.150       45.068       42.829     4244.541     2031.131     1834.347        1.674        0.406      159.161       30.113        0.036      344.784       21.849      864.037
05/16/2014  09:49:00       35.088       91.062       -7.470       33.479       43.966       34.663     1120.868     1933.024     1201.549        0.692        0.213       97.588       30.694        0.099      345.162       22.498      864.048
05/16/2014  09:50:00       36.260       41.165       16.581       35.620       28.730       25.215     1268.766      825.385      635.784        0.301        0.136       54.857       21.263        0.150      345.162       22.494      864.015
05/16/2014  09:51:00       71.001       55.394       25.115       59.339       41.902       35.109     3521.082     1755.766     1232.653        0.762        0.325       90.053       20.521        0.052      345.199       22.559      863.998
05/16/2014  09:52:00      151.560      100.056       18.065       56.042       60.885       42.746     3140.651     3707.004     1827.258        2.099        0.434      181.609       28.069        0.024      344.895       22.038      863.990
05/16/2014  09:53:00      148.238       89.871       20.205       67.596       38.000       39.910     4569.182     1444.022     1592.774        1.903        0.380      173.353       21.925        0.016      344.674       21.660      863.983
05/16/2014  09:54:00       31.843       18.879       28.638       43.723       37.621       39.080     1911.728     1415.326     1527.280        0.352        0.243       37.019       17.146        0.215      345.033       22.276      863.968
05/16/2014  09:55:00      -23.809      -31.029        4.020       18.680       27.576       23.209      348.945      760.462      538.678        0.160        0.082       39.111       14.504        0.138      345.119       22.422      863.967
05/16/2014  09:56:00      -24.349      -61.992       12.624       31.208       49.792       22.696      973.964     2479.289      515.125        0.428        0.198       66.603       25.561        0.147      345.241       22.631      863.959
05/16/2014  09:57:00       41.028     -109.882       12.284       53.694       88.080       52.362     2883.000     7758.005     2741.753        1.364        0.669      117.292       50.844        0.188      345.403       22.908      863.944
05/16/2014  09:58:00       83.745      -50.401       14.404       75.094       86.980       55.209     5639.084     7565.569     3048.081        1.300        0.813       97.742       69.660        0.508      345.070       22.338      863.974
05/16/2014  09:59:00       18.355       45.834       42.815       30.671       36.509       31.449      940.726     1332.895      989.039        0.377        0.163       49.373       21.733        0.194      344.800       21.877      863.983
05/16/2014  10:00:00       14.780        5.377       34.756       49.845       49.728       54.596     2484.512     2472.895     2980.736        0.470        0.397       15.727       36.945        5.518      345.297       22.727      863.975
05/16/2014  10:01:00       49.262        3.069       55.664       46.142       63.884       42.673     2129.084     4081.164     1821.019        0.678        0.402       49.358       43.876        0.790      344.736       21.767      863.978
05/16/2014  10:02:00       40.855      -19.464       19.554       44.542       47.822       42.338     1984.014     2286.960     1792.493        0.425        0.303       45.254       38.103        0.709      344.955       22.141      863.977
05/16/2014  10:03:00       12.544      -28.149       15.016       33.787       50.926       31.718     1141.536     2593.415     1006.001        0.296        0.237       30.818       24.027        0.608      345.373       22.858      863.978
05/16/2014  10:04:00       13.204        9.236       19.697       20.339       38.241       32.554      413.695     1462.341     1059.780        0.179        0.147       16.113       19.145        1.412      345.383       22.874      864.007
05/16/2014  10:05:00       45.937       76.354      -24.564       42.083       38.686       31.191     1770.947     1496.584      972.908        0.639        0.212       89.107       15.574        0.031      345.056       22.314      863.988
05/16/2014  10:06:00       35.443       -9.163       36.713       44.567       27.716       25.262     1986.244      768.201      638.189        0.304        0.170       36.608       12.979        0.126      345.371       22.856      863.977
05/16/2014  10:07:00       34.211      -23.703        6.889       30.714       42.955       27.422      943.355     1845.097      751.981        0.266        0.177       41.620       21.370        0.264      344.754       21.797      863.980
05/16/2014  10:08:00       70.311       15.306       45.559       46.750       29.820       30.048     2185.525      889.236      902.889        0.561        0.199       71.958       25.920        0.130      344.688       21.684      863.981
05/16/2014  10:09:00       79.171      -16.909       13.783       46.351       37.340       31.233     2148.443     1394.298      975.524        0.563        0.226       80.957       27.741        0.117      345.192       22.547      863.974
05/16/2014  10:10:00       39.948        5.231       35.270       35.504       45.624       40.295     1260.536     2081.547     1623.656        0.392        0.248       40.289       28.533        0.502      345.690       23.402      863.959
05/16/2014  10:11:00       -0.135      -49.432        2.332       53.708       40.700       36.651     2884.504     1656.516     1343.321        0.417        0.294       49.433        8.636        0.031      345.476       23.034      863.943
05/16/2014  10:12:00      -34.979       45.859        2.332       31.097       39.032       31.923      967.033     1523.497     1019.058        0.342        0.175       57.677       20.454        0.126      345.897       23.755      863.938
05/16/2014  10:13:00     -103.350     -126.729       -2.425       47.511       70.039       33.217     2257.341     4905.471     1103.394        1.751        0.413      163.529       26.902        0.027      345.553       23.164      863.955
05/16/2014  10:14:00      -37.434     -217.663        5.025       28.266       42.510       22.908      798.970     1807.085      524.778        2.597        0.157      220.859       10.035        0.002      345.397       22.895      863.940
05/16/2014  10:15:00      -29.344     -109.026        6.822       53.132       43.762       31.393     2822.963     1915.101      985.518        0.926        0.286      112.906       24.426        0.047      345.616       23.275      863.917
05/16/2014  10:16:00     -120.651      -28.851       -7.323       48.158       31.889       21.854     2319.180     1016.911      477.595        0.963        0.191      124.053       18.067        0.021      345.569       23.194      863.898
05/16/2014  10:17:00     -109.745       -4.733       -3.308       29.246       25.000       17.442      855.317      624.978      304.210        0.693        0.089      109.847       13.154        0.014      345.516       23.101      863.896
05/16/2014  10:18:00     -163.694        8.785      -18.564       78.731       49.356       27.105     6198.608     2436.009      734.683        1.829        0.468      163.930       38.453        0.055      345.642       23.317      863.888
05/16/2014  10:19:00     -157.427       54.565        0.320       75.078       85.552       50.763     5636.636     7319.181     2576.881        2.164        0.777      166.615       45.504        0.075      345.932       23.814      863.890
05/16/2014  10:20:00     -133.767      -38.618        7.363      180.956       91.076       59.197    32744.976     8294.925     3504.284        3.198        2.227      139.229       73.660        0.280      346.110       24.122      863.864
05/16/2014  10:21:00     -387.732      -12.613      -36.897      138.375      103.686       71.639    19147.609    10750.816     5132.133        9.344        1.752      387.937       69.737        0.032      345.758       23.513      863.867
05/16/2014  10:22:00     -277.478      -65.916      -12.925      231.401       91.244       59.032    53546.544     8325.431     3484.789        7.342        3.268      285.200       81.067        0.081      345.852       23.678      863.882
05/16/2014  10:23:00     -279.594       -9.956      -21.301      129.649       70.881       57.514    16808.823     5024.161     3307.865        5.193        1.257      279.771       68.097        0.059      345.864       23.696      863.863
05/16/2014  10:24:00     -283.536        4.437      -26.679      114.962       93.117       47.441    13216.300     8670.734     2250.634        5.263        1.207      283.571       52.618        0.034      345.864       23.698      863.833
05/16/2014  10:25:00      -77.772       61.475        1.419       72.240       59.688       44.330     5218.659     3562.607     1965.180        1.029        0.537       99.135       57.133        0.332      346.283       24.419      863.835
05/16/2014  10:26:00      -44.726      197.749      -10.874       59.021       60.848       44.250     3483.465     3702.424     1958.051        2.518        0.457      202.743       32.179        0.025      346.194       24.264      863.801
05/16/2014  10:27:00      -77.560      156.508       -5.876       51.151       86.939       44.726     2616.473     7558.476     2000.430        2.136        0.609      174.672       46.719        0.072      346.222       24.312      863.795
05/16/2014  10:28:00      -12.524      -58.615       -4.646       62.324       59.230       36.772     3884.287     3508.183     1352.147        0.618        0.437       59.938       34.597        0.333      346.312       24.470      863.816
05/16/2014  10:29:00     -133.845     -156.728       13.429      145.422      112.961       60.165    21147.511    12760.097     3619.844        4.009        1.876      206.102       61.254        0.088      346.094       24.092      863.853
05/16/2014  10:30:00     -273.151     -202.240       29.625      176.385      149.225       87.768    31111.517    22268.070     7703.176        8.872        3.054      339.871       83.682        0.061      345.829       23.636      863.865
05/16/2014  10:31:00     -196.927      151.530      -29.328      143.824       88.718       56.391    20685.419     7870.937     3179.913        4.716        1.587      248.479       58.527        0.055      345.826       23.630      863.904
05/16/2014  10:32:00     -190.552      118.134      -35.395      123.488       73.118       48.320    15249.372     5346.244     2334.833        3.722        1.147      224.200       62.854        0.079      345.744       23.491      863.864
05/16/2014  10:33:00     -152.938      178.917      -28.366       88.636       77.492       51.479     7856.283     6005.017     2650.091        3.636        0.826      235.375       52.960        0.051      345.878       23.721      863.794
05/16/2014  10:34:00      -91.919       68.178       -9.440       47.274       28.513       29.340     2234.822      812.964      860.816        0.855        0.195      114.444       13.408        0.014      346.011       23.953      863.776
05/16/2014  10:35:00     -177.034       50.800      -24.064       75.056       46.296       33.811     5633.335     2143.361     1143.171        2.171        0.446      184.179       32.207        0.031      345.853       23.679      863.774
05/16/2014  10:36:00     -221.720       80.287      -25.133       65.577       51.205       40.343     4300.301     2621.953     1627.565        3.239        0.427      235.809       28.595        0.015      345.807       23.598      863.761
05/16/2014  10:37:00      -64.454       28.013       -8.772       78.256       29.926       33.538     6123.956      895.549     1124.808        0.658        0.407       70.279       33.035        0.221      346.033       23.991      863.746
05/16/2014  10:38:00       71.798      111.147      -11.441       36.739       36.830       41.202     1349.761     1356.414     1697.580        1.102        0.220      132.320       21.946        0.028      346.052       24.023      863.729
05/16/2014  10:39:00       27.510       -2.175        3.231       24.491       60.531       29.108      599.830     3664.056      847.251        0.294        0.256       27.596       14.116        0.262      346.317       24.478      863.698
05/16/2014  10:40:00       -3.631       25.635       42.208       19.603       27.762       23.506      384.275      770.751      552.516        0.208        0.085       25.891       12.882        0.248      346.978       25.615      863.692
05/16/2014  10:41:00        3.682     -106.052       22.658       63.061      132.268       61.311     3976.723    17494.734     3759.045        1.850        1.262      106.116       82.818        0.609      346.421       24.655      863.688
05/16/2014  10:42:00       42.609     -112.644       -3.824       50.739       77.834       43.387     2574.463     6058.122     1882.453        1.251        0.526      120.433       40.990        0.116      345.975       23.888      863.691
05/16/2014  10:43:00       29.439      -67.911       42.560       37.960      130.437       57.314     1440.927    17013.694     3284.857        1.451        1.087       74.017       76.124        1.058      346.463       24.730      863.669
05/16/2014  10:44:00       24.856       54.126       84.055       42.338       57.947       54.793     1792.472     3357.875     3002.219        0.938        0.408       59.560       41.511        0.486      346.445       24.697      863.646
05/16/2014  10:45:00       67.250      -53.720       34.964       72.559       91.270       65.010     5264.847     8330.180     4226.347        1.322        0.891       86.072       67.665        0.618      346.526       24.836      863.612
05/16/2014  10:46:00       37.487       36.424       49.263       46.122       74.688       55.527     2127.256     5578.280     3083.201        0.797        0.539       52.268       43.805        0.702      346.368       24.567      863.619
05/16/2014  10:47:00       25.544      -30.733       53.917       32.007       91.234       40.475     1024.446     8323.592     1638.232        0.774        0.549       39.963       43.150        1.166      346.445       24.697      863.584
05/16/2014  10:48:00       30.046       46.098      120.754       74.884      120.650       82.911     5607.585    14556.405     6874.177        2.232        1.352       55.025       88.536        2.589      346.668       25.079      863.520
05/16/2014  10:49:00       85.956        4.938       87.432       97.470      125.903       83.299     9500.431    15851.497     6938.647        2.367        1.615       86.098       98.848        1.318      346.291       24.431      863.499
05/16/2014  10:50:00       81.457      -79.963       38.973       78.530      142.904       83.423     6166.937    20421.606     6959.414        2.404        1.677      114.146      103.664        0.825      346.683       25.105      863.451
05/16/2014  10:51:00       16.215        8.656       83.254       67.358      101.639       68.630     4537.132    10330.513     4710.018        1.342        0.979       18.380       65.294       12.619      346.911       25.499      863.466
05/16/2014  10:52:00      105.074     -100.121        3.080       62.497       64.313       38.632     3905.814     4136.201     1492.411        1.530        0.477      145.137       35.679        0.060      346.412       24.640      863.499
05/16/2014  10:53:00       -5.101      -90.333        6.369       85.533       73.023       31.968     7315.810     5332.378     1021.949        1.095        0.684       90.477       34.826        0.148      346.564       24.902      863.539
05/16/2014  10:54:00      -61.430      -60.747       25.504       61.177       63.585       33.204     3742.578     4043.026     1102.520        0.850        0.444       86.393       36.851        0.182      346.747       25.219      863.571
05/16/2014  10:55:00     -150.091      -74.297       -0.890      101.053       94.993       48.363    10211.756     9023.635     2338.961        2.481        1.079      167.474       44.857        0.072      346.395       24.608      863.578
05/16/2014  10:56:00     -107.552     -133.570       -2.432       94.008       84.810       40.507     8837.497     7192.796     1640.851        2.354        0.884      171.489       45.793        0.071      346.154       24.194      863.572
05/16/2014  10:57:00      -44.028      -28.225       11.718       86.702       69.724       43.925     7517.264     4861.379     1929.374        0.859        0.715       52.298       53.273        1.038      346.571       24.915      863.542
05/16/2014  10:58:00      -86.642      110.811       70.517      110.143       90.995       95.124    12131.568     8280.058     9048.635        2.710        1.473      140.663       83.578        0.353      346.845       25.384      863.384
05/16/2014  10:59:00      -62.995       74.012        4.904      104.096       75.656       45.461    10835.909     5723.756     2066.696        1.404        0.931       97.191       59.921        0.380      346.868       25.425      863.360
05/16/2014  11:00:00      -15.721      147.745      -17.883      120.870      140.852       59.294    14609.643    19839.216     3515.816        3.017        1.898      148.579       65.771        0.196      346.700       25.136      863.277
05/16/2014  11:01:00     -158.586      333.084      -30.504      127.384      136.934       84.439    16226.557    18750.924     7130.013        8.956        2.105      368.910       66.306        0.032      346.625       25.004      863.225
05/16/2014  11:02:00      -53.715      104.674      -22.062      122.291      123.532       58.229    14955.124    15260.091     3390.621        2.396        1.680      117.652       60.630        0.266      346.704       25.141      863.119
05/16/2014  11:03:00      -11.492      147.499        6.061      138.702      183.123       85.995    19238.125    33533.969     7395.103        4.103        3.008      147.946       79.298        0.287      346.795       25.296      862.953
05/16/2014  11:04:00     -171.782     -192.656       10.413      182.205      106.570       76.026    33198.586    11357.128     5779.956        5.852        2.517      258.119       67.281        0.068      346.756       25.230      862.987
05/16/2014  11:05:00     -175.885     -147.609      -19.569       99.307       60.574       40.426     9861.856     3669.158     1634.300        3.413        0.758      229.617       45.102        0.039      346.702       25.138      863.171
05/16/2014  11:06:00      -73.608      -68.856       10.248       70.098       51.898       36.661     4913.759     2693.363     1344.030        0.961        0.448      100.794       37.917        0.142      346.997       25.647      863.234
05/16/2014  11:07:00      -45.279       -7.961       11.976       55.094       55.758       52.920     3035.379     3108.916     2800.578        0.560        0.447       45.973       25.006        0.296      347.065       25.765      863.240
05/16/2014  11:08:00      -31.675      -95.582       -2.851       90.394       52.712       35.710     8171.093     2778.558     1275.203        1.118        0.611      100.694       30.712        0.093      346.838       25.374      863.264
05/16/2014  11:09:00     -118.190     -132.106       -9.185      103.617       93.829       56.427    10736.404     8803.852     3184.026        2.711        1.136      177.259       39.748        0.050      346.696       25.127      863.301
05/16/2014  11:10:00     -201.486     -176.992       -7.016       81.489       84.221       49.320     6640.450     7093.196     2432.430        4.407        0.808      268.185       23.269        0.008      346.507       24.799      863.308
05/16/2014  11:11:00      -45.673      -60.486       -6.889       56.428       56.749       29.650     3184.099     3220.439      879.136        0.654        0.364       75.793        8.275        0.012      346.643       25.036      863.318
05/16/2014  11:12:00      -53.808     -110.788       -3.355       76.234      102.113       40.327     5811.676    10426.990     1626.296        1.652        0.893      123.163       44.459        0.130      346.669       25.081      863.309
05/16/2014  11:13:00     -168.407     -124.128      -20.136      115.532       89.073       45.608    13347.613     7934.048     2080.126        3.376        1.168      209.210       45.489        0.047      346.297       24.439      863.251
05/16/2014  11:14:00     -128.264     -116.511      -12.961      110.926      109.659       56.577    12304.578    12025.174     3200.972        2.886        1.377      173.282       45.895        0.070      346.304       24.452      863.134
05/16/2014  11:15:00      -20.264        6.618       22.258       44.896       55.593       44.267     2015.636     3090.559     1959.540        0.401        0.353       21.317       40.902        3.682      347.028       25.701      863.115
05/16/2014  11:16:00       24.426      -59.305       23.411      103.667       90.350       69.478    10746.853     8163.137     4827.170        1.419        1.187       64.139       48.571        0.573      346.913       25.501      863.130
05/16/2014  11:17:00      -49.667       -8.723       32.977       59.872       71.644       44.946     3584.625     5132.897     2020.166        0.718        0.537       50.427       23.441        0.216      346.941       25.552      863.143
05/16/2014  11:18:00      -49.233       14.811       19.091       39.378       37.710       48.065     1550.654     1422.028     2310.262        0.414        0.264       51.413       33.662        0.429      346.914       25.506      863.132
05/16/2014  11:19:00      -29.726       79.065      124.443       30.706       59.875       42.790      942.889     3585.072     1831.008        1.449        0.318       84.469       24.182        0.082      346.949       25.563      863.092
05/16/2014  11:20:00      150.277     -182.525      -35.765       78.103      102.134       55.843     6100.104    10431.270     3118.387        3.841        0.982      236.428       65.841        0.078      346.534       24.848      863.085
05/16/2014  11:21:00       27.172      -36.634       59.050       50.880       81.211       47.536     2588.742     6595.218     2259.650        0.850        0.572       45.611       48.904        1.150      347.073       25.777      863.100
05/16/2014  11:22:00      -18.311      -39.093        9.426       68.493       48.833       44.453     4691.328     2384.637     1976.029        0.550        0.453       43.169       39.192        0.824      346.877       25.441      863.107
05/16/2014  11:23:00       11.580      -95.317       19.324       41.006       90.086       38.009     1681.475     8115.570     1444.704        1.042        0.562       96.018       20.503        0.046      346.890       25.462      863.110
05/16/2014  11:24:00       11.365      -31.084       25.866       52.259       40.692       50.493     2730.994     1655.845     2549.577        0.435        0.347       33.097       39.067        1.393      347.202       26.001      863.104
05/16/2014  11:25:00      -13.827      -59.088       14.394       65.275       77.697       40.399     4260.762     6036.799     1632.117        0.791        0.596       60.684       37.316        0.378      347.106       25.833      863.091
05/16/2014  11:26:00      -89.336      -82.225        3.788       72.266       60.430       33.601     5222.372     3651.785     1129.032        1.238        0.500      121.416       27.772        0.052      346.671       25.086      863.092
05/16/2014  11:27:00     -144.306     -129.271       -0.499       88.853       76.936       45.426     7894.918     5919.108     2063.563        2.670        0.794      193.740       37.098        0.037      346.541       24.860      863.086
05/16/2014  11:28:00      -73.720      -72.369       10.271       86.858       61.517       44.696     7544.307     3784.386     1997.704        1.205        0.666      103.305       34.963        0.115      346.668       25.081      863.084
05/16/2014  11:29:00      -28.699      -73.398      -12.796       65.871       53.929       33.394     4339.031     2908.329     1115.174        0.737        0.418       78.809       27.972        0.126      346.837       25.372      863.079
05/16/2014  11:30:00      -51.772       -9.183        3.981       33.636       45.338       27.681     1131.376     2055.540      766.247        0.337        0.198       52.580       25.658        0.238      346.923       25.519      863.070
05/16/2014  11:31:00       18.044      -88.648      -14.248       90.985       82.416       34.543     8278.306     6792.455     1193.199        1.232        0.813       90.466       40.280        0.198      346.713       25.158      863.082
05/16/2014  11:32:00       37.137     -129.662       -2.481       57.493      111.492       52.140     3305.439    12430.564     2718.613        1.832        0.923      134.875       57.060        0.179      346.707       25.147      863.070
05/16/2014  11:33:00      -37.709      -95.582      -22.985       58.872       67.999       37.462     3465.862     4623.924     1403.401        1.029        0.475      102.751       23.388        0.052      346.823       25.348      863.050
05/16/2014  11:34:00      -53.355      -94.172        7.880       42.677       64.039       37.378     1821.303     4101.039     1397.139        0.955        0.366      108.236       16.314        0.023      346.685       25.111      863.032
05/16/2014  11:35:00        1.198      -70.515        5.249       65.866       58.828       50.123     4338.378     3460.718     2512.310        0.765        0.516       70.525       39.018        0.306      347.052       25.741      863.017
05/16/2014  11:36:00       51.745     -115.104        4.364       87.293       70.433       54.137     7620.153     4960.808     2930.769        1.573        0.776      126.200       38.719        0.094      346.849       25.392      862.991
05/16/2014  11:37:00      -31.259      -93.338        0.345       50.715       54.678       45.357     2572.042     2989.633     2057.234        0.865        0.381       98.434       17.253        0.031      346.896       25.473      862.973
05/16/2014  11:38:00       -1.182        4.299       63.429       31.641       73.967       27.177     1001.146     5471.173      738.605        0.563        0.361        4.459       30.998       48.330      347.231       26.051      862.966
05/16/2014  11:39:00      -16.227      -36.826       36.255       34.783       69.979       41.137     1209.875     4897.119     1692.264        0.537        0.390       40.242       46.880        1.357      346.961       25.585      862.949
05/16/2014  11:40:00       56.700     -148.611      -11.323       64.243       78.661       43.464     4127.210     6187.503     1889.113        1.881        0.610      159.060       34.941        0.048      346.716       25.162      862.937
05/16/2014  11:41:00       75.007     -103.704       14.141       71.243      107.405       61.437     5075.502    11535.812     3774.479        1.848        1.019      127.987       61.377        0.230      347.038       25.717      862.942
05/16/2014  11:42:00       -8.264      -53.545       -1.666       34.175       46.804       26.962     1167.913     2190.632      726.937        0.351        0.204       54.179       23.464        0.188      346.907       25.492      862.962
05/16/2014  11:43:00     -112.345      -73.029      -14.763       93.752       64.985       42.840     8789.495     4223.031     1835.277        1.651        0.742      133.995       42.096        0.099      346.692       25.121      862.966
05/16/2014  11:44:00      -98.347      -34.316       12.878       65.332       58.885       35.933     4268.327     3467.416     1291.169        1.002        0.451      104.162       20.272        0.038      346.737       25.200      862.991
05/16/2014  11:45:00     -132.588     -138.972       -2.856       78.339       51.692       40.948     6136.946     2672.050     1676.758        2.369        0.524      192.075       46.332        0.058      346.580       24.928      862.977
05/16/2014  11:46:00      -43.870      -66.448       13.884      116.691       86.709       50.355    13616.701     7518.367     2535.607        1.510        1.184       79.624       61.618        0.599      346.880       25.444      862.928
05/16/2014  11:47:00       76.246      -82.330       23.528       81.786      104.707       55.044     6688.952    10963.483     3029.863        1.691        1.034      112.213       62.805        0.313      346.774       25.264      862.882
05/16/2014  11:48:00       88.784     -126.980      -21.675       93.251       96.180       78.118     8695.676     9250.536     6102.481        2.426        1.202      154.940       52.264        0.114      346.763       25.243      862.844
05/16/2014  11:49:00      157.688     -231.110      -27.939       84.247       84.352       39.862     7097.511     7115.275     1588.998        4.743        0.790      279.781       40.473        0.021      346.414       24.639      862.853
05/16/2014  11:50:00        7.174      -26.268       33.356       57.093       77.771       51.068     3259.604     6048.288     2607.910        0.688        0.596       27.230       44.226        2.638      346.810       25.325      862.831
05/16/2014  11:51:00       49.770      -41.027       63.532      105.325      170.042       68.347    11093.399    28914.444     4671.359        2.643        2.234       64.500      106.113        2.707      346.937       25.544      862.843
05/16/2014  11:52:00      143.399     -114.172       47.624      126.301      175.341      102.839    15951.986    30744.605    10575.841        4.656        2.864      183.298      124.216        0.459      346.878       25.440      862.836
05/16/2014  11:53:00      137.257       37.770       87.007      100.991      147.386       88.939    10199.258    21722.686     7910.197        3.383        1.992      142.358      100.539        0.499      346.945       25.554      862.851
05/16/2014  11:54:00      115.354       33.518       96.527      119.425      121.199       95.139    14262.440    14689.157     9051.398        3.087        1.900      120.125       87.633        0.532      346.849       25.392      862.850
05/16/2014  11:55:00      114.694      -14.517       67.554       78.771      123.496       82.968     6204.808    15251.236     6883.716        2.313        1.417      115.609       77.062        0.444      347.073       25.777      862.846
05/16/2014  11:56:00      167.780      156.689      124.509      131.569       81.292       61.327    17310.374     6608.416     3760.961        4.794        1.384      229.568       35.661        0.024      346.776       25.264      862.841
05/16/2014  11:57:00       93.544       48.285       74.343       73.594      122.368       73.574     5416.046    14973.853     5413.075        2.120        1.290      105.271       74.398        0.499      347.096       25.816      862.851
05/16/2014  11:58:00       43.597      -22.555       49.201       49.706       93.233       45.756     2470.686     8692.429     2093.603        0.904        0.663       49.086       38.986        0.631      347.223       26.035      862.851
05/16/2014  11:59:00       63.568       12.566       -6.496       64.839       67.034       39.257     4204.121     4493.537     1541.092        0.724        0.512       64.798       32.434        0.251      347.040       25.721      862.836
05/16/2014  12:00:00      126.960       60.813       77.321       97.715       99.263       51.615     9548.227     9853.222     2664.131        2.393        1.103      140.773       49.129        0.122      347.094       25.812      862.799
05/16/2014  12:01:00      186.050      103.117       91.767      136.364       95.258       61.703    18595.263     9074.059     3807.307        4.257        1.574      212.715       33.788        0.025      347.297       26.163      862.768
05/16/2014  12:02:00      134.934       71.508       50.090      102.098      101.170       80.753    10424.050    10235.423     6521.056        2.650        1.359      152.711       47.958        0.099      347.186       25.971      862.731
05/16/2014  12:03:00      115.191       87.539       81.468      107.353       74.489       52.882    11524.693     5548.578     2796.521        2.372        0.993      144.679       50.925        0.124      347.393       26.327      862.733
05/16/2014  12:04:00      140.669       94.083       16.594       89.999       67.933       57.229     8099.884     4614.844     3275.132        2.245        0.799      169.232       25.196        0.022      347.017       25.679      862.731
05/16/2014  12:05:00       66.078       42.229       46.584       73.683       89.678       42.474     5429.132     8042.069     1804.055        1.179        0.764       78.419       30.859        0.155      347.412       26.363      862.710
05/16/2014  12:06:00       98.438      110.895       84.608       84.705       83.500       73.820     7174.990     6972.256     5449.331        2.437        0.980      148.283       51.296        0.120      347.291       26.153      862.697
05/16/2014  12:07:00      213.507      104.038       43.841      100.478       68.086       59.818    10095.873     4635.744     3578.198        3.832        0.915      237.506       43.379        0.033      347.074       25.778      862.675
05/16/2014  12:08:00       80.158      114.986       79.089       94.409       70.753       85.850     8913.046     5005.941     7370.269        2.359        1.064      140.168       79.692        0.323      347.191       25.981      862.670
05/16/2014  12:09:00       92.777       87.323       87.281      100.831       80.889       61.027    10166.845     6542.963     3724.247        2.214        1.022      127.408       59.400        0.217      347.201       25.997      862.676
05/16/2014  12:10:00      130.503       -1.613       84.541      110.724      173.820       82.846    12259.825    30213.244     6863.462        3.675        2.467      130.513      118.102        0.819      347.097       25.817      862.665
05/16/2014  12:11:00      125.438     -209.913      -31.373       52.667       75.352       33.880     2773.806     5677.958     1147.848        3.519        0.480      244.537       27.047        0.012      346.764       25.243      862.684
05/16/2014  12:12:00       61.226      -51.501        3.082       50.941       76.701       51.459     2594.981     5882.990     2648.074        0.877        0.556       80.006       57.842        0.523      347.199       25.996      862.695
05/16/2014  12:13:00       18.103      -17.056       -7.849       52.947       43.281       42.885     2803.414     1873.280     1839.141        0.360        0.326       24.872       31.015        1.555      347.215       26.023      862.691
05/16/2014  12:14:00       -7.676       53.105        7.474      139.879       45.098       67.109    19566.146     2033.836     4503.667        1.451        1.305       53.657       69.224        1.664      347.014       25.675      862.641
05/16/2014  12:15:00      127.441       74.061       74.635       91.881      144.959       98.149     8442.148    21013.125     9633.150        3.318        1.954      147.398      104.521        0.503      346.972       25.603      862.650
05/16/2014  12:16:00      114.348       38.028       94.684      122.195      106.686       74.654    14931.548    11381.931     5573.203        2.768        1.594      120.506       69.586        0.333      347.265       26.108      862.636
05/16/2014  12:17:00      130.561       55.927       28.838      123.412       68.976       56.467    15230.410     4757.731     3188.502        2.209        1.159      142.035       30.374        0.046      347.098       25.819      862.622
05/16/2014  12:18:00       26.283      -61.638       13.205       65.320       55.128       39.750     4266.704     3039.119     1580.091        0.677        0.444       67.008       30.316        0.205      347.478       26.476      862.619
05/16/2014  12:19:00      -16.617      -43.468       40.167       42.354       74.884       39.461     1793.869     5607.556     1557.188        0.637        0.448       46.536       37.813        0.660      347.761       26.964      862.611
05/16/2014  12:20:00       -4.144      -47.065        5.123       66.761       69.980       38.642     4457.030     4897.231     1493.167        0.655        0.542       47.247       22.257        0.222      347.634       26.745      862.622
05/16/2014  12:21:00       34.054      -52.891       52.614       89.867      113.542       77.792     8076.157    12891.811     6051.527        1.687        1.351       62.906       85.431        1.844      347.620       26.721      862.600
05/16/2014  12:22:00        8.568      -91.977       35.746       71.955      113.837       76.391     5177.507    12958.757     5835.639        1.689        1.199       92.375       76.039        0.678      347.621       26.722      862.559
05/16/2014  12:23:00      -60.282      -29.402      -10.019      120.751       92.975       46.622    14580.782     8644.398     2173.625        1.499        1.270       67.070       38.091        0.323      347.175       25.952      862.570
05/16/2014  12:24:00      -12.744      -31.844       -1.733       90.267       75.571       41.767     8148.153     5710.950     1744.469        0.839        0.780       34.299       37.100        1.170      347.431       26.395      862.565
05/16/2014  12:25:00       56.525      -63.313        7.992       41.966       39.102       39.937     1761.160     1528.963     1594.925        0.608        0.244       84.875       31.136        0.135      347.261       26.102      862.552
05/16/2014  12:26:00       73.889       32.683        6.201       51.055       67.246       44.626     2606.575     4522.050     1991.491        0.784        0.456       80.794       33.141        0.168      347.217       26.027      862.527
05/16/2014  12:27:00        6.102       41.354       18.058       32.572       34.485       40.577     1060.934     1189.187     1646.469        0.298        0.195       41.802       30.084        0.518      347.361       26.275      862.527
05/16/2014  12:28:00       20.298       44.592        6.336       24.601       30.419       26.798      605.185      925.293      718.107        0.234        0.112       48.995       18.561        0.144      347.256       26.095      862.513
05/16/2014  12:29:00       27.700       31.862        4.014       19.165       25.015       23.225      367.291      625.753      539.422        0.167        0.077       42.219       20.274        0.231      347.246       26.078      862.481
05/16/2014  12:30:00       12.811       13.420       17.350       38.031       27.702       27.285     1446.368      767.409      744.479        0.180        0.148       18.553       18.581        1.003      347.828       27.080      862.466
05/16/2014  12:31:00      -17.339       67.053       -2.189      123.432       45.970       35.133    15235.414     2113.261     1234.335        1.169        0.929       69.258       48.571        0.492      347.330       26.221      862.445
05/16/2014  12:32:00     -197.843      -14.886      -17.589       98.786       65.247       38.881     9758.656     4257.228     1511.755        2.760        0.776      198.402       36.344        0.034      347.356       26.262      862.424
05/16/2014  12:33:00      -72.044        1.062       -1.387       57.291       35.917       26.204     3282.262     1289.997      686.648        0.523        0.263       72.051       28.090        0.152      347.968       27.323      862.370
05/16/2014  12:34:00     -233.324      -52.803       -0.952      129.970      140.152       57.857    16892.090    19642.686     3347.388        4.855        1.994      239.224       48.105        0.040      347.734       26.915      862.344
05/16/2014  12:35:00     -234.030     -160.484       -5.190      190.419      106.577       65.245    36259.395    11358.703     4256.895        6.620        2.594      283.770       54.674        0.037      347.482       26.479      862.360
05/16/2014  12:36:00     -216.983     -161.930      -14.672      118.226       97.198       51.623    13977.399     9447.530     2664.984        4.980        1.304      270.745       51.457        0.036      347.589       26.665      862.389
05/16/2014  12:37:00     -263.460     -282.125       -4.609      149.936      119.206       78.748    22480.846    14210.151     6201.264        9.595        2.145      386.012       73.974        0.037      347.497       26.507      862.376
05/16/2014  12:38:00     -284.882      -54.035        6.707      197.791      104.839       84.225    39121.160    10991.226     7093.909        7.065        2.860      289.961       92.836        0.103      347.780       26.996      862.330
05/16/2014  12:39:00     -389.392     -245.299      -17.952      200.360      151.443       93.897    40143.945    22935.080     8816.668       14.199        3.595      460.215      102.772        0.050      347.511       26.531      862.330
05/16/2014  12:40:00     -375.204     -128.911       -3.960      235.296      150.346       87.910    55364.301    22603.786     7728.248       12.154        4.285      396.731      110.213        0.077      347.414       26.363      862.293
05/16/2014  12:41:00     -285.343      -50.154       -1.433      176.542      153.081       73.296    31167.210    23433.789     5372.246        7.194        2.999      289.717       88.867        0.094      347.431       26.391      862.183
05/16/2014  12:42:00     -448.881     -113.946      -19.097      240.910      147.255       98.007    58037.426    21683.957     9605.359       15.207        4.466      463.117      116.772        0.064      347.820       27.063      862.070
05/16/2014  12:43:00     -216.246     -140.488        5.215      168.557      131.357       71.680    28411.456    17254.552     5138.057        5.866        2.540      257.874       78.280        0.092      347.997       27.370      862.094
05/16/2014  12:44:00      -41.734     -214.532       -0.772      149.315      131.895       82.205    22295.011    17396.355     6757.653        4.710        2.322      218.554       70.091        0.103      347.848       27.112      862.143
05/16/2014  12:45:00      -85.388     -239.479        8.610      115.292      127.161       87.257    13292.325    16170.008     7613.819        5.089        1.854      254.247       51.163        0.040      347.580       26.650      862.270
05/16/2014  12:46:00       70.678     -187.781      -15.328       84.471       86.592       59.082     7135.350     7498.147     3490.684        2.930        0.906      200.641       40.169        0.040      347.676       26.816      862.287
05/16/2014  12:47:00      -70.331      -53.037       18.282       99.156       56.336       40.113     9831.965     3173.739     1609.089        1.135        0.731       88.087       47.699        0.293      348.031       27.429      862.329
05/16/2014  12:48:00      -74.593     -235.278       -3.369      111.691      100.048       55.799    12474.919    10009.571     3113.557        4.326        1.280      246.820       56.021        0.052      347.596       26.675      862.301
05/16/2014  12:49:00     -429.904     -235.087      -21.329      208.955      177.373       79.048    43662.204    31461.219     6248.635       16.094        4.069      489.983       87.783        0.032      347.611       26.703      862.233
05/16/2014  12:50:00     -114.156     -272.369        2.885      151.147      183.679       65.544    22845.526    33738.063     4295.975        7.404        3.044      295.324       72.873        0.061      347.696       26.849      862.284
05/16/2014  12:51:00     -323.426     -230.320        1.981      208.915      161.517       82.241    43645.660    26087.680     6763.621       11.706        3.825      397.054       94.024        0.056      347.696       26.848      862.253
05/16/2014  12:52:00     -215.437      -91.466      -13.387      116.698       85.592       49.178    13618.492     7325.996     2418.438        3.916        1.168      234.049       45.658        0.038      347.574       26.639      862.207
05/16/2014  12:53:00     -153.257      -99.855        3.290      159.783      141.588       56.256    25530.610    20047.061     3164.713        4.110        2.437      182.917       59.902        0.107      347.793       27.017      862.189
05/16/2014  12:54:00     -126.249      -24.858       11.847      124.139       93.992       69.575    15410.402     8834.504     4840.703        2.289        1.454      128.673       62.462        0.236      348.202       27.723      862.161
05/16/2014  12:55:00     -249.200     -159.799       17.957      283.285      137.556      101.369    80250.285    18921.730    10275.720        9.868        5.472      296.035      138.043        0.217      347.840       27.098      862.167
05/16/2014  12:56:00     -113.738     -328.979        1.177      178.004      181.632       95.507    31685.355    32990.255     9121.559        9.747        3.690      348.085       50.476        0.021      347.423       26.376      862.119
05/16/2014  12:57:00     -159.997     -184.820      -21.447      150.513      156.630       69.536    22654.048    24532.933     4835.270        5.611        2.601      244.454       72.583        0.088      347.716       26.884      862.105
05/16/2014  12:58:00     -235.872     -101.721       -1.501      272.070      144.477       72.303    74021.866    20873.692     5227.782        8.303        5.006      256.871      102.872        0.160      347.953       27.293      862.146
05/16/2014  12:59:00     -262.232      -77.456       -5.462      131.059      108.361       70.691    17176.570    11742.008     4997.169        5.435        1.696      273.432       59.577        0.047      347.941       27.272      862.134
05/16/2014  13:00:00      -58.850      -66.815       37.496      165.032      129.086       95.059    27235.448    16663.311     9036.210        3.112        2.647       89.037       93.669        1.107      348.256       27.818      862.115
05/16/2014  13:01:00     -344.085      -81.805       -1.431      197.913      135.979       73.538    39169.741    18490.412     5407.881        9.407        3.153      353.676       78.784        0.050      347.863       27.136      862.118
05/16/2014  13:02:00     -351.961     -210.425        1.597      187.854      153.330       94.509    35289.105    23510.203     8932.018       11.793        3.387      410.067       99.985        0.059      347.785       27.002      862.089
05/16/2014  13:03:00     -397.524     -190.254        6.149      224.226      177.538       96.922    50277.084    31519.681     9393.825       14.271        4.560      440.706       95.219        0.047      347.629       26.733      862.060
05/16/2014  13:04:00     -328.596      -89.147       -0.222      185.895      182.476       91.523    34556.838    33297.533     8376.529        9.606        3.812      340.474       88.445        0.067      347.802       27.031      862.078
05/16/2014  13:05:00     -357.492       -6.985       -2.918      197.814      151.983       83.296    39130.339    23098.725     6938.167        9.850        3.458      357.560       82.472        0.053      347.843       27.103      862.077
05/16/2014  13:06:00     -556.782       40.700      -25.824      231.149      172.957       74.708    53429.822    29914.290     5581.329       20.061        4.446      558.268       86.291        0.024      347.354       26.258      862.052
05/16/2014  13:07:00     -457.650      -63.706      -30.859      161.169      166.393       78.987    25975.391    27686.772     6238.886       13.717        2.995      462.063       77.776        0.028      347.541       26.581      862.027
05/16/2014  13:08:00     -375.707     -135.348       -6.328      153.048      134.159       67.217    23423.825    17998.528     4518.141       10.272        2.297      399.343       78.688        0.039      347.673       26.810      862.035
05/16/2014  13:09:00     -356.093      -38.128      -22.405      134.121      139.014       64.265    17988.570    19324.781     4130.012        8.509        2.072      358.129       39.276        0.012      347.791       27.012      861.985
05/16/2014  13:10:00     -296.632     -144.109        8.592      225.884      159.245       89.117    51023.776    25359.127     7941.858        9.656        4.216      329.785      105.611        0.103      348.114       27.570      861.996
05/16/2014  13:11:00     -311.557     -217.953       11.008      211.693      185.228       92.974    44814.018    34309.402     8644.180       11.621        4.388      380.225      100.291        0.070      347.998       27.371      862.053
05/16/2014  13:12:00     -341.493     -182.209       -9.214      199.136      156.148       85.816    39655.314    24382.216     7364.333       11.064        3.570      387.063       84.092        0.047      347.589       26.664      862.028
05/16/2014  13:13:00     -249.560     -112.896       -1.323      169.157      138.448       81.673    28614.054    19167.936     6670.487        6.473        2.723      273.908       88.701        0.105      347.690       26.840      861.980
05/16/2014  13:14:00     -656.320     -140.377      -31.603      306.015      212.393       88.055    93644.897    45110.962     7753.770       29.896        7.325      671.164       91.244        0.018      347.625       26.726      861.936
05/16/2014  13:15:00     -505.906     -231.861      -25.886      159.869      155.031       84.841    25558.170    24034.722     7198.078       18.357        2.840      556.507       76.013        0.019      347.803       27.035      861.975
05/16/2014  13:16:00     -596.239     -185.318      -33.415      222.944      171.763       85.029    49704.117    29502.511     7229.977       23.868        4.322      624.375       96.159        0.024      347.528       26.560      862.019
05/16/2014  13:17:00     -600.343     -125.434      -26.321      264.576      214.433      107.919    70000.703    45981.597    11646.582       25.221        6.381      613.307      114.153        0.035      347.664       26.794      861.974
05/16/2014  13:18:00     -349.981      -71.535       -8.833      194.302      140.478       94.075    37753.256    19733.958     8850.058        9.700        3.317      357.217       92.591        0.067      347.949       27.285      861.962
05/16/2014  13:19:00     -380.326     -212.192       -1.518      247.881      274.554      113.616    61444.746    75379.781    12908.574       16.967        7.487      435.516      120.783        0.077      347.823       27.068      861.926
05/16/2014  13:20:00     -382.546      -94.532       -2.621      250.770      272.077      127.457    62885.360    74025.909    16245.256       15.419        7.658      394.053      127.696        0.105      348.029       27.424      861.918
05/16/2014  13:21:00     -397.433     -193.321       22.091      308.372      210.945      120.416    95093.108    44497.845    14500.057       17.492        7.705      441.957      148.797        0.113      347.847       27.109      861.995
05/16/2014  13:22:00     -352.780     -206.345      -18.649      177.827      147.317       83.097    31622.374    21702.204     6905.077       11.379        3.011      408.695       85.520        0.044      347.756       26.950      862.014
05/16/2014  13:23:00     -356.957      -53.736        5.840      229.936      156.439       82.289    52870.418    24473.067     6771.425       10.721        4.206      360.979       94.710        0.069      347.712       26.877      861.982
05/16/2014  13:24:00     -384.971      -90.382       -1.283      156.419      101.010       68.862    24466.978    10202.933     4742.028        9.788        1.971      395.438       77.006        0.038      348.102       27.549      861.969
05/16/2014  13:25:00     -539.789     -288.368      -31.937      221.005      233.128      105.313    48843.143    54348.790    11090.787       24.489        5.714      611.987      117.497        0.037      347.445       26.416      862.010
05/16/2014  13:26:00     -280.901     -238.213        1.546      188.904      186.877       86.026    35684.675    34922.962     7400.402       10.681        3.900      368.308       97.043        0.069      347.648       26.766      862.012
05/16/2014  13:27:00     -364.821     -197.232       -3.817      179.174      138.003       78.793    32103.418    19044.714     6208.344       11.467        2.868      414.722       82.620        0.040      347.742       26.928      861.968
05/16/2014  13:28:00     -451.774     -225.519       -1.211      298.343      217.391      101.127    89008.344    47259.047    10226.760       20.070        7.325      504.934      116.825        0.054      347.747       26.938      861.945
05/16/2014  13:29:00     -433.017     -245.009       -2.521      254.343      184.576      119.259    64690.124    34068.428    14222.745       18.024        5.649      497.527      139.388        0.078      347.622       26.722      861.957
05/16/2014  13:30:00     -380.185     -124.279       18.998      272.734      176.569      100.585    74383.911    31176.784    10117.401       13.799        5.784      399.982      133.374        0.111      348.055       27.470      861.963
05/16/2014  13:31:00     -393.275       -4.035      -12.951      215.677      181.483      101.978    46516.466    32936.115    10399.450       12.233        4.493      393.296      100.407        0.065      347.848       27.111      861.944
05/16/2014  13:32:00     -540.237     -194.329      -13.636      266.954      182.811      102.184    71264.309    33419.973    10441.589       22.244        5.756      574.125      116.100        0.041      347.841       27.098      861.910
05/16/2014  13:33:00     -409.146      -85.610       -3.709      253.554      158.609       88.349    64289.481    25156.812     7805.603       13.598        4.863      418.006       94.762        0.051      347.906       27.212      861.909
05/16/2014  13:34:00     -231.343      -51.852        8.592      178.356      114.839       77.069    31810.808    13188.021     5939.559        5.360        2.547      237.083       85.093        0.129      348.088       27.526      861.934
05/16/2014  13:35:00     -314.273     -115.009      -16.316      162.732      192.672       78.141    26481.682    37122.374     6105.951        9.097        3.486      334.656       80.246        0.057      347.968       27.318      861.929
05/16/2014  13:36:00     -478.319     -237.337      -11.513      319.615      243.106      103.475   102153.843    59100.434    10707.101       22.857        8.598      533.965      128.242        0.058      347.884       27.174      861.945
05/16/2014  13:37:00     -586.087     -265.939      -24.049      242.298      164.292       97.089    58708.385    26991.812     9426.218       25.494        4.756      643.600       98.896        0.024      347.488       26.490      861.902
05/16/2014  13:38:00     -605.449     -177.158      -32.805      248.141      177.597      100.299    61574.060    31540.800    10059.955       25.108        5.159      630.836      113.233        0.032      347.635       26.743      861.912
05/16/2014  13:39:00     -594.089     -110.681      -21.924      273.430      198.183      106.882    74764.011    39276.697    11423.858       24.554        6.273      604.311      121.945        0.041      347.617       26.713      861.859
05/16/2014  13:40:00     -538.107      -81.325      -16.899      265.922      194.359      109.809    70714.590    37775.373    12058.041       20.848        6.027      544.218      113.028        0.043      347.825       27.071      861.851
05/16/2014  13:41:00     -621.405     -162.603       -4.136      287.640      223.305      107.682    82737.020    49865.173    11595.412       27.837        7.210      642.327      127.731        0.040      347.659       26.786      861.861
05/16/2014  13:42:00     -249.229      -97.248       13.899      271.429      137.264       94.936    73673.738    18841.420     9012.842        8.663        5.076      267.530      115.096        0.185      347.934       27.261      861.892
05/16/2014  13:43:00     -652.514     -243.657      -32.988      309.151      194.147      118.974    95574.411    37693.075    14154.783       31.680        7.371      696.523      139.623        0.040      347.696       26.849      861.867
05/16/2014  13:44:00     -438.404     -313.865       14.446      275.358      192.307      112.849    75822.096    36981.970    12734.926       20.820        6.277      539.174      126.526        0.055      347.778       26.991      861.853
05/16/2014  13:45:00     -353.188      -72.631       14.409      187.419      165.585      109.877    35125.992    27418.401    12072.884       10.241        3.731      360.579      110.863        0.095      347.950       27.287      861.867
05/16/2014  13:46:00     -313.031     -115.928       19.997      327.631      194.563      134.628   107342.035    37854.894    18124.825       13.754        8.166      333.808      177.194        0.282      347.971       27.324      861.850
05/16/2014  13:47:00     -485.438     -126.037        6.119      302.696      237.267      118.535    91625.054    56295.631    14050.485       20.674        8.099      501.533      136.722        0.074      347.759       26.957      861.851
05/16/2014  13:48:00     -404.160     -253.217      -13.066      221.671      168.356       95.882    49138.231    28343.707     9193.351       15.714        4.334      476.932      101.291        0.045      347.718       26.888      861.863
05/16/2014  13:49:00     -513.256     -263.733      -23.842      317.656      207.811      104.609   100905.395    43185.340    10943.145       24.426        7.752      577.050      140.186        0.059      347.756       26.953      861.883
05/16/2014  13:50:00     -445.367     -379.232       -9.240      334.130      268.699      141.006   111642.776    72199.335    19882.821       27.295       10.186      584.952      170.561        0.085      347.656       26.780      861.842
05/16/2014  13:51:00     -404.664     -370.804      -31.754      217.582      204.476      119.575    47342.134    41810.258    14298.206       20.283        5.173      548.862      113.700        0.043      347.685       26.830      861.862
05/16/2014  13:52:00     -429.251     -227.049      -16.710      222.668      154.611       91.325    49580.998    23904.593     8340.313       15.894        4.091      485.600       92.793        0.037      347.792       27.013      861.851
05/16/2014  13:53:00     -500.204     -257.690      -14.502      295.993      221.031      132.803    87611.924    48854.793    17636.715       23.543        7.705      562.680      143.439        0.065      347.654       26.776      861.859
05/16/2014  13:54:00     -298.427      -72.239       -1.738      228.183      171.546       96.812    52067.648    29428.069     9372.528        9.256        4.543      307.046      100.375        0.107      347.844       27.106      861.831
05/16/2014  13:55:00     -592.368      -79.402      -34.307      241.590      173.691       95.991    58365.816    30168.583     9214.183       22.805        4.887      597.666       97.399        0.027      347.830       27.081      861.798
05/16/2014  13:56:00     -556.697     -181.460      -22.875      256.966      174.122      105.264    66031.610    30318.301    11080.452       22.538        5.372      585.525      119.509        0.042      347.897       27.196      861.823
05/16/2014  13:57:00     -518.434     -283.536        5.477      289.291      259.412      144.061    83689.022    67294.485    20753.666       26.043        8.587      590.903      156.752        0.070      347.693       26.845      861.827
05/16/2014  13:58:00     -456.588     -339.903        7.487      272.672      270.978      132.627    74349.790    73429.226    17590.009       24.468        8.268      569.216      158.592        0.078      347.562       26.618      861.779
05/16/2014  13:59:00     -376.649     -198.443       -2.992      219.599      236.683      115.937    48223.915    56019.013    13441.348       14.944        5.884      425.728      131.648        0.096      347.922       27.240      861.799
05/16/2014  14:00:00     -428.310     -162.204      -23.819      259.086      215.480       90.696    67125.398    46431.436     8225.831       16.603        6.089      457.995      117.728        0.066      347.980       27.340      861.818
05/16/2014  14:01:00     -280.000      -40.611       -7.192      196.867      170.174       84.718    38756.474    28959.159     7177.171        7.748        3.745      282.930       76.525        0.073      348.105       27.554      861.773
05/16/2014  14:02:00     -487.752     -202.796      -28.616      284.610      202.775      100.116    81003.047    41117.875    10023.184       20.597        6.607      528.231      113.206        0.046      347.959       27.304      861.812
05/16/2014  14:03:00     -540.263     -306.648      -30.759      344.598      261.380      135.248   118747.782    68319.333    18292.109       29.607       10.268      621.222      168.133        0.073      347.874       27.157      861.806
05/16/2014  14:04:00     -493.667     -327.465      -10.092      304.940      271.879      122.996    92988.498    73918.280    15128.058       26.650        9.102      592.402      140.809        0.056      347.759       26.958      861.803
05/16/2014  14:05:00     -454.789     -363.132       -5.589      333.449      228.406      119.831   111188.384    52169.085    14359.499       25.819        8.886      581.977      143.159        0.061      347.565       26.623      861.794
05/16/2014  14:06:00     -445.183     -264.832        2.927      338.301      206.635      109.390   114447.616    42698.007    11966.163       21.869        8.456      518.000      137.719        0.071      347.732       26.911      861.785
05/16/2014  14:07:00     -272.749     -148.043       22.040      182.413      176.781       97.695    33274.332    31251.481     9544.300        8.542        3.704      310.337      101.113        0.106      348.002       27.379      861.819
05/16/2014  14:08:00     -532.912     -111.560      -23.370      290.309      219.561      100.282    84279.167    48206.914    10056.391       21.974        7.127      544.464      115.569        0.045      347.729       26.906      861.785
05/16/2014  14:09:00     -563.706     -117.281      -11.939      298.510      183.644      101.040    89108.276    33725.143    10208.982       23.233        6.652      575.777      105.705        0.034      347.803       27.032      861.736
05/16/2014  14:10:00     -232.624     -220.446      -12.753      179.559      183.777       75.662    32241.394    33774.160     5724.786        8.729        3.587      320.485       87.897        0.075      347.849       27.114      861.767
05/16/2014  14:11:00     -489.956     -376.916       -8.220      227.359      174.198       96.640    51691.930    30344.798     9339.349       23.677        4.569      618.161      100.868        0.027      347.555       26.606      861.725
05/16/2014  14:12:00     -233.983     -238.589       13.786      226.809      164.483      111.506    51442.231    27054.530    12433.507       10.138        4.547      334.175      110.963        0.110      347.807       27.041      861.718
05/16/2014  14:13:00     -392.544     -195.900       -9.817      224.801      211.971       94.039    50535.660    44931.679     8843.425       14.842        5.216      438.711      109.022        0.062      347.895       27.192      861.736
05/16/2014  14:14:00     -290.554      -88.014       -8.905      155.593      137.654       75.536    24209.035    18948.488     5705.668        7.055        2.443      303.592       74.422        0.060      348.163       27.656      861.776
05/16/2014  14:15:00     -229.920     -197.460       16.486      203.937      160.649       98.535    41590.114    25808.172     9709.051        8.460        3.855      303.074      116.669        0.148      348.118       27.577      861.773
05/16/2014  14:16:00     -339.144     -169.574       11.667      249.563      190.163      109.791    62281.779    36161.872    12054.117       12.718        5.525      379.176      120.391        0.101      347.818       27.060      861.773
05/16/2014  14:17:00     -573.634     -194.060      -19.280      280.291      221.200      102.547    78563.322    48929.372    10515.813       25.252        6.900      605.570      116.491        0.037      347.700       26.854      861.766
05/16/2014  14:18:00     -570.918     -245.618       -9.957      306.236      196.307      126.962    93780.197    38536.348    16119.276       26.738        7.422      621.510      146.887        0.056      347.601       26.686      861.815
05/16/2014  14:19:00     -519.556     -120.660      -10.071      235.446      183.878      103.557    55434.680    33811.064    10724.022       19.226        4.998      533.383      110.750        0.043      347.605       26.691      861.782
05/16/2014  14:20:00     -483.323     -242.682      -25.637      324.811      212.154      117.003   105501.996    45009.340    13689.649       22.864        8.210      540.829      152.210        0.079      347.573       26.636      861.773
05/16/2014  14:21:00     -336.101     -163.493      -15.567      312.086      152.450       74.428    97397.799    23241.145     5539.490       13.303        6.309      373.756       64.038        0.029      347.619       26.717      861.779
05/16/2014  14:22:00     -490.538     -240.298        1.516      221.066      165.097       96.455    48869.998    27256.859     9303.512       19.188        4.272      546.233       91.044        0.028      347.686       26.832      861.808
05/16/2014  14:23:00     -424.223     -309.406        1.749      254.813      249.152      120.735    64929.605    62076.912    14577.028       20.861        7.079      525.069      128.811        0.060      347.698       26.852      861.785
05/16/2014  14:24:00     -434.338     -269.786       -8.712      249.204      247.765      103.237    62102.443    61387.263    10657.857       19.780        6.707      511.306      123.280        0.058      347.631       26.738      861.758
05/16/2014  14:25:00     -199.535     -138.626        7.296      206.058      165.657       85.338    42459.743    27442.111     7282.522        6.812        3.859      242.964       97.520        0.161      347.960       27.304      861.789
05/16/2014  14:26:00     -393.757     -365.263        6.064      270.017      248.100      106.970    72908.917    61553.710    11442.625       21.717        7.295      537.086      128.127        0.057      347.776       26.988      861.749
05/16/2014  14:27:00     -580.438     -345.236      -18.412      240.716      249.009       99.898    57944.197    62005.629     9979.528       29.316        6.496      675.349      100.629        0.022      347.607       26.694      861.732
05/16/2014  14:28:00     -435.840     -254.060        4.178      266.896      211.684      112.571    71233.650    44810.096    12672.204       19.159        6.436      504.483      139.162        0.076      347.730       26.908      861.748
05/16/2014  14:29:00     -436.565     -108.658      -14.734      235.541      199.064       94.308    55479.442    39626.620     8894.005       15.329        5.200      449.884      115.956        0.066      347.785       27.001      861.770
05/16/2014  14:30:00     -466.682     -294.497      -13.580      242.216      285.499      124.211    58668.446    81509.403    15428.456       23.012        7.780      551.834      116.023        0.044      347.685       26.830      861.729
05/16/2014  14:31:00     -519.371     -301.880      -26.753      237.982      156.010      108.915    56635.646    24339.025    11862.467       22.720        4.642      600.731      130.480        0.047      347.468       26.453      861.733
05/16/2014  14:32:00     -439.039     -284.905      -19.039      197.118      170.973      101.143    38855.612    29231.922    10229.857       17.629        3.916      523.380      102.949        0.039      347.503       26.516      861.711
05/16/2014  14:33:00     -678.326     -227.179      -17.760      338.636      159.507      107.195   114674.654    25442.382    11490.833       33.180        7.580      715.358      134.207        0.035      347.426       26.382      861.682
05/16/2014  14:34:00     -459.083     -276.146       -4.280      244.858      229.724      102.741    59955.533    52773.137    10555.692       20.513        6.164      535.737      124.023        0.054      347.819       27.061      861.728
05/16/2014  14:35:00     -409.019     -224.828       -4.121      247.593      191.530      103.091    61302.162    36683.873    10627.782       16.322        5.431      466.738      100.041        0.046      347.715       26.882      861.734
05/16/2014  14:36:00     -373.740     -201.316       21.198      188.541      217.232      101.753    35547.694    47189.677    10353.691       13.686        4.655      424.512      105.555        0.062      347.746       26.935      861.717
05/16/2014  14:37:00     -481.739     -147.713      -18.513      219.002      225.238      102.002    47961.693    50732.275    10404.372       18.164        5.455      503.877       95.078        0.036      347.775       26.986      861.703
05/16/2014  14:38:00     -412.618      -74.699       -1.475      222.350      180.448      110.836    49439.356    32561.372    12284.593       13.504        4.714      419.325      122.642        0.086      347.792       27.015      861.756
05/16/2014  14:39:00     -420.244     -271.158      -18.902      237.431      253.040       98.754    56373.679    64029.095     9752.392       19.030        6.508      500.131      108.105        0.047      347.600       26.681      861.754
05/16/2014  14:40:00     -535.316     -351.630       -5.606      265.691      199.435      108.280    70591.878    39774.156    11724.636       26.614        6.105      640.474      118.520        0.034      347.529       26.561      861.718
05/16/2014  14:41:00     -486.262     -341.881        2.129      296.125      219.266      125.193    87690.250    48077.751    15673.216       25.236        7.572      594.418      145.046        0.060      347.641       26.753      861.691
05/16/2014  14:42:00     -608.690     -337.058      -26.297      303.519      241.537      116.014    92123.698    58340.288    13459.321       32.433        8.196      695.781      120.854        0.030      347.575       26.641      861.688
05/16/2014  14:43:00     -423.356     -266.279      -11.947      231.373      183.377      109.999    53533.255    33627.191    12099.716       17.475        4.963      500.135      128.457        0.066      347.659       26.786      861.662
05/16/2014  14:44:00     -340.158      -76.384       -4.589      205.604      175.779       86.211    42272.872    30898.222     7432.380       10.107        4.030      348.629       91.243        0.068      347.819       27.061      861.669
05/16/2014  14:45:00     -349.482     -171.934        6.598      237.982      201.519      105.148    56635.644    40610.027    11056.131       13.000        5.415      389.486      115.934        0.089      347.747       26.937      861.704
05/16/2014  14:46:00     -597.083     -241.685       -7.260      251.284      195.952      111.854    63143.795    38397.158    12511.257       26.449        5.703      644.143      115.542        0.032      347.602       26.688      861.692
05/16/2014  14:47:00     -571.585     -180.848      -19.798      282.930      223.547      116.636    80049.510    49973.480    13603.974       25.169        7.181      599.513      135.041        0.051      347.604       26.692      861.672
05/16/2014  14:48:00     -387.190     -256.588        6.049      264.466      206.976      102.777    69942.239    42839.129    10563.093       16.954        6.167      464.493      130.097        0.078      347.698       26.852      861.698
05/16/2014  14:49:00     -509.566     -183.283      -11.627      237.331      179.593      104.014    56325.810    32253.747    10818.927       19.637        4.970      541.525      118.543        0.048      347.658       26.783      861.700
05/16/2014  14:50:00     -396.750     -199.859       14.892      264.324      244.825      108.381    69867.250    59939.294    11746.424       16.954        7.078      444.246      114.313        0.066      347.590       26.666      861.690
05/16/2014  14:51:00     -436.742     -337.391        3.884      249.142      192.886      121.906    62071.510    37205.198    14861.175       20.934        5.707      551.884      133.106        0.058      347.764       26.966      861.682
05/16/2014  14:52:00     -384.509     -220.342      -16.595      206.129      191.513       93.025    42489.066    36677.417     8653.729       14.223        4.391      443.167      106.069        0.057      347.670       26.805      861.685
05/16/2014  14:53:00     -340.242     -137.102      -18.582      171.389      103.884       69.520    29374.040    10791.831     4833.028        8.994        2.250      366.826       59.470        0.026      347.726       26.900      861.676
05/16/2014  14:54:00     -417.127     -176.710      -24.984      264.593      136.108       76.000    70009.437    18525.309     5775.955       15.006        4.716      453.014       70.667        0.024      347.812       27.049      861.688
05/16/2014  14:55:00     -477.757     -209.513      -18.297      283.430      267.773      101.108    80332.767    71702.633    10222.912       21.734        8.113      521.677      106.677        0.042      347.615       26.708      861.661
05/16/2014  14:56:00     -342.037     -115.004        2.198      189.811      144.856       86.483    36028.318    20983.374     7479.257        9.734        3.225      360.854       94.690        0.069      347.718       26.887      861.665
05/16/2014  14:57:00     -335.965      -86.578        1.023      170.680      120.206       75.328    29131.771    14449.501     5674.308        8.480        2.463      346.941       82.898        0.057      347.849       27.113      861.617
05/16/2014  14:58:00     -226.420     -296.526        5.354      174.215      242.480      102.754    30350.706    58796.440    10558.409       11.944        4.985      373.087       96.588        0.067      347.944       27.278      861.623
05/16/2014  14:59:00     -304.809     -197.045        6.163      191.030      187.344       98.363    36492.504    35097.877     9675.192       10.650        4.063      362.953      106.808        0.087      347.939       27.267      861.668
05/16/2014  15:00:00     -602.623     -213.932      -12.081      410.469      272.210      122.309   168485.182    74098.321    14959.383       33.325       12.877      639.470      163.347        0.065      347.573       26.636      861.624
05/16/2014  15:01:00     -345.656     -191.380        4.835      221.478      215.894      103.845    49052.396    46610.279    10783.775       13.127        5.322      395.101       94.711        0.057      347.817       27.058      861.567
05/16/2014  15:02:00     -525.556     -289.650      -12.128      263.880      207.842      113.067    69632.808    43198.360    12784.257       24.291        6.281      600.089      115.565        0.037      347.689       26.835      861.617
05/16/2014  15:03:00     -563.968     -428.374      -37.161      337.124      235.360      108.454   113652.322    55394.529    11762.245       34.184        9.040      708.212      134.224        0.036      347.600       26.683      861.641
05/16/2014  15:04:00     -532.078     -380.101      -24.070      273.139      202.205      132.608    74604.944    40886.730    17584.761       28.059        6.654      653.899      141.436        0.047      347.633       26.742      861.678
05/16/2014  15:05:00     -547.218     -360.063       -8.125      303.461      234.686      120.014    92088.872    55077.733    14403.454       29.533        8.079      655.052      136.001        0.043      347.452       26.428      861.662
05/16/2014  15:06:00     -582.977     -432.045      -11.184      299.361      225.405      137.822    89617.201    50807.195    18994.891       34.300        7.971      725.621      162.642        0.050      347.453       26.428      861.634
05/16/2014  15:07:00     -707.557     -479.852      -41.089      266.765      202.032      115.011    71163.671    40817.119    13227.615       42.887        6.260      854.924      120.527        0.020      347.330       26.219      861.638
05/16/2014  15:08:00     -189.420      -96.753      -11.049      161.425      106.698       73.590    26058.162    11384.507     5415.451        4.410        2.143      212.699       78.041        0.135      347.780       26.994      861.655
05/16/2014  15:09:00     -288.203     -105.687       -1.653      162.446      156.331       71.548    26388.824    24439.362     5119.115        7.508        2.797      306.970       57.199        0.035      347.893       27.189      861.662
05/16/2014  15:10:00     -245.718     -126.073       -3.821      222.882      190.021       89.600    49676.250    36108.054     8028.089        8.503        4.691      276.173       97.368        0.124      347.702       26.860      861.676
05/16/2014  15:11:00     -310.404     -316.180        4.050      203.575      197.278      108.179    41442.940    38918.450    11702.645       14.418        4.603      443.080      106.498        0.058      347.691       26.841      861.659
05/16/2014  15:12:00     -366.220     -212.748        7.841      209.724      182.832       82.308    43984.165    33427.702     6774.595       13.180        4.209      423.531       95.514        0.051      347.677       26.817      861.641
05/16/2014  15:13:00     -241.246     -127.245        3.674      197.230      155.866       80.128    38899.662    24294.181     6420.570        7.200        3.481      272.747       79.952        0.086      347.897       27.196      861.612
05/16/2014  15:14:00     -315.952     -195.860        7.575      161.905      168.358       70.883    26213.109    28344.305     5024.405        9.890        2.979      371.735       76.562        0.042      348.029       27.424      861.648
05/16/2014  15:15:00     -321.359     -269.660       -8.934      267.666      206.168       96.896    71645.339    42505.364     9388.806       14.978        6.177      419.509      103.908        0.061      347.709       26.871      861.660
05/16/2014  15:16:00     -450.014     -335.704        4.532      253.009      189.031      104.870    64013.772    35732.864    10997.666       21.297        5.537      561.436      125.215        0.050      347.606       26.692      861.635
05/16/2014  15:17:00     -353.766     -215.874        3.287      242.789      166.212       96.181    58946.283    27626.276     9250.817       13.377        4.791      414.430      119.531        0.083      347.547       26.591      861.655
05/16/2014  15:18:00     -453.502     -231.600       -7.697      197.589      189.588       89.886    39041.314    35943.552     8079.525       17.120        4.153      509.218       98.085        0.037      347.567       26.626      861.633
05/16/2014  15:19:00     -418.247     -310.214      -17.925      278.928      203.325      103.535    77800.882    41340.902    10719.486       20.065        6.493      520.733      109.142        0.044      347.590       26.667      861.626
05/16/2014  15:20:00     -103.147     -392.530        6.699      130.098      154.280       82.691    16925.435    23802.317     6837.749       10.616        2.378      405.856       50.979        0.016      347.671       26.804      861.633
05/16/2014  15:21:00     -271.216     -322.138       10.918      218.083      221.722       96.732    47560.236    49160.567     9357.092       14.174        5.304      421.107       96.692        0.053      347.620       26.717      861.579
05/16/2014  15:22:00     -153.759     -300.164       13.077      148.093      237.034       84.056    21931.601    56185.050     7065.371        9.953        4.259      337.254       90.989        0.073      347.768       26.974      861.521
05/16/2014  15:23:00     -351.531     -376.205       -8.366      307.744      273.720      113.777    94706.088    74922.690    12945.104       22.384        9.129      514.882      141.417        0.075      347.855       27.124      861.470
05/16/2014  15:24:00     -592.189     -277.096      -19.314      293.928      236.802      124.638    86393.432    56075.030    15534.679       29.289        7.900      653.811      125.741        0.037      347.546       26.589      861.528
05/16/2014  15:25:00     -343.782     -289.079       11.568      257.068      228.630      105.235    66084.051    52271.605    11074.449       16.563        6.472      449.168      114.137        0.065      347.517       26.541      861.581
05/16/2014  15:26:00     -332.413     -182.625       -6.544      189.297      160.414       79.156    35833.367    25732.555     6265.654       10.585        3.392      379.276       94.907        0.063      347.616       26.711      861.574
05/16/2014  15:27:00     -452.105     -355.537       -6.548      247.705      209.110      101.990    61357.940    43727.173    10401.913       22.314        5.774      575.157      115.276        0.040      347.556       26.606      861.557
05/16/2014  15:28:00     -276.980     -216.139        9.180      221.656      172.104       89.730    49131.226    29619.623     8051.385       10.514        4.340      351.332      103.095        0.086      347.567       26.626      861.524
05/16/2014  15:29:00     -286.694     -268.754       15.870      221.877      176.132       92.999    49229.543    31022.412     8648.724       12.177        4.445      392.966       89.591        0.052      347.644       26.759      861.497
05/16/2014  15:30:00     -362.410     -290.335        2.123      241.816      180.382       96.174    58474.775    32537.803     9249.476       15.793        5.013      464.366      108.335        0.054      347.489       26.493      861.505
05/16/2014  15:31:00     -331.782     -176.932        0.128      228.590      181.213       84.735    52253.492    32838.020     7180.021       11.681        4.614      376.011      108.693        0.084      347.708       26.870      861.490
05/16/2014  15:32:00     -428.366     -188.047      -20.824      237.501      157.875       86.357    56406.743    24924.419     7457.520       15.402        4.439      467.823      108.577        0.054      347.664       26.794      861.490
05/16/2014  15:33:00     -431.445     -243.425      -27.559      243.175      173.945      104.361    59134.101    30256.820    10891.205       17.320        5.014      495.379      122.748        0.061      347.492       26.498      861.488
05/16/2014  15:34:00     -341.418     -245.804        4.776      285.769      181.852      106.092    81664.068    33069.995    11255.525       15.147        6.299      420.697      120.858        0.083      347.519       26.543      861.453
05/16/2014  15:35:00     -395.292     -268.223      -11.290      250.552      178.724       83.883    62776.252    31942.406     7036.295       16.502        5.088      477.702      115.108        0.058      347.506       26.521      861.388
05/16/2014  15:36:00     -297.542     -216.742       -7.350      209.583      215.740       77.867    43924.883    46543.580     6063.221       11.603        4.827      368.115       89.443        0.059      347.691       26.841      861.422
05/16/2014  15:37:00     -190.750     -236.523       -0.754      179.412      186.881       72.352    32188.488    34924.595     5234.793        8.232        3.617      303.856       51.122        0.028      347.924       27.242      861.374
05/16/2014  15:38:00     -215.296     -286.080       -9.329      184.246      181.700       74.219    33946.684    33015.038     5508.503       10.036        3.624      358.042       58.638        0.027      347.746       26.936      861.372
05/16/2014  15:39:00     -280.071     -306.863       12.298      185.280      262.471       89.049    34328.563    68890.997     7929.648       14.193        5.557      415.457       77.871        0.035      347.738       26.921      861.369
05/16/2014  15:40:00     -386.422     -308.549       -5.675      252.494      198.060      100.837    63753.376    39227.862    10168.155       17.883        5.657      494.495      114.500        0.054      347.585       26.656      861.365
05/16/2014  15:41:00     -486.466     -367.447      -28.932      247.279      216.629      105.635    61147.108    46928.194    11158.805       24.585        5.962      609.645      116.831        0.037      347.472       26.462      861.354
05/16/2014  15:42:00     -403.237     -275.890       11.899      218.694      199.336      105.458    47826.961    39734.668    11121.340       16.875        4.934      488.585      108.803        0.050      347.552       26.599      861.324
05/16/2014  15:43:00     -399.612     -330.388      -11.885      241.473      208.050      112.673    58309.161    43284.657    12695.265       19.162        5.714      518.504      131.614        0.064      347.531       26.564      861.293
05/16/2014  15:44:00     -222.876     -189.746       -4.445      171.817      133.149       61.068    29521.245    17728.541     3729.245        6.833        2.549      292.706       65.043        0.049      347.770       26.975      861.309
05/16/2014  15:45:00     -212.868     -421.753        1.512      157.849      234.118       86.356    24916.436    54811.380     7457.320       15.517        4.359      472.428       84.366        0.032      347.725       26.901      861.309
05/16/2014  15:46:00     -277.280     -248.956        9.094      207.275      228.945      112.478    42962.825    52416.002    12651.329       12.347        5.402      372.643      110.341        0.088      347.712       26.876      861.320
05/16/2014  15:47:00     -551.675     -372.075      -16.754      254.152      191.758      123.819    64593.096    36770.956    15331.024       27.986        5.835      665.421      138.237        0.043      347.472       26.462      861.298
05/16/2014  15:48:00     -494.567     -133.534       -7.410      221.114      205.760       98.088    48891.564    42337.240     9621.225       18.165        5.043      512.277      101.205        0.039      347.626       26.727      861.298
05/16/2014  15:49:00     -631.792     -145.992      -43.014      199.556      138.962       96.557    39822.534    19310.542     9323.191       24.538        3.423      648.441       92.237        0.020      347.597       26.676      861.333
05/16/2014  15:50:00     -479.692     -187.609       -0.786      239.110      198.491      101.778    57173.357    39398.779    10358.792       18.610        5.347      515.074      116.335        0.051      347.668       26.801      861.294
05/16/2014  15:51:00     -405.984     -141.928      -26.423      201.330      186.104       91.936    40533.947    34634.618     8452.239       13.463        4.181      430.077       82.259        0.037      347.627       26.729      861.291
05/16/2014  15:52:00     -385.077      -52.195       -1.945      287.883      166.843       92.179    82876.835    27836.656     8496.972       13.509        5.961      388.599      125.397        0.104      347.713       26.879      861.231
05/16/2014  15:53:00     -328.076      -36.156      -11.645      222.519      181.447      100.986    49514.552    32923.045    10198.134       10.084        4.632      330.063      114.695        0.121      347.846       27.108      861.244
05/16/2014  15:54:00     -176.544     -243.763       -5.267      136.151      139.790       61.095    18536.994    19541.301     3732.551        6.621        2.091      300.979       61.531        0.042      347.935       27.262      861.251
05/16/2014  15:55:00     -222.761     -176.057        7.624      190.240      121.806       76.093    36191.387    14836.677     5790.083        6.874        2.841      283.935       84.538        0.089      347.906       27.211      861.251
05/16/2014  15:56:00     -550.612     -238.672      -38.517      270.085      243.331      105.908    72945.961    59210.148    11216.484       25.247        7.169      600.115      103.547        0.030      347.617       26.712      861.258
05/16/2014  15:57:00     -632.679     -103.691      -37.834      285.223      190.447      104.226    81352.305    36270.015    10863.038       27.045        6.424      641.120      132.797        0.043      347.538       26.577      861.263
05/16/2014  15:58:00     -398.500     -250.789      -27.357      190.994      183.129       86.272    36478.567    33536.226     7442.929       14.994        3.873      470.847       76.266        0.026      347.482       26.479      861.258
05/16/2014  15:59:00     -437.139     -302.696      -21.798      231.177      173.583       90.474    53442.861    30130.957     8185.486       18.746        4.588      531.710      106.261        0.040      347.410       26.356      861.213
05/16/2014  16:00:00     -314.986     -149.930        5.611      219.044      178.195       87.377    47980.470    31753.520     7634.815       10.453        4.368      348.849       91.184        0.068      347.554       26.604      861.220
05/16/2014  16:01:00     -457.573     -300.930      -13.004      271.458      201.049      110.669    73689.408    40420.775    12247.569       21.320        6.318      547.660      130.365        0.057      347.618       26.714      861.241
05/16/2014  16:02:00     -553.018     -142.785      -14.521      242.338      191.612       96.172    58727.549    36715.133     9248.975       21.554        5.235      571.154       99.892        0.031      347.628       26.732      861.195
05/16/2014  16:03:00     -522.926     -296.681      -23.061      221.908      166.143       95.002    49242.946    27603.637     9025.383       22.392        4.294      601.225      101.465        0.028      347.497       26.506      861.220
05/16/2014  16:04:00     -354.702     -150.630       -3.560      196.100      200.642       79.857    38455.049    40257.254     6377.152       11.679        4.254      385.361       94.696        0.060      347.490       26.493      861.205
05/16/2014  16:05:00     -390.184     -346.202       -4.947      218.854      149.757      106.050    47897.185    22427.087    11246.531       17.683        4.079      521.631      117.839        0.051      347.611       26.701      861.177
05/16/2014  16:06:00     -551.542     -252.316      -15.796      272.065      250.043      103.813    74019.623    62521.749    10777.214       25.769        7.366      606.516      130.796        0.047      347.448       26.420      861.179
05/16/2014  16:07:00     -331.861     -313.624        4.256      250.295      261.071      111.392    62647.359    68158.264    12408.265       17.583        7.161      456.609      125.033        0.075      347.485       26.485      861.156
05/16/2014  16:08:00     -513.252     -375.478      -11.798      299.860      176.597      112.375    89916.205    31186.400    12628.142       26.911        6.687      635.933      108.785        0.029      347.452       26.427      861.134
05/16/2014  16:09:00     -475.204     -345.501      -16.379      241.980      206.541      111.441    58554.201    42658.990    12419.079       22.952        5.682      587.529      120.005        0.042      347.544       26.587      861.144
05/16/2014  16:10:00     -280.129     -163.497        9.829      288.588      135.064       82.560    83282.878    18242.213     6816.187       10.680        5.417      324.350      107.584        0.110      347.598       26.681      861.166
05/16/2014  16:11:00     -251.152     -137.758       -8.615      146.548      131.638       66.387    21476.251    17328.506     4407.233        6.266        2.161      286.452       67.167        0.055      347.677       26.817      861.129
05/16/2014  16:12:00     -310.712     -282.610       15.269      203.529      196.238       87.316    41424.168    38509.539     7624.028       13.208        4.378      420.012      101.334        0.058      347.651       26.770      861.156
05/16/2014  16:13:00     -234.752     -173.602        1.216      182.679      173.808       81.538    33371.794    30209.171     6648.378        7.772        3.511      291.969       78.929        0.073      347.808       27.042      861.158
05/16/2014  16:14:00     -543.965     -375.899      -10.588      212.421      229.536      119.717    45122.561    52686.915    14332.079       27.470        5.607      661.209      112.740        0.029      347.260       26.099      861.118
05/16/2014  16:15:00     -426.812     -194.994        5.092      200.245      135.664       81.184    40098.215    18404.849     6590.796       14.264        3.255      469.245       87.260        0.035      347.576       26.640      861.077
05/16/2014  16:16:00     -427.230     -309.543      -16.162      243.150      222.407      104.811    59121.759    49464.701    10985.414       19.906        5.979      527.582      117.346        0.049      347.500       26.509      861.117
05/16/2014  16:17:00     -415.733     -281.331       -9.523      221.714      184.496       96.067    49157.126    34038.824     9228.913       17.223        4.621      501.977       98.210        0.038      347.332       26.221      861.060
05/16/2014  16:18:00     -432.894     -281.853        1.505      252.404      204.155      110.758    63707.865    41679.111    12267.268       19.222        5.883      516.564      118.378        0.053      347.572       26.635      861.045
05/16/2014  16:19:00     -486.498     -396.653      -18.057      274.327      237.087      103.941    75255.518    56210.014    10803.822       26.828        7.113      627.705      101.684        0.026      347.499       26.507      861.039
05/16/2014  16:20:00     -592.800     -359.639       -7.282      343.614      184.846      127.519   118070.792    34167.929    16261.021       32.462        8.425      693.363      156.058        0.051      347.375       26.296      861.046
05/16/2014  16:21:00     -532.542     -345.913      -10.253      318.040      221.209      132.848   101149.249    48933.341    17648.693       28.551        8.387      635.025      151.641        0.057      347.349       26.249      861.072
05/16/2014  16:22:00     -588.957     -310.000      -18.176      241.226      204.945      110.152    58190.185    42002.542    12133.363       27.779        5.616      665.560       99.220        0.022      347.206       26.005      861.092
05/16/2014  16:23:00     -402.866     -281.083      -32.412      211.949      183.774       92.225    44922.306    33772.762     8505.441       16.476        4.360      491.232       85.372        0.030      347.308       26.179      861.090
05/16/2014  16:24:00     -365.506     -142.019      -17.491      204.572      128.302       86.614    41849.839    16461.413     7501.918       10.993        3.291      392.127       80.211        0.042      347.479       26.475      861.069
05/16/2014  16:25:00     -263.774     -236.029       15.967      188.298      164.360       89.025    35456.256    27014.199     7925.476        9.795        3.520      353.959       99.976        0.080      347.576       26.642      861.046
05/16/2014  16:26:00     -363.112     -145.996       -4.213      171.965      145.021       87.889    29572.079    21031.041     7724.401       10.574        2.916      391.363       90.748        0.054      347.690       26.837      861.006
05/16/2014  16:27:00     -178.361     -154.950       24.099      180.584      156.041       79.453    32610.550    24348.937     6312.706        5.983        3.164      236.267       94.682        0.161      347.861       27.134      860.992
05/16/2014  16:28:00     -467.418     -338.476       -2.405      285.496      200.701      105.945    81508.112    40281.007    11224.282       23.301        6.651      577.101      127.337        0.049      347.325       26.210      860.966
05/16/2014  16:29:00     -393.523     -414.830      -18.471      270.320      265.704      122.260    73073.079    70598.642    14947.562       24.292        7.931      571.791      141.359        0.061      347.385       26.314      860.939
05/16/2014  16:30:00     -501.053     -294.051       -1.692      317.514      184.550      107.676   100815.023    34058.577    11594.169       24.197        7.323      580.965      128.606        0.049      347.387       26.315      860.945
05/16/2014  16:31:00     -399.791     -285.901       16.457      270.193      197.705      102.351    73004.170    39087.117    10475.799       18.218        6.128      491.500      104.320        0.045      347.349       26.250      860.931
05/16/2014  16:32:00     -289.385     -208.487       -1.176      195.347      174.414       89.046    38160.411    30420.105     7929.118       10.185        3.825      356.666       99.789        0.078      347.483       26.482      860.958
05/16/2014  16:33:00     -297.120     -230.322        6.835      211.083      161.119       86.237    44556.233    25959.369     7436.780       10.965        3.898      375.937       97.571        0.067      347.539       26.577      860.942
05/16/2014  16:34:00     -501.993     -369.345       19.796      322.558      255.899      142.448   104043.415    65484.282    20291.503       28.927        9.491      623.228      178.877        0.082      347.338       26.232      860.911
05/16/2014  16:35:00     -512.550     -334.739       -2.336      267.202      208.477      113.033    71396.834    43462.664    12776.471       25.117        6.382      612.175      122.815        0.040      347.169       25.939      860.905
05/16/2014  16:36:00     -390.066     -186.803        9.750      212.286      200.194       94.168    45065.304    40077.447     8867.622       14.056        4.701      432.489       89.442        0.043      347.382       26.308      860.933
05/16/2014  16:37:00     -485.667     -265.234      -12.962      205.355      188.305      101.396    42170.516    35458.594    10281.061       19.713        4.396      553.373      111.312        0.040      347.338       26.232      860.956
05/16/2014  16:38:00     -423.033      -74.840       -3.102      189.200      133.389       88.393    35796.818    17792.670     7813.246       12.297        3.070      429.602       88.784        0.043      347.420       26.374      860.937
05/16/2014  16:39:00     -400.734     -265.722        1.472      219.036      204.107       96.563    47976.945    41659.754     9324.412       16.506        4.948      480.829      104.094        0.047      347.451       26.425      860.912
05/16/2014  16:40:00     -428.405     -214.553       -1.547      200.051      171.321       99.383    40020.588    29350.814     9877.030       15.439        3.962      479.128      102.632        0.046      347.578       26.645      860.950
05/16/2014  16:41:00     -362.655     -132.168      -35.830      180.654      154.988       71.741    32635.789    24021.278     5146.788       10.603        3.090      385.989       51.997        0.018      347.724       26.896      860.967
05/16/2014  16:42:00     -273.966     -183.250       21.420      252.331      164.445       85.784    63671.062    27042.310     7358.906       10.356        4.904      329.602      106.586        0.105      347.680       26.821      860.979
05/16/2014  16:43:00     -229.637     -254.122      -10.081      162.880      186.681       82.711    26529.809    34849.781     6841.109        9.280        3.411      342.507       79.410        0.054      347.423       26.378      860.937
05/16/2014  16:44:00     -314.913     -196.805       -4.878      169.127      140.265       66.111    28603.829    19674.287     4370.659        9.528        2.632      371.352       66.074        0.032      347.612       26.703      860.949
05/16/2014  16:45:00     -173.097     -116.640        2.605      197.260      154.953       69.145    38911.625    24010.472     4781.028        5.563        3.385      208.728       74.666        0.128      347.544       26.587      860.876
05/16/2014  16:46:00     -348.333     -250.907       -8.922      194.000      144.911       87.000    37636.008    20999.269     7569.040       12.527        3.310      429.291       87.057        0.041      347.535       26.572      860.897
05/16/2014  16:47:00     -321.586     -148.849       11.993      197.236      160.299       88.482    38901.933    25695.724     7829.060        9.906        3.621      354.364       99.919        0.080      347.583       26.654      860.902
05/16/2014  16:48:00     -315.977     -125.576       14.047      265.892      150.208      110.328    70698.291    22562.581    12172.259       11.060        5.272      340.016      145.625        0.183      347.640       26.752      860.885
05/16/2014  16:49:00     -349.266     -139.540        7.392      233.433      171.607       77.824    54491.051    29448.806     6056.567       11.574        4.500      376.109       94.850        0.064      347.577       26.646      860.895
05/16/2014  16:50:00     -457.309     -286.095      -15.595      219.128      129.464      100.259    48016.915    16760.804    10051.829       18.301        3.741      539.427      112.273        0.043      347.458       26.439      860.852
05/16/2014  16:51:00     -345.908     -169.153      -16.008      190.255      161.380       80.617    36196.807    26043.604     6499.111       10.862        3.437      385.052       87.356        0.051      347.598       26.679      860.876
05/16/2014  16:52:00     -447.124     -138.488       -8.121      197.884      174.906       90.596    39157.983    30592.279     8207.706       14.855        3.898      468.080       83.601        0.032      347.457       26.435      860.873
05/16/2014  16:53:00     -432.882     -225.907      -10.940      270.544      177.623       89.603    73193.878    31550.096     8028.657       17.563        5.639      488.283      117.188        0.058      347.382       26.307      860.859
05/16/2014  16:54:00     -386.741     -256.942        9.416      239.610      192.331      105.868    57412.721    36991.294    11207.928       16.062        5.281      464.314      104.433        0.051      347.188       25.974      860.836
05/16/2014  16:55:00     -228.513     -127.744        0.764      215.388      143.360       73.926    46391.976    20552.088     5465.038        7.046        3.620      261.795       92.747        0.126      347.412       26.359      860.840
05/16/2014  16:56:00     -293.830     -352.132       16.547      228.269      199.179      110.193    52106.549    39672.094    12142.511       15.724        5.196      458.621      115.988        0.064      347.427       26.386      860.841
05/16/2014  16:57:00     -523.823     -268.237      -12.444      293.594      218.933      112.113    86197.476    47931.497    12569.402       24.657        7.335      588.508      138.479        0.055      347.330       26.217      860.826
05/16/2014  16:58:00     -507.016     -223.410        0.617      242.880      185.177      100.474    58990.689    34290.668    10094.995       20.516        5.169      554.055      108.553        0.038      347.279       26.130      860.818
05/16/2014  16:59:00     -342.484     -232.969       -7.211      180.993      161.617       94.259    32758.419    26119.949     8884.816       11.968        3.388      414.210       89.004        0.046      347.434       26.395      860.828
05/16/2014  17:00:00     -394.859     -347.290      -17.389      206.315      147.361      104.274    42565.821    21715.156    10873.063       17.598        3.758      525.855      103.910        0.039      347.445       26.415      860.878
05/16/2014  17:01:00     -530.463     -421.854      -14.708      252.533      222.560      136.298    63772.685    49532.936    18577.019       29.570        6.594      677.755      150.341        0.049      347.206       26.003      860.853
05/16/2014  17:02:00     -515.907     -321.839      -14.029      221.317      210.961      100.841    48981.318    44504.357    10168.837       23.678        5.183      608.063      106.693        0.031      347.147       25.902      860.847
05/16/2014  17:03:00     -414.679     -264.030       -8.615      191.306      192.792      107.498    36597.831    37168.819    11555.800       16.352        4.266      491.600      100.919        0.042      347.231       26.047      860.840
05/16/2014  17:04:00     -407.601     -284.788        4.087      331.360      243.641      114.127   109799.207    59360.757    13024.862       21.469        9.109      497.236      138.342        0.077      347.195       25.983      860.842
05/16/2014  17:05:00     -437.130     -170.469       -9.065      233.531      159.086       88.746    54536.582    25308.305     7875.800       15.396        4.386      469.193      104.740        0.050      347.170       25.942      860.865
05/16/2014  17:06:00     -355.638     -167.785       11.623      254.705      179.057      107.023    64874.830    32061.366    11453.918       13.156        5.420      393.230      120.945        0.095      347.272       26.119      860.859
05/16/2014  17:07:00     -420.120     -137.261      -24.521      210.014      206.889       91.593    44106.065    42802.921     8389.212       14.560        4.765      441.975       98.311        0.049      347.331       26.218      860.881
05/16/2014  17:08:00     -442.156     -293.280      -25.540      254.957      224.483      115.793    65003.232    50392.485    13408.029       20.546        6.440      530.580      124.843        0.055      347.301       26.166      860.893
05/16/2014  17:09:00     -418.629     -219.032       11.455      244.433      194.303       90.143    59747.248    37753.782     8125.692       16.447        5.281      472.468      116.007        0.060      347.178       25.955      860.844
05/16/2014  17:10:00     -479.220     -340.254        2.241      262.922      218.211      118.129    69128.168    47616.153    13954.399       23.804        6.535      587.728      138.212        0.055      347.137       25.885      860.847
05/16/2014  17:11:00     -385.960     -235.291      -13.460      203.420      230.549      103.095    41379.743    53152.618    10628.644       15.481        5.258      452.025      115.652        0.065      347.279       26.130      860.892
05/16/2014  17:12:00     -359.018      -43.335        5.363      216.947      216.623      107.986    47065.784    46925.352    11661.053       11.821        5.283      361.624      108.545        0.090      347.409       26.355      860.892
05/16/2014  17:13:00     -356.370     -132.973        1.418      229.643      194.725      100.270    52735.904    37917.819    10054.082       12.268        5.035      380.370      118.923        0.098      347.332       26.221      860.896
05/16/2014  17:14:00     -297.123     -152.592        2.010      175.922      129.642       76.097    30948.447    16806.977     5790.813        8.255        2.677      334.016       85.207        0.065      347.409       26.354      860.930
05/16/2014  17:15:00     -333.732      -55.855      -13.527      161.043      146.394       70.518    25934.720    21431.315     4972.723        8.350        2.617      338.374       72.116        0.045      347.384       26.310      860.909
05/16/2014  17:16:00     -380.701     -237.671      -14.356      232.879      201.135       97.867    54232.755    40455.096     9577.966       15.293        5.213      448.799       94.213        0.044      347.300       26.164      860.913
05/16/2014  17:17:00     -282.133     -187.567       14.096      224.422      179.960       93.058    50365.411    32385.438     8659.859       10.318        4.571      338.792       93.225        0.076      347.382       26.305      860.894
05/16/2014  17:18:00     -238.112     -254.068       10.245      171.479      188.035       84.354    29405.159    35357.009     7115.617        9.660        3.594      348.207       86.086        0.061      347.246       26.072      860.883
05/16/2014  17:19:00     -189.761     -208.760       14.654      155.376      117.571       71.297    24141.637    13823.014     5083.251        6.142        2.152      282.117       66.537        0.056      347.249       26.079      860.877
05/16/2014  17:20:00     -371.937     -238.520      -14.926      233.835      157.951       73.412    54678.889    24948.582     5389.319       14.022        4.251      441.847       89.651        0.041      347.228       26.042      860.841
05/16/2014  17:21:00     -471.150     -292.989      -17.329      300.692      234.997      118.639    90415.421    55223.665    14075.197       23.389        7.986      554.820      147.937        0.071      347.234       26.052      860.853
05/16/2014  17:22:00     -378.848     -179.592       18.871      274.591      170.806      103.313    75400.341    29174.745    10673.523       14.567        5.762      419.260      131.456        0.098      347.272       26.117      860.856
05/16/2014  17:23:00     -453.222     -234.254      -14.244      221.955      177.142       99.081    49264.061    31379.408     9817.022       17.546        4.523      510.181      109.337        0.046      347.229       26.042      860.867
05/16/2014  17:24:00     -517.003     -117.463      -26.764      262.831      236.291      132.286    69080.031    55833.520    17499.481       21.208        7.121      530.179      147.606        0.078      347.076       25.780      860.870
05/16/2014  17:25:00     -321.127     -139.808       -2.643      201.839      165.201       76.588    40739.163    27291.467     5865.767        9.827        3.695      350.241       90.019        0.066      347.127       25.868      860.864
05/16/2014  17:26:00     -507.159     -233.474      -37.797      272.597      150.503       87.577    74309.391    22651.061     7669.660       20.887        5.232      558.320       73.803        0.017      347.045       25.726      860.873
05/16/2014  17:27:00     -541.624     -222.853      -29.745      309.414      205.960      123.739    95737.006    42419.551    15311.440       24.866        7.673      585.680      143.259        0.060      347.082       25.791      860.862
05/16/2014  17:28:00     -451.286      -46.731      -14.461      344.432      169.689      110.152   118633.517    28794.523    12133.455       18.278        7.978      453.700      143.384        0.100      347.068       25.765      860.847
05/16/2014  17:29:00     -423.081     -296.104        4.902      292.314      215.334      115.806    85447.538    46368.702    13411.016       20.593        7.261      516.406      139.607        0.073      346.992       25.636      860.837
05/16/2014  17:30:00     -286.288     -109.803       12.951      252.306      166.347       91.333    63658.107    27671.293     8341.633        9.691        4.984      306.623       98.477        0.103      347.174       25.947      860.846
05/16/2014  17:31:00     -476.411     -125.195       -5.971      224.811      258.298      106.526    50539.873    66717.787    11347.800       18.562        6.430      492.587      121.892        0.061      347.047       25.728      860.852
05/16/2014  17:32:00     -320.967     -142.977       11.956      256.007      191.379      105.827    65539.790    36625.795    11199.378       11.846        5.668      351.372      125.242        0.127      347.174       25.948      860.848
05/16/2014  17:33:00     -519.147     -213.237      -32.813      279.627      213.717      116.507    78191.038    45674.872    13573.816       22.672        6.872      561.234      128.972        0.053      346.992       25.635      860.842
05/16/2014  17:34:00     -312.473     -233.002       -1.763      199.271      193.310      110.404    39708.949    37368.577    12188.950       12.058        4.463      389.781      125.333        0.103      347.038       25.715      860.860
05/16/2014  17:35:00     -544.024     -274.243      -28.228      332.713      162.355      108.648   110697.727    26359.003    11804.351       26.038        7.443      609.238      140.628        0.053      346.917       25.506      860.838
05/16/2014  17:36:00     -261.689     -200.392       -0.653      182.704      172.058       90.147    33380.642    29603.962     8126.561        8.986        3.556      329.603       91.054        0.076      347.010       25.666      860.861
05/16/2014  17:37:00     -345.792     -151.565        5.995      275.017      237.318       98.645    75634.456    56319.741     9730.789       14.210        7.084      377.550      115.943        0.094      347.046       25.726      860.845
05/16/2014  17:38:00     -280.997      -88.570        2.704      245.245      189.334       91.088    60145.229    35847.526     8296.994        9.553        5.214      294.625      100.733        0.117      347.114       25.845      860.843
05/16/2014  17:39:00     -372.339     -121.607       -1.539      211.575      151.659       88.731    44764.189    23000.514     7873.140       11.452        3.782      391.694       91.897        0.055      347.158       25.922      860.862
05/16/2014  17:40:00     -393.812     -238.703      -16.707      239.938      154.361       87.062    57570.014    23827.448     7579.836       15.064        4.449      460.507       99.248        0.046      346.903       25.481      860.812
05/16/2014  17:41:00     -416.610     -104.988       -8.511      267.272      181.184      104.324    71434.120    32827.504    10883.399       14.988        5.757      429.635      117.299        0.075      347.035       25.709      860.801
05/16/2014  17:42:00     -460.528     -239.254       -3.173      218.066      162.322      100.621    47552.812    26348.283    10124.635       17.667        4.201      518.969      105.250        0.041      346.946       25.556      860.798
05/16/2014  17:43:00     -320.651     -160.149       26.541      237.979      185.217      110.607    56634.119    34305.158    12233.928       11.615        5.159      358.420      121.028        0.114      347.011       25.667      860.797
05/16/2014  17:44:00     -253.191     -153.636       -0.525      216.692      167.714       89.130    46955.322    28127.900     7944.080        8.535        4.151      296.158       94.935        0.103      347.162       25.926      860.805
05/16/2014  17:45:00     -392.558     -194.413       -9.964      181.398      206.912       94.522    32905.201    42812.442     8934.483       13.831        4.233      438.062       87.431        0.040      347.045       25.726      860.807
05/16/2014  17:46:00     -294.102     -196.633      -13.779      198.935      166.627       77.411    39575.329    27764.543     5992.513        9.933        3.667      353.781       98.115        0.077      347.032       25.705      860.821
05/16/2014  17:47:00     -488.099     -138.113        3.106      250.939      192.833      100.977    62970.312    37184.505    10196.287       18.382        5.518      507.263      114.576        0.051      346.964       25.588      860.774
05/16/2014  17:48:00     -495.189     -315.385      -22.368      253.150      243.347      131.306    64084.824    59217.785    17241.306       24.283        7.027      587.094      138.371        0.056      346.848       25.388      860.790
05/16/2014  17:49:00     -495.226     -267.993      -15.474      264.932      262.595      122.373    70188.943    68955.888    14975.269       23.568        7.706      563.089      117.025        0.043      346.845       25.382      860.773
05/16/2014  17:50:00     -456.967     -324.705       -7.322      253.870      223.881      112.237    64449.756    50122.869    12597.040       22.071        6.358      560.583      118.426        0.045      346.803       25.308      860.772
05/16/2014  17:51:00     -730.135     -325.427      -26.011      269.640      196.385      116.796    72705.484    38567.103    13641.198       38.227        6.246      799.375      129.686        0.026      346.673       25.087      860.772
05/16/2014  17:52:00     -378.123     -130.547       -3.472      280.565      148.985      104.873    78716.565    22196.416    10998.321       13.595        5.596      400.024      116.867        0.085      346.810       25.323      860.766
05/16/2014  17:53:00     -395.405     -158.413       -3.426      189.316      162.346       84.860    35840.458    26356.100     7201.240       12.541        3.470      425.957      100.857        0.056      346.858       25.403      860.773
05/16/2014  17:54:00     -367.982     -238.265       -5.613      251.338      167.111       87.806    63170.772    27926.128     7709.827       14.549        4.940      438.385      114.101        0.068      346.892       25.462      860.752
05/16/2014  17:55:00     -523.058     -229.901       -7.080      312.068      279.895      119.501    97386.370    78341.294    14280.559       25.821        9.500      571.353      145.018        0.064      346.892       25.463      860.739
05/16/2014  17:56:00     -549.083     -199.177       -2.890      283.349      192.583      106.277    80286.781    37088.240    11294.706       23.490        6.433      584.092      128.435        0.048      346.843       25.379      860.719
05/16/2014  17:57:00     -442.452     -198.491       -9.272      219.044      206.458      103.371    47980.487    42625.112    10685.478       16.825        5.065      484.935      122.037        0.063      346.831       25.357      860.753
05/16/2014  17:58:00     -457.706     -242.674      -10.178      246.846      177.631       91.598    60933.135    31552.887     8390.166       18.466        5.044      518.059       74.307        0.021      346.845       25.382      860.727
05/16/2014  17:59:00     -504.436     -258.748       20.166      245.935      199.561      124.871    60484.097    39824.571    15592.726       21.883        5.795      566.928      134.881        0.057      346.766       25.246      860.718
05/16/2014  18:00:00     -347.109     -170.388       -3.224      185.202      160.385       69.606    34299.759    25723.448     4844.942       10.718        3.243      386.673       74.937        0.038      346.850       25.390      860.706
05/16/2014  18:01:00     -221.526     -174.097        5.631      170.220      108.715       79.854    28974.775    11818.883     6376.603        6.328        2.359      281.750       90.637        0.103      346.986       25.626      860.708
05/16/2014  18:02:00     -356.848     -216.702        5.873      251.880      199.824       96.366    63443.757    39929.709     9286.471       14.347        5.633      417.493      114.970        0.076      346.921       25.512      860.702
05/16/2014  18:03:00     -407.029     -237.578       -9.673      186.050      150.419       84.175    34614.547    22625.852     7085.472       14.325        3.216      471.292       83.512        0.031      346.819       25.337      860.688
05/16/2014  18:04:00     -471.780     -296.321      -18.611      266.556      247.071      107.550    71052.229    61044.233    11566.904       22.717        7.183      557.120      118.661        0.045      346.759       25.235      860.685
05/16/2014  18:05:00     -404.445     -298.761       -8.956      292.040      195.513      119.201    85287.397    38225.290    14208.860       19.529        6.886      502.826      142.870        0.081      346.764       25.243      860.693
05/16/2014  18:06:00     -457.719      -97.148       -6.894      358.052      159.371      123.712   128201.026    25399.081    15304.681       19.391        8.445      467.915      155.479        0.110      346.743       25.207      860.665
05/16/2014  18:07:00     -402.623      -59.086       -4.781      249.129      162.619       98.100    62065.207    26445.049     9623.574       13.186        4.907      406.936      107.567        0.070      346.804       25.311      860.655
05/16/2014  18:08:00     -500.592     -324.142       -8.819      265.866      258.699      106.226    70684.993    66925.375    11283.911       25.229        7.445      596.373      129.720        0.047      346.679       25.095      860.657
05/16/2014  18:09:00     -581.608     -178.636      -39.179      235.980      221.350       99.340    55686.574    48995.627     9868.407       24.311        5.728      608.423      109.281        0.032      346.701       25.134      860.664
05/16/2014  18:10:00     -333.650      -98.957       -6.498      227.369      160.495      100.868    51696.526    25758.495    10174.356       10.438        4.381      348.016      106.345        0.093      346.849       25.389      860.671
05/16/2014  18:11:00     -246.388      -47.885        4.794      201.404      122.876       95.633    40563.560    15098.459     9145.639        6.390        3.240      250.998       97.101        0.150      346.832       25.360      860.677
05/16/2014  18:12:00     -376.006     -163.648       -2.118      231.228      176.388      102.538    53466.551    31112.902    10514.115       13.161        4.755      410.075      115.104        0.079      346.733       25.189      860.666
05/16/2014  18:13:00     -277.610     -116.415      -23.868      163.878      168.428       80.112    26856.047    28368.116     6417.917        7.640        3.082      301.031       90.064        0.090      346.794       25.295      860.711
05/16/2014  18:14:00     -323.766     -164.374       -2.624      163.828      154.010       78.463    26839.732    23719.031     6156.454        9.427        2.836      363.103       69.804        0.037      346.820       25.339      860.710
05/16/2014  18:15:00     -322.840      -86.985       -4.495      242.601      127.179       78.124    58855.196    16174.494     6103.326        9.646        4.057      334.353      102.735        0.094      346.699       25.133      860.699
05/16/2014  18:16:00     -581.410     -116.742      -44.071      248.907      172.791      104.348    61954.504    29856.634    10888.477       22.813        5.135      593.015      109.876        0.034      346.644       25.038      860.700
05/16/2014  18:17:00     -580.354     -248.083      -35.244      281.117      177.679       98.562    79026.594    31570.001     9714.432       25.993        6.016      631.154      114.052        0.033      346.579       24.924      860.692
05/16/2014  18:18:00     -401.164     -141.186       -3.386      191.545      178.530       93.310    36689.666    31872.834     8706.708       12.906        3.863      425.284       98.923        0.054      346.689       25.115      860.689
05/16/2014  18:19:00     -355.393     -120.935        2.356      238.476      137.893       96.788    56870.815    19014.357     9367.850       11.308        4.263      375.406      124.710        0.110      346.713       25.155      860.689
05/16/2014  18:20:00     -354.618     -150.122      -15.726      220.203      207.643      103.356    48489.390    43115.619    10682.493       12.539        5.114      385.085      117.973        0.094      346.684       25.105      860.673
05/16/2014  18:21:00     -447.087     -203.933      -23.858      277.189      179.191      112.536    76833.770    32109.530    12664.369       18.180        6.080      491.402      127.291        0.067      346.622       24.998      860.680
05/16/2014  18:22:00     -376.286     -266.855       -4.812      236.020      197.867      126.419    55705.311    39151.413    15981.661       16.181        5.542      461.306      133.109        0.083      346.581       24.927      860.626
05/16/2014  18:23:00     -481.330     -170.370      -25.644      241.782      177.950      103.600    58458.580    31666.290    10733.056       18.109        5.043      510.592      109.156        0.046      346.643       25.035      860.674
05/16/2014  18:24:00     -437.257      -94.806       -9.072      254.159      237.218       95.342    64596.901    56272.485     9090.126       16.509        6.498      447.417      109.387        0.060      346.650       25.045      860.659
05/16/2014  18:25:00     -403.565     -165.892        4.741      244.871      174.943      104.530    59961.785    30604.952    10926.517       14.593        5.075      436.331      120.017        0.076      346.661       25.066      860.688
05/16/2014  18:26:00     -231.272     -132.661       12.484      234.117      174.945       89.241    54810.597    30605.629     7963.990        8.229        4.669      266.619       75.937        0.081      346.568       24.906      860.647
05/16/2014  18:27:00     -305.284     -123.464       -4.416      277.488      147.473       96.125    76999.404    21748.168     9239.950       10.820        5.399      329.305      126.328        0.147      346.699       25.130      860.674
05/16/2014  18:28:00     -282.582      -45.369       -7.660      174.417      145.353       69.424    30421.448    21127.438     4819.734        6.916        2.818      286.201       77.229        0.073      346.590       24.943      860.674
05/16/2014  18:29:00     -466.361      -95.782       -3.302      244.367      151.703       80.171    59715.278    23013.782     6427.427       15.790        4.458      476.095      107.718        0.051      346.578       24.924      860.668
05/16/2014  18:30:00     -550.845     -101.761       -2.175      263.638      142.766       92.490    69504.791    20382.124     8554.463       20.610        4.922      560.166      112.595        0.040      346.499       24.787      860.611
05/16/2014  18:31:00     -404.364     -152.423      -24.272      194.677      203.648       87.767    37899.027    41472.463     7703.119       13.719        4.354      432.137       80.416        0.035      346.525       24.832      860.632
05/16/2014  18:32:00     -394.905     -191.049       -9.499      263.392      167.868      108.828    69375.142    28179.545    11843.601       15.095        5.470      438.690      127.743        0.085      346.434       24.677      860.599
05/16/2014  18:33:00     -222.071     -150.782        6.012      241.857      195.251       99.543    58494.926    38122.865     9908.904        8.929        5.326      268.423      128.736        0.230      346.558       24.890      860.580
05/16/2014  18:34:00     -344.721       70.814       -7.030      205.171      164.806       84.220    42095.144    27160.979     7093.020       10.011        3.817      351.919       95.704        0.074      346.544       24.864      860.599
05/16/2014  18:35:00     -451.105     -113.381       -5.010      296.191      184.688      105.842    87729.256    34109.667    11202.428       17.468        6.652      465.135      120.657        0.067      346.477       24.749      860.616
05/16/2014  18:36:00     -480.382     -126.597       -5.718      209.452      128.465       80.671    43870.272    16503.214     6507.750       15.684        3.344      496.783       87.437        0.031      346.430       24.669      860.642
05/16/2014  18:37:00     -396.398      -67.730       -8.660      203.143      172.847       82.045    41267.060    29876.188     6731.353       11.982        3.894      402.142       75.522        0.035      346.440       24.686      860.632
05/16/2014  18:38:00     -354.123     -150.419       -7.874      186.455      125.381       79.104    34765.516    15720.451     6257.386       10.241        2.837      384.745       79.812        0.043      346.492       24.775      860.617
05/16/2014  18:39:00     -259.435      -89.070       -6.134      154.119      116.505       66.768    23752.574    13573.501     4457.946        5.852        2.089      274.299       73.389        0.072      346.549       24.874      860.694
05/16/2014  18:40:00     -185.293      -87.905      -15.762       90.808       81.493       48.408     8246.008     6641.051     2343.345        2.977        0.862      205.087       24.501        0.014      346.522       24.828      860.686
05/16/2014  18:41:00      -60.591      -82.382       25.817      102.326       73.780       68.528    10470.600     5443.415     4696.075        1.586        1.031      102.264       66.245        0.420      346.553       24.881      860.728
05/16/2014  18:42:00     -148.119     -119.185       11.119      199.848      114.239       68.459    39939.186    13050.548     4686.622        4.696        2.884      190.117       99.167        0.272      346.545       24.867      860.689
05/16/2014  18:43:00     -322.321     -236.281        0.282      222.224      194.821       99.128    49383.368    37955.296     9826.267       12.842        4.858      399.649      107.503        0.072      346.377       24.577      860.629
05/16/2014  18:44:00     -358.148     -181.071       -3.314      165.052      127.948       73.527    27242.326    16370.794     5406.272       10.503        2.451      401.319       73.178        0.033      346.340       24.514      860.682
05/16/2014  18:45:00     -201.765     -149.330       -7.381      126.916      122.022       68.370    16107.547    14889.366     4674.424        4.936        1.784      251.016       71.292        0.081      346.446       24.697      860.669
05/16/2014  18:46:00     -276.749     -129.235        5.389      185.318       94.510       65.787    34342.808     8932.046     4327.891        7.045        2.380      305.437       70.917        0.054      346.402       24.621      860.709
05/16/2014  18:47:00     -306.521     -225.372       11.708      229.370      162.255       96.301    52610.681    26326.681     9273.830       11.653        4.411      380.457      113.865        0.090      346.349       24.530      860.644
05/16/2014  18:48:00     -398.732     -123.975      -27.360      209.057      134.691       67.721    43704.738    18141.558     4586.131       12.076        3.322      417.561       75.917        0.033      346.334       24.503      860.684
05/16/2014  18:49:00     -337.467      -61.274      -16.911      144.793      125.780       61.374    20965.047    15820.486     3766.758        7.923        2.028      342.985       67.427        0.039      346.363       24.554      860.673
05/16/2014  18:50:00     -497.289     -108.130      -23.476      206.549      211.413       84.164    42662.670    44695.371     7083.627       17.697        4.722      508.909      105.827        0.043      346.325       24.488      860.701
05/16/2014  18:51:00     -452.831     -214.654      -15.406      179.631      151.803       80.630    32267.212    23044.074     6501.166       15.658        3.091      501.131       93.936        0.035      346.282       24.414      860.690
05/16/2014  18:52:00     -281.042     -169.195      -14.716      133.236      151.013       61.817    17751.751    22804.992     3821.353        7.609        2.219      328.042       64.865        0.039      346.299       24.442      860.663
05/16/2014  18:53:00     -160.918      -42.334       -6.398      130.326       85.392       60.697    16984.839     7291.858     3684.166        2.784        1.398      166.394       61.388        0.136      346.411       24.636      860.680
05/16/2014  18:54:00     -173.823      -48.941       -3.435      107.024      104.266       59.582    11454.139    10871.478     3550.058        2.924        1.294      180.581       55.393        0.094      346.422       24.655      860.648
05/16/2014  18:55:00     -136.447      -70.501       -8.335       86.916       58.032       40.857     7554.320     3367.761     1669.308        1.812        0.630      153.584       40.394        0.069      346.444       24.696      860.654
05/16/2014  18:56:00     -135.106     -128.438        1.528      101.490       95.684       49.533    10300.268     9155.393     2453.517        2.833        1.095      186.413       46.573        0.062      346.418       24.648      860.649
05/16/2014  18:57:00     -300.370     -136.631      -16.999      130.059      149.308       61.684    16915.401    22292.835     3804.930        7.609        2.151      329.985       66.720        0.041      346.302       24.449      860.644
05/16/2014  18:58:00     -228.920     -106.391       -7.748      151.172      133.686       64.504    22852.902    17871.944     4160.795        5.433        2.244      252.435       73.747        0.085      346.331       24.497      860.645
05/16/2014  18:59:00     -239.866      -77.256       -9.175      113.235       93.612       57.585    12822.194     8763.296     3316.083        4.424        1.245      252.001       58.701        0.054      346.318       24.475      860.659
05/16/2014  19:00:00     -208.511     -113.355       -0.406      126.388       88.788       58.728    15974.028     7883.271     3449.015        4.181        1.365      237.332       54.276        0.052      346.300       24.445      860.670
05/16/2014  19:01:00     -269.781     -190.150       15.308      218.201      162.610       86.377    47611.777    26441.945     7460.940        9.533        4.076      330.059       99.384        0.091      346.192       24.261      860.638
05/16/2014  19:02:00     -227.896     -217.823       13.307      220.375      177.222      103.947    48565.107    31407.534    10805.007        9.515        4.539      315.251      109.643        0.121      346.221       24.308      860.628
05/16/2014  19:03:00     -244.169      -76.009        2.216      214.875      153.274       84.798    46171.115    23493.031     7190.625        7.111        3.843      255.726       98.753        0.149      346.173       24.227      860.618
05/16/2014  19:04:00     -302.016     -133.176        6.331      177.869      149.131       82.833    31637.420    22239.947     6861.250        8.485        3.037      330.075       81.316        0.061      346.194       24.262      860.628
05/16/2014  19:05:00     -563.405     -349.287      -26.722      205.764      192.712       99.325    42338.880    37137.772     9865.541       26.472        4.467      662.892      110.209        0.028      346.067       24.044      860.630
05/16/2014  19:06:00     -435.305     -293.602       -8.580      351.997      269.079      127.736   123902.008    72403.511    16316.450       24.415       10.631      525.064      166.669        0.101      346.063       24.038      860.610
05/16/2014  19:07:00     -344.912     -243.082      -12.098      205.886      166.302       94.805    42389.044    27656.307     8988.000       12.860        3.952      421.963       98.782        0.055      346.077       24.060      860.631
05/16/2014  19:08:00     -463.615       12.308      -26.169      187.763      193.512       88.393    35254.967    37447.087     7813.318       14.813        4.026      463.778       75.434        0.026      346.053       24.020      860.660
05/16/2014  19:09:00     -271.777     -174.240        4.065      164.336      130.807       76.886    27006.241    17110.392     5911.395        7.712        2.501      322.835       85.472        0.070      346.098       24.098      860.668
05/16/2014  19:10:00     -419.138     -152.985      -14.025      186.181      195.360       75.115    34663.540    38165.438     5642.193       13.886        3.924      446.185       62.865        0.020      346.083       24.070      860.680
05/16/2014  19:11:00     -329.004     -136.080       -9.414      244.908      168.218      105.592    59979.891    28297.281    11149.692       11.312        4.971      356.036      108.867        0.093      346.069       24.048      860.649
05/16/2014  19:12:00     -326.481     -148.646        2.709      233.980      205.079      101.024    54746.696    42057.524    10205.922       11.783        5.351      358.727      100.871        0.079      346.060       24.033      860.625
05/16/2014  19:13:00     -286.907     -134.927       -0.598      155.993      142.858       84.011    24333.939    20408.369     7057.866        7.615        2.590      317.050       88.338        0.078      346.055       24.025      860.652
05/16/2014  19:14:00     -420.672     -267.534       -9.909      239.956      175.415      105.332    57578.925    30770.515    11094.868       17.402        4.972      498.537      114.041        0.052      345.982       23.898      860.662
05/16/2014  19:15:00     -521.119     -274.882      -22.759      312.996      262.925      129.046    97966.731    69129.415    16652.755       26.566        9.187      589.173      153.662        0.068      345.947       23.839      860.659
05/16/2014  19:16:00     -417.948     -218.326       -5.217      269.029      244.098      114.115    72376.592    59583.913    13022.191       18.365        7.249      471.537      120.911        0.066      345.965       23.869      860.626
05/16/2014  19:17:00     -392.245     -162.924       -1.645      274.768      250.842      119.494    75497.273    62921.910    14278.757       16.652        7.635      424.736      128.350        0.091      345.945       23.834      860.634
05/16/2014  19:18:00     -516.783     -300.317      -30.503      277.243      211.166      110.422    76863.544    44590.971    12193.100       24.589        6.682      597.709      112.546        0.035      345.903       23.763      860.626
05/16/2014  19:19:00     -488.824     -249.138        8.564      318.177      211.377      111.818   101236.667    44680.305    12503.363       22.972        7.921      548.652      149.121        0.074      345.908       23.773      860.595
05/16/2014  19:20:00     -533.051     -222.088       -9.654      243.441      241.062      118.661    59263.764    58111.103    14080.458       23.248        6.573      577.465      117.862        0.042      345.897       23.753      860.593
05/16/2014  19:21:00     -351.577     -139.683      -16.962      191.065      137.156       84.168    36505.859    18811.681     7084.208       10.289        3.120      378.309       82.276        0.047      345.903       23.764      860.622
05/16/2014  19:22:00     -645.904     -112.798      -12.540      293.194      202.553      123.849    85962.520    41027.692    15338.578       28.617        7.116      655.679      142.814        0.047      345.859       23.688      860.618
05/16/2014  19:23:00     -367.297     -180.975      -14.493      200.763      158.483       93.656    40305.629    25116.962     8771.387       12.102        3.710      409.462      101.677        0.062      345.879       23.722      860.601
05/16/2014  19:24:00     -426.776     -111.541       16.729      266.982      171.762      143.937    71279.546    29502.151    20717.953       15.815        6.075      441.111      151.211        0.118      345.859       23.687      860.589
05/16/2014  19:25:00     -549.965     -144.033      -43.605      273.773      190.863      119.442    74951.656    36428.868    14266.371       22.535        6.282      568.513      139.638        0.060      345.827       23.632      860.542
05/16/2014  19:26:00     -321.793     -110.982        5.622      176.516      185.421       91.102    31157.933    34380.764     8299.640        9.485        3.692      340.394       92.243        0.073      345.839       23.655      860.570
05/16/2014  19:27:00     -350.743     -211.035        5.288      243.953      181.617      109.704    59512.990    32984.593    12034.998       13.604        5.227      409.336      130.464        0.102      345.803       23.592      860.565
05/16/2014  19:28:00     -340.117     -164.787       10.990      244.723      219.074      101.694    59889.111    47993.391    10341.667       13.057        5.911      377.935      116.474        0.095      345.829       23.636      860.512
05/16/2014  19:29:00     -322.574     -147.592        9.602      272.558      180.316      102.708    74287.729    32513.888    10548.956       12.162        5.868      354.736      109.186        0.095      345.786       23.563      860.483
05/16/2014  19:30:00     -251.334     -116.854       14.401      213.581      177.261       99.075    45616.848    31421.315     9815.933        8.193        4.343      277.171      114.759        0.171      345.767       23.529      860.519
05/16/2014  19:31:00     -585.792     -240.397       -8.491      228.283      177.652      110.158    52113.104    31560.102    12134.893       24.839        4.790      633.200      111.891        0.031      345.727       23.461      860.496
05/16/2014  19:32:00     -436.528     -144.991      -23.374      179.223      174.347       92.748    32121.028    30396.868     8602.212       14.161        3.556      459.977       91.313        0.039      345.737       23.479      860.493
05/16/2014  19:33:00     -447.091      -46.646      -13.582      209.844      168.723       95.112    44034.656    28467.327     9046.271       14.188        4.077      449.518      100.664        0.050      345.709       23.429      860.510
05/16/2014  19:34:00     -546.239     -216.712      -32.333      242.700      226.977      113.798    58903.186    51518.652    12950.038       23.485        6.169      587.657      104.617        0.032      345.672       23.366      860.469
05/16/2014  19:35:00     -424.114      -71.720      -10.515      200.855      188.973       85.621    40342.576    35710.754     7330.905       13.424        4.169      430.135       99.891        0.054      345.694       23.405      860.450
05/16/2014  19:36:00     -420.828     -155.302      -10.111      305.746      224.188      112.713    93480.897    50260.239    12704.318       17.885        7.822      448.570      141.920        0.100      345.630       23.294      860.429
05/16/2014  19:37:00     -426.843     -210.467       -9.734      299.537      182.422       98.814    89722.347    33277.705     9764.240       17.965        6.638      475.910      113.791        0.057      345.630       23.295      860.443
05/16/2014  19:38:00     -463.405     -200.270      -13.424      263.973      229.743       87.268    69681.675    52781.738     7615.676       19.253        6.504      504.829       98.826        0.038      345.591       23.227      860.457
05/16/2014  19:39:00     -461.796     -227.491      -16.062      295.354      214.799      121.337    87234.276    46138.706    14722.777       20.665        7.405      514.789      129.268        0.063      345.564       23.182      860.446
05/16/2014  19:40:00     -457.310     -316.445      -37.818      272.271      240.648      126.753    74131.579    57911.528    16066.231       22.938        7.405      556.121      129.515        0.054      345.577       23.202      860.426
05/16/2014  19:41:00     -722.101     -198.466      -45.835      240.215      196.945      103.297    57703.455    38787.281    10670.215       33.502        5.358      748.878       94.845        0.016      345.543       23.146      860.415
05/16/2014  19:42:00     -460.728      -89.718      -13.776      190.440      156.951       91.542    36267.273    24633.669     8379.979       14.488        3.464      469.382      108.914        0.054      345.539       23.137      860.398
05/16/2014  19:43:00     -263.199     -104.026        1.705      235.483      189.180      108.212    55452.439    35789.127    11709.912        9.150        5.148      283.011      117.007        0.171      345.548       23.155      860.369
05/16/2014  19:44:00     -290.736      -57.818        3.923      216.560      200.313       96.114    46898.367    40125.101     9237.826        9.205        4.813      296.429       96.907        0.107      345.530       23.124      860.386
05/16/2014  19:45:00     -535.826     -173.681      -37.697      295.652      194.850      116.880    87410.139    37966.612    13661.007       22.884        6.952      563.271      127.684        0.051      345.488       23.050      860.354
05/16/2014  19:46:00     -612.716     -123.919       -8.782      282.323      169.137      112.763    79706.022    28607.181    12715.576       25.592        6.051      625.122      129.843        0.043      345.446       22.978      860.344
05/16/2014  19:47:00     -661.281     -129.172      -20.772      267.177      238.667      125.564    71383.647    56962.107    15766.319       29.923        7.206      673.779      141.557        0.044      345.449       22.983      860.306
05/16/2014  19:48:00     -312.419      -60.049       -2.325      274.936      187.438      108.426    75589.651    35132.838    11756.178       11.182        6.124      318.138      127.960        0.162      345.422       22.938      860.328
05/16/2014  19:49:00     -653.873     -118.360      -30.672      295.869      237.600      125.147    87538.707    56453.889    15661.784       30.105        7.983      664.499      138.708        0.044      345.413       22.922      860.334
05/16/2014  19:50:00     -589.670     -113.427      -44.157      304.331      281.943      107.811    92617.607    79491.764    11623.183       27.309        9.187      600.480      115.048        0.037      345.398       22.895      860.347
05/16/2014  19:51:00     -592.145     -158.105      -32.466      268.880      239.564      110.759    72296.233    57390.872    12267.525       25.929        7.098      612.889      132.022        0.046      345.373       22.852      860.368
05/16/2014  19:52:00     -582.387     -164.473      -13.086      307.787      263.827      106.428    94732.920    69604.779    11326.886       27.100        8.783      605.166      125.423        0.043      345.368       22.845      860.344
05/16/2014  19:53:00     -549.469     -214.876      -27.152      247.511      208.156       96.072    61261.514    43328.968     9229.778       23.130        5.691      589.990      102.829        0.030      345.352       22.818      860.378
05/16/2014  19:54:00     -331.523     -163.344      -20.129      223.677      213.724      110.017    50031.450    45678.034    12103.716       12.238        5.391      369.579      118.137        0.102      345.363       22.836      860.408
05/16/2014  19:55:00     -320.030     -149.352        1.425      233.891      201.957      100.608    54704.887    40786.472    10122.021       11.515        5.281      353.165      123.757        0.123      345.343       22.802      860.410
05/16/2014  19:56:00     -536.642     -245.750      -26.534      154.982      174.211       80.043    24019.379    30349.535     6406.958       20.492        3.039      590.235       73.433        0.015      345.331       22.783      860.438
05/16/2014  19:57:00     -364.958     -109.842       -7.677      178.177      183.948       80.310    31747.213    33836.709     6449.676       10.866        3.602      381.129       83.636        0.048      345.310       22.745      860.430
05/16/2014  19:58:00     -283.103      -55.402        8.862      208.363      179.388       93.562    43415.119    32179.945     8753.922        8.381        4.217      288.473      100.412        0.121      345.295       22.718      860.437
05/16/2014  19:59:00     -365.118      -51.916       -9.447      171.475      135.129       82.203    29403.588    18259.965     6757.362        9.525        2.721      368.791       86.794        0.055      345.283       22.699      860.433
05/16/2014  20:00:00     -356.508     -103.736        1.737      194.919      188.668       98.480    37993.508    35595.663     9698.386       11.056        4.164      371.294       92.496        0.062      345.198       22.553      860.456
05/16/2014  20:01:00     -429.430      -31.734      -21.076      243.870      164.108       85.956    59472.597    26931.457     7388.404       13.981        4.690      430.601      105.279        0.060      345.208       22.570      860.451
05/16/2014  20:02:00     -221.691      -53.221        3.847      169.055      108.789       75.903    28579.733    11834.975     5761.299        4.908        2.309      227.990       82.126        0.130      345.167       22.501      860.499
05/16/2014  20:03:00     -488.241     -115.846      -16.915      235.240      178.102       93.684    55337.816    31720.198     8776.625       17.394        4.792      501.796      117.943        0.055      345.184       22.530      860.529
05/16/2014  20:04:00     -545.856     -106.968      -38.813      212.103      160.751       92.580    44987.632    25840.816     8571.122       19.514        3.970      556.239       91.075        0.027      345.201       22.559      860.512
05/16/2014  20:05:00     -295.175      -42.781       -4.811      133.269      138.107       65.485    17760.738    19073.561     4288.293        6.504        2.056      298.259       69.835        0.055      345.167       22.501      860.547
05/16/2014  20:06:00     -455.087     -101.276      -16.300      175.830      197.612       84.265    30916.357    39050.458     7100.628       14.733        3.853      466.220       73.986        0.025      345.163       22.493      860.550
05/16/2014  20:07:00     -430.406      -62.892      -18.732      196.478      169.691       89.291    38603.787    28795.053     7972.935       13.245        3.769      434.977       97.867        0.051      345.150       22.470      860.580
05/16/2014  20:08:00     -323.361     -126.162       -6.648      210.998      174.186       92.266    44520.246    30340.839     8513.049       10.193        4.169      347.101      106.811        0.095      345.154       22.476      860.571
05/16/2014  20:09:00     -436.192      -60.285      -24.278      192.379      155.567       94.083    37009.839    24201.172     8851.666       13.226        3.503      440.339      106.495        0.058      345.118       22.417      860.590
05/16/2014  20:10:00     -183.964       -9.059       11.508      185.188      105.629       64.604    34294.677    11157.541     4173.716        4.183        2.481      184.187       89.348        0.235      345.077       22.349      860.623
05/16/2014  20:11:00     -293.680     -148.473       -7.146      180.866      157.078       90.752    32712.448    24673.377     8236.001        8.697        3.281      329.078       95.232        0.084      345.103       22.391      860.605
05/16/2014  20:12:00     -364.352     -124.341       -7.847      227.262      150.850       78.350    51648.187    22755.777     6138.791       11.439        4.027      384.984       94.547        0.060      345.118       22.418      860.649
05/16/2014  20:13:00     -529.643     -131.089      -34.108      200.666      154.206       86.134    40267.040    23779.571     7418.989       18.515        3.573      545.624      100.034        0.034      345.130       22.438      860.654
05/16/2014  20:14:00     -431.341        0.870      -21.068      206.617      107.151       78.708    42690.559    11481.288     6194.965       12.342        3.018      431.342      101.585        0.055      345.103       22.391      860.686
05/16/2014  20:15:00     -339.234     -110.923       -6.076      165.555      133.871       84.440    27408.487    17921.322     7130.058        8.993        2.623      356.908       87.812        0.061      345.085       22.358      860.678
05/16/2014  20:16:00     -405.545      -31.293       -9.210      234.959      130.885       86.969    55205.502    17130.815     7563.596       12.270        3.995      406.750      101.509        0.062      345.052       22.305      860.714
05/16/2014  20:17:00     -574.341     -176.803      -19.510      207.218      144.413       87.271    42939.380    20855.212     7616.310       21.644        3.571      600.938       89.204        0.022      345.104       22.393      860.719
05/16/2014  20:18:00     -239.975      -55.440       -8.977      129.007      108.265       57.007    16642.761    11721.382     3249.750        4.617        1.581      246.296       56.342        0.052      345.044       22.291      860.741
05/16/2014  20:19:00     -362.559      -13.557      -28.286      231.285      116.175       75.874    53492.759    13496.621     5756.899       10.258        3.637      362.812       81.954        0.051      345.025       22.258      860.762
05/16/2014  20:20:00     -343.431       -4.788      -21.123      160.767      125.015       70.954    25845.978    15628.759     5034.501        8.245        2.325      343.464       76.171        0.049      345.012       22.236      860.750
05/16/2014  20:21:00     -457.884     -143.145      -15.027      209.793      141.449       78.331    44013.208    20007.812     6135.806       15.025        3.508      479.738       83.358        0.030      345.005       22.225      860.796
05/16/2014  20:22:00     -285.802     -143.104       -7.982      136.251      136.718       70.827    18564.384    18691.823     5016.417        7.224        2.114      319.627       59.496        0.035      344.975       22.173      860.811
05/16/2014  20:23:00     -345.810      -34.611       -8.352      142.795      159.650       76.888    20390.537    25488.125     5911.757        8.631        2.590      347.537       68.592        0.039      344.994       22.205      860.813
05/16/2014  20:24:00     -371.521       50.906      -21.056      174.904      122.858       74.828    30591.546    15094.069     5599.222        9.616        2.564      374.992       89.555        0.057      344.972       22.167      860.827
05/16/2014  20:25:00     -249.478     -116.441        0.185      175.180      110.151       77.625    30688.064    12133.195     6025.564        6.231        2.442      275.314       91.754        0.111      344.921       22.079      860.841
05/16/2014  20:26:00     -305.271      -52.844       -8.868      172.122      109.141       75.042    29625.970    11911.770     5631.371        7.161        2.358      309.811       90.707        0.086      344.910       22.062      860.852
05/16/2014  20:27:00     -267.630      -56.073       -0.319      163.259      107.591       69.883    26653.626    11575.747     4883.628        5.893        2.156      273.441       78.309        0.082      344.906       22.055      860.832
05/16/2014  20:28:00     -431.137     -110.923      -15.568      160.728      135.104       73.836    25833.421    18252.980     5451.689       12.397        2.477      445.177       77.513        0.030      344.903       22.049      860.882
05/16/2014  20:29:00     -365.591      -42.754      -21.885      170.749      131.807       73.853    29155.068    17373.088     5454.214        9.396        2.599      368.082       91.496        0.062      344.879       22.009      860.860
05/16/2014  20:30:00     -381.739       -7.989      -18.510      124.745       95.541       65.049    15561.244     9128.163     4231.329        8.752        1.446      381.822       60.379        0.025      344.868       21.988      860.890
05/16/2014  20:31:00     -449.894      -17.876      -23.280      228.711      164.532       87.034    52308.948    27070.896     7574.933       14.509        4.348      450.249      105.712        0.055      344.872       21.997      860.895
05/16/2014  20:32:00     -515.793     -108.221       -9.008      183.804      166.232       76.959    33783.898    27633.021     5922.740       17.257        3.367      527.024       81.197        0.024      344.900       22.044      860.889
05/16/2014  20:33:00     -221.642     -110.394        0.435      132.278       89.174       62.331    17497.410     7952.039     3885.196        4.532        1.467      247.613       70.738        0.082      344.839       21.939      860.889
05/16/2014  20:34:00     -351.516      -98.106      -13.420      158.253      142.501       63.474    25044.007    20306.451     4028.982        9.136        2.469      364.950       62.293        0.029      344.823       21.912      860.908
05/16/2014  20:35:00     -276.116      -35.929       -9.665      143.787      106.919       64.419    20674.612    11431.684     4149.762        5.693        1.813      278.444       66.985        0.058      344.779       21.836      860.934
05/16/2014  20:36:00     -522.548     -153.576      -23.219      188.108      168.474       80.955    35384.786    28383.564     6553.668       18.374        3.516      544.649       80.049        0.022      344.878       22.006      860.899
05/16/2014  20:37:00     -528.942     -111.181      -35.974      175.109      177.819       84.577    30663.124    31619.688     7153.208       18.142        3.472      540.501       79.620        0.022      344.838       21.936      860.933
05/16/2014  20:38:00     -632.391     -159.052      -38.061      217.163      206.027       96.676    47159.971    42447.203     9346.231       26.279        4.948      652.086       84.540        0.017      344.870       21.991      860.892
05/16/2014  20:39:00     -547.228      -32.775      -13.118      196.484      152.556       81.507    38606.157    23273.227     6643.352       18.460        3.426      548.208       86.671        0.025      344.883       22.015      860.924
05/16/2014  20:40:00     -435.816      -97.795      -30.541      216.659      114.841       70.731    46940.978    13188.426     5002.814       13.277        3.257      446.654       78.536        0.031      344.836       21.934      860.932
05/16/2014  20:41:00     -521.739     -102.950      -30.034      189.600      155.842       89.103    35948.257    24286.763     7939.412       17.593        3.409      531.800       91.892        0.030      344.803       21.876      860.951
05/16/2014  20:42:00     -562.528     -160.705      -53.811      167.799      126.865       82.865    28156.510    16094.718     6866.621       19.813        2.556      585.033       66.935        0.013      344.815       21.898      860.958
05/16/2014  20:43:00     -450.962     -109.594      -10.692      161.607      164.193       80.495    26116.695    26959.405     6479.385       13.751        2.978      464.088       75.170        0.026      344.773       21.826      860.966
05/16/2014  20:44:00     -564.692     -135.150      -36.824      139.042      141.879       72.324    19332.716    20129.585     5230.749       19.159        2.235      580.640       59.967        0.011      344.748       21.784      860.962
05/16/2014  20:45:00     -421.120      -77.233      -23.890      200.945      139.076       79.385    40379.026    19342.086     6301.925       12.494        3.301      428.144       86.184        0.041      344.765       21.814      860.997
05/16/2014  20:46:00     -252.410      -46.145       -4.862      157.517      121.238       69.163    24811.556    14698.602     4783.484        5.507        2.215      256.593       70.875        0.076      344.701       21.702      861.001
05/16/2014  20:47:00     -464.507      -49.813      -39.710      156.358      132.971       69.935    24447.682    17681.257     4890.948       13.341        2.351      467.170       71.717        0.024      344.688       21.680      861.002
05/16/2014  20:48:00     -419.431      -78.296      -22.556      191.859      129.450       71.314    36809.939    16757.310     5085.672       12.060        2.933      426.676       79.522        0.035      344.688       21.680      861.024
05/16/2014  20:49:00     -351.482      -70.142       -8.698      149.644      110.777       78.235    22393.420    12271.460     6120.645        8.465        2.039      358.413       82.756        0.053      344.654       21.622      861.033
05/16/2014  20:50:00     -415.223      -84.543      -21.691      156.735      113.715       64.477    24565.990    12931.149     4157.310       11.083        2.083      423.743       74.932        0.031      344.629       21.581      861.027
05/16/2014  20:51:00     -483.552     -126.599      -20.992      201.168      135.363       80.174    40468.512    18323.178     6427.937       15.774        3.261      499.850       90.253        0.033      344.650       21.614      861.015
05/16/2014  20:52:00     -385.112     -118.186        4.602      168.174      134.138       75.651    28282.542    17992.987     5723.019       10.714        2.600      402.839       71.820        0.032      344.615       21.556      861.006
05/16/2014  20:53:00     -367.501      -20.387      -12.858      167.490      125.082       75.895    28052.762    15645.604     5760.003        9.254        2.473      368.066       85.007        0.053      344.612       21.551      861.004
05/16/2014  20:54:00     -450.040     -118.469       -2.527      194.332      179.134       92.948    37764.782    32088.920     8639.315       14.752        3.925      465.371      100.692        0.047      344.578       21.493      861.002
05/16/2014  20:55:00     -388.012     -107.553      -29.870      151.172      114.842       66.594    22853.043    13188.737     4434.804       10.174        2.024      402.643       77.789        0.037      344.593       21.518      861.016
05/16/2014  20:56:00     -436.723     -105.893      -23.903      248.199      203.164       96.321    61602.966    41275.455     9277.768       15.731        5.608      449.378      115.036        0.066      344.631       21.583      861.027
05/16/2014  20:57:00     -401.364      -61.449       -7.243      161.624      122.966       76.976    26122.396    15120.665     5925.232       10.604        2.358      406.040       79.189        0.038      344.595       21.523      861.091
05/16/2014  20:58:00     -536.429      -85.017      -23.656      251.807      150.438       83.727    63407.017    22631.488     7010.195       19.428        4.652      543.124       93.363        0.030      344.593       21.519      861.098
05/16/2014  20:59:00     -529.947      -84.371      -12.245      193.510      155.221       78.074    37446.071    24093.651     6095.544       17.786        3.382      536.621       86.377        0.026      344.555       21.455      861.112
05/16/2014  21:00:00     -578.763     -164.223      -26.927      268.179      218.217      107.139    71919.771    47618.604    11478.674       24.681        6.551      601.612       99.127        0.027      344.596       21.524      861.101
05/16/2014  21:01:00     -526.595     -176.977      -14.730      164.955      158.372       97.882    27210.137    25081.801     9580.924       18.534        3.094      555.539       85.106        0.023      344.598       21.527      861.136
05/16/2014  21:02:00     -403.641      -29.413      -22.496      202.979      154.779       69.609    41200.292    23956.607     4845.364       11.714        3.500      404.711       72.919        0.032      344.596       21.522      861.130
05/16/2014  21:03:00     -613.713      -46.781      -28.691      267.896      176.670       99.981    71768.135    31212.209     9996.223       24.629        5.649      615.493      115.799        0.035      344.572       21.481      861.168
05/16/2014  21:04:00     -518.945      -27.465      -20.506      249.742      165.938      101.146    62370.826    27535.403    10230.480       18.529        5.007      519.671      122.595        0.056      344.591       21.515      861.192
05/16/2014  21:05:00     -411.450      -81.663      -28.007      139.511      122.071       60.417    19463.453    14901.299     3650.214       10.737        1.901      419.475       68.946        0.027      344.571       21.480      861.236
05/16/2014  21:06:00     -331.159      -71.028      -11.466      198.462      131.453       74.329    39387.166    17279.909     5524.851        8.850        3.110      338.690       79.366        0.055      344.519       21.392      861.263
05/16/2014  21:07:00     -370.214      -45.283      -25.897      146.829      126.103       67.847    21558.860    15901.900     4603.267        9.091        2.103      372.973       67.168        0.032      344.509       21.375      861.296
05/16/2014  21:08:00     -335.241      -92.015      -12.872      119.858      106.544       57.250    14365.932    11351.620     3277.543        7.500        1.450      347.639       55.930        0.026      344.496       21.353      861.291
05/16/2014  21:09:00     -348.884      -99.125       -8.177      152.581      120.197       63.459    23281.062    14447.422     4026.997        8.668        2.088      362.692       68.019        0.035      344.422       21.226      861.337
05/16/2014  21:10:00     -498.280     -129.754      -12.924      143.007      154.738       82.553    20450.967    23943.903     6815.023       15.824        2.560      514.897       74.247        0.021      344.487       21.337      861.364
05/16/2014  21:11:00     -480.968      -81.537      -17.525      174.885      145.885       74.891    30584.742    21282.565     5608.645       14.787        2.874      487.831       81.240        0.028      344.490       21.341      861.383
05/16/2014  21:12:00     -307.482      -85.960       -7.629      162.280      100.657       67.321    26334.672    10131.888     4532.183        7.149        2.050      319.272       79.185        0.062      344.424       21.229      861.428
05/16/2014  21:13:00     -337.027      -64.201      -15.278      175.682      126.802       63.286    30864.012    16078.803     4005.178        8.443        2.547      343.087       64.591        0.035      344.380       21.155      861.463
05/16/2014  21:14:00     -167.752     -100.676       -1.471      190.405      131.329       76.938    36254.011    17247.185     5919.447        4.884        2.971      195.643       93.166        0.227      344.343       21.092      861.468
05/16/2014  21:15:00     -376.945     -113.035      -19.767      158.291      155.432       64.586    25056.062    24159.090     4171.352       10.431        2.669      393.529       78.737        0.040      344.487       21.335      861.484
05/16/2014  21:16:00     -357.183      -62.068      -20.537      177.536      116.683       64.714    31518.859    13614.978     4187.844        9.058        2.466      362.536       79.815        0.048      344.387       21.165      861.498
05/16/2014  21:17:00     -437.861      -72.815      -24.406      140.681      127.055       68.573    19791.040    16143.087     4702.256       11.912        2.032      443.874       78.559        0.031      344.449       21.272      861.516
05/16/2014  21:18:00     -325.356      -55.060      -16.821      141.134      100.964       53.558    19918.944    10193.717     2868.497        7.107        1.649      329.982       66.770        0.041      344.419       21.220      861.531
05/16/2014  21:19:00     -389.441      -11.745      -22.743      138.823       99.959       64.666    19271.724     9991.770     4181.743        9.288        1.672      389.618       71.654        0.034      344.403       21.193      861.563
05/16/2014  21:20:00     -472.198     -113.029      -11.253      155.953      139.129       72.700    24321.347    19356.865     5285.357       14.241        2.448      485.538       77.152        0.025      344.400       21.187      861.570
05/16/2014  21:21:00     -385.215      -85.053      -12.450      163.206      118.136       74.837    26636.132    13956.170     5600.596       10.098        2.310      394.493       67.279        0.029      344.346       21.095      861.598
05/16/2014  21:22:00     -327.334      -91.998      -10.982      175.369      124.649       71.243    30754.445    15537.492     5075.568        8.354        2.568      340.016       79.306        0.054      344.337       21.081      861.614
05/16/2014  21:23:00     -413.392       -5.986      -15.132       97.359      123.213       62.155     9478.756    15181.566     3863.210        9.984        1.426      413.436       37.707        0.008      344.385       21.164      861.636
05/16/2014  21:24:00     -314.070      -95.625      -15.465      161.573      133.504       67.429    26105.847    17823.352     4546.640        7.824        2.424      328.305       51.911        0.025      344.351       21.104      861.637
05/16/2014  21:25:00     -338.681      -83.842      -13.675      155.456      115.985       66.762    24166.416    13452.406     4457.114        8.199        2.104      348.905       64.742        0.034      344.348       21.099      861.640
05/16/2014  21:26:00     -536.776      -33.546      -47.496      152.617      129.124       82.831    23291.911    16673.124     6860.999       16.916        2.341      537.823       65.725        0.015      344.360       21.122      861.666
05/16/2014  21:27:00     -559.593        3.121      -50.449      167.536      155.735       63.445    28068.163    24253.457     4025.241       18.601        2.817      559.601       65.126        0.014      344.402       21.192      861.673
05/16/2014  21:28:00     -423.863      -46.745      -35.515      148.979      118.267       75.930    22194.702    13987.151     5765.405       11.252        2.097      426.432       73.338        0.030      344.342       21.090      861.690
05/16/2014  21:29:00     -280.787      -46.012      -13.120      158.420      134.129       74.339    25097.012    17990.675     5526.215        6.486        2.431      284.532       71.011        0.062      344.269       20.966      861.679
05/16/2014  21:30:00     -408.778      -98.430      -34.098      184.513      119.183       68.378    34045.123    14204.569     4675.592       11.543        2.646      420.462       81.923        0.038      344.215       20.874      861.683
05/16/2014  21:31:00     -417.222      -99.555      -34.574      212.537      115.942       70.586    45172.026    13442.472     4982.437       12.438        3.180      428.936       98.313        0.053      344.154       20.768      861.676
05/16/2014  21:32:00     -481.616     -100.993      -26.006      132.187      110.715       64.876    17473.469    12257.858     4208.898       13.838        1.697      492.091       56.487        0.013      344.127       20.723      861.676
05/16/2014  21:33:00     -444.327      -97.806      -46.198      130.597      110.954       63.364    17055.564    12310.804     4014.939       12.125        1.669      454.964       42.270        0.009      344.118       20.708      861.646
05/16/2014  21:34:00     -433.335      -94.339      -33.405      146.961      134.574       74.167    21597.477    18110.065     5500.768       12.149        2.260      443.485       57.154        0.017      344.099       20.674      861.624
05/16/2014  21:35:00     -591.374     -157.418      -27.104      180.393      181.320       82.063    32541.688    32877.119     6734.362       22.368        3.608      611.967       82.069        0.018      344.238       20.913      861.640
05/16/2014  21:36:00     -567.138     -143.246      -39.606      151.488      141.846       77.648    22948.470    20120.156     6029.262       19.641        2.455      584.948       78.133        0.018      344.257       20.944      861.643
05/16/2014  21:37:00     -374.745     -124.553      -15.863      172.343      166.333       85.200    29701.982    27666.685     7259.034       11.040        3.231      394.902       83.218        0.044      344.207       20.859      861.624
05/16/2014  21:38:00     -437.188     -107.202      -39.090      137.530      126.823       66.024    18914.401    16084.118     4359.173       12.175        1.968      450.139       55.185        0.015      344.188       20.827      861.614
05/16/2014  21:39:00     -507.625        9.921      -30.008      230.279      189.558      100.267    53028.472    35932.340    10053.515       17.883        4.951      507.722      104.217        0.042      344.247       20.929      861.583
05/16/2014  21:40:00     -517.654      -75.704      -35.902      158.830      142.880       83.094    25227.095    20414.586     6904.648       16.376        2.627      523.160       70.767        0.018      344.256       20.942      861.592
05/16/2014  21:41:00     -419.633      -52.275      -29.796      149.750      146.867       73.352    22425.106    21570.016     5380.491       11.453        2.469      422.877       69.826        0.027      344.238       20.913      861.586
05/16/2014  21:42:00     -555.968      -98.788      -36.705      151.764      138.246       71.162    23032.396    19112.020     5064.070       18.370        2.360      564.676       66.314        0.014      344.261       20.951      861.590
05/16/2014  21:43:00     -567.506      -68.541      -41.517      168.399      118.828       72.096    28358.240    14120.123     5197.880       18.807        2.384      571.630       75.335        0.017      344.257       20.944      861.602
05/16/2014  21:44:00     -634.990      -58.113      -51.269      208.317      235.697       83.040    43395.794    55553.175     6895.620       25.751        5.292      637.644       85.180        0.018      344.294       21.008      861.573
05/16/2014  21:45:00     -461.158      -88.329      -28.501      165.995      137.317       78.213    27554.378    18856.030     6117.203       13.689        2.626      469.541       78.607        0.028      344.229       20.895      861.549
05/16/2014  21:46:00     -400.286      -41.624      -27.013      200.685      140.608       81.769    40274.313    19770.652     6686.094       11.470        3.337      402.445       89.738        0.050      344.173       20.799      861.508
05/16/2014  21:47:00     -437.173      -23.135      -31.715      153.544      121.133       68.821    23575.693    14673.087     4736.295       11.781        2.149      437.785       63.664        0.021      344.186       20.823      861.459
05/16/2014  21:48:00     -463.802      -21.195      -51.530      148.021      145.771       77.531    21910.193    21249.293     6011.043       13.368        2.459      464.286       75.499        0.026      344.200       20.845      861.455
05/16/2014  21:49:00     -436.625     -195.266      -24.241      161.079      134.424       81.643    25946.455    18069.811     6665.525       14.001        2.534      478.299       67.087        0.020      344.175       20.805      861.469
05/16/2014  21:50:00     -439.384      -36.842      -30.525      173.233      146.993       91.247    30009.552    21606.925     8326.021       12.763        2.997      440.926       88.230        0.040      344.204       20.853      861.472
05/16/2014  21:51:00     -339.565     -136.237      -15.957      137.603      126.281       65.292    18934.647    15946.766     4263.009        8.662        1.957      365.875       49.101        0.018      344.147       20.756      861.491
05/16/2014  21:52:00     -513.868       44.538      -42.756      191.947      152.045       82.319    36843.658    23117.560     6776.386       16.729        3.337      515.794       84.446        0.027      344.170       20.795      861.477
05/16/2014  21:53:00     -554.069      -58.602      -38.038      164.967      148.997       78.988    27213.991    22200.107     6239.166       18.375        2.783      557.160       74.656        0.018      344.181       20.813      861.468
05/16/2014  21:54:00     -392.964     -124.875       -6.738      134.891      123.945       76.929    18195.635    15362.353     5918.013       10.476        1.974      412.328       65.853        0.026      344.146       20.753      861.495
05/16/2014  21:55:00     -438.332      -31.707      -26.247      167.096      123.821       80.466    27921.144    15331.535     6474.779       12.177        2.486      439.478       90.476        0.042      344.111       20.694      861.520
05/16/2014  21:56:00     -331.379      -66.312      -22.540      158.620      125.578       58.976    25160.399    15769.916     3478.210        7.955        2.220      337.949       49.538        0.021      344.079       20.640      861.564
05/16/2014  21:57:00     -189.434      -44.233       -6.156      121.395       78.419       43.876    14736.689     6149.475     1925.116        3.034        1.141      194.530       41.126        0.045      343.997       20.500      861.609
05/16/2014  21:58:00     -401.486     -130.576      -15.376      171.622      128.648       76.119    29453.981    16550.233     5794.049       11.513        2.590      422.186       78.052        0.034      344.109       20.691      861.634
05/16/2014  21:59:00     -257.579      -42.520        3.150      121.884       92.036       53.752    14855.659     8470.607     2889.237        4.718        1.311      261.065       52.464        0.040      344.023       20.544      861.652
05/16/2014  22:00:00     -353.517       -7.941      -28.798      127.235      124.106       60.720    16188.705    15402.404     3686.964        8.057        1.764      353.606       55.481        0.025      344.103       20.681      861.644
05/16/2014  22:01:00     -255.892      -27.249      -16.618      101.911       87.631       49.838    10385.930     7679.157     2483.780        4.352        1.027      257.339       39.972        0.024      344.066       20.619      861.638
05/16/2014  22:02:00     -227.031      -22.824      -33.479      124.607      122.056       69.342    15526.864    14897.652     4808.304        4.420        1.762      228.176       62.438        0.075      344.056       20.602      861.628
05/16/2014  22:03:00     -176.475       61.384      -27.368       74.911      118.946       51.298     5611.590    14148.220     2631.473        2.902        1.120      186.846       42.477        0.052      343.962       20.441      861.672
05/16/2014  22:04:00     -267.647      -71.657      -20.125      146.206      120.882       48.758    21376.053    14612.500     2377.321        5.776        1.918      277.074       41.515        0.022      343.982       20.475      861.685
05/16/2014  22:05:00     -276.513      -77.726      -37.953      151.609       79.708       58.541    22985.179     6353.435     3427.087        5.835        1.638      287.230       46.356        0.026      344.001       20.506      861.700
05/16/2014  22:06:00     -195.119      -30.752      -28.494       94.664       89.080       37.797     8961.279     7935.223     1428.602        2.907        0.916      197.528       21.165        0.011      343.916       20.360      861.738
05/16/2014  22:07:00     -209.406       32.940      -14.396       94.721       78.798       59.533     8972.037     6209.158     3544.130        3.193        0.936      211.981       54.321        0.066      343.885       20.309      861.738
05/16/2014  22:08:00      -91.350      101.742       15.959       68.913       75.631       63.746     4749.034     5720.120     4063.556        1.674        0.727      136.734       44.536        0.106      343.775       20.123      861.727
05/16/2014  22:09:00     -197.492       48.044      -40.171      107.988       82.174       45.684    11661.418     6752.643     2086.994        3.171        1.025      203.252       48.778        0.058      343.852       20.253      861.734
05/16/2014  22:10:00     -153.924      -36.167      -20.102       74.842       66.300       43.811     5601.355     4395.710     1919.360        1.866        0.596      158.116       25.004        0.025      343.805       20.174      861.758
05/16/2014  22:11:00     -204.191       33.119      -27.476       73.814       79.067       42.561     5448.555     6251.619     1811.431        2.853        0.676      206.860       11.119        0.003      343.804       20.171      861.762
05/16/2014  22:12:00     -123.479       68.288      -14.779      102.879       96.262       69.483    10584.076     9266.411     4827.919        2.240        1.234      141.104       64.812        0.211      343.827       20.211      861.757
05/16/2014  22:13:00     -161.123      143.676      -24.895       87.581      104.183       49.970     7670.477    10854.103     2496.990        3.412        1.051      215.878       46.425        0.046      343.884       20.307      861.748
05/16/2014  22:14:00     -197.657       22.384      -32.084      118.845      126.097       54.045    14124.122    15900.543     2920.915        3.677        1.647      198.920       55.725        0.078      343.846       20.243      861.744
05/16/2014  22:15:00     -225.341        5.537      -31.092       91.976      111.231       57.995     8459.626    12372.423     3363.432        3.798        1.210      225.409       47.878        0.045      343.877       20.296      861.756
05/16/2014  22:16:00     -124.065       10.795       -3.814       74.287       69.157       56.866     5518.560     4782.694     3233.714        1.453        0.677      124.534       41.942        0.113      343.780       20.131      861.768
05/16/2014  22:17:00     -342.302     -135.858      -15.036      164.464      133.426       66.562    27048.303    17802.480     4430.546        9.256        2.464      368.277       63.305        0.030      343.825       20.207      861.781
05/16/2014  22:18:00     -273.792      -42.169      -19.652      153.641       99.298       61.790    23605.483     9860.021     3817.975        5.720        1.864      277.020       60.572        0.048      343.731       20.045      861.795
05/16/2014  22:19:00     -224.434      104.381      -29.775       97.924       96.754       50.285     9589.062     9361.431     2528.540        4.181        1.074      247.520       48.653        0.039      343.737       20.055      861.818
05/16/2014  22:20:00     -150.176        7.555      -15.684       73.827      100.993       42.448     5450.405    10199.642     1801.814        2.015        0.873      150.366       33.541        0.050      343.768       20.110      861.812
05/16/2014  22:21:00     -222.334       42.511      -21.789       75.326       99.792       49.052     5674.036     9958.539     2406.052        3.487        0.902      226.362       35.590        0.025      343.820       20.197      861.805
05/16/2014  22:22:00     -276.608      -55.771      -36.748      132.691       80.872       55.097    17606.804     6540.224     3035.659        5.407        1.359      282.174       60.796        0.046      343.754       20.085      861.816
05/16/2014  22:23:00     -266.922      -43.191      -20.441      109.724       67.127       56.219    12039.439     4506.087     3160.521        4.661        0.985      270.394       35.232        0.017      343.779       20.129      861.841
05/16/2014  22:24:00     -261.658     -123.496       -3.605       91.211       84.209       51.777     8319.512     7091.205     2680.824        5.091        0.905      289.338       48.556        0.028      343.671       19.941      861.867
05/16/2014  22:25:00     -197.414      -55.890       -3.057       88.712       64.459       44.415     7869.752     4154.936     1972.653        2.805        0.700      205.173       41.313        0.041      343.619       19.854      861.885
05/16/2014  22:26:00     -174.070      -89.443      -16.234      101.308       91.435       56.990    10263.340     8360.272     3247.914        3.021        1.094      195.705       45.847        0.055      343.637       19.886      861.885
05/16/2014  22:27:00     -178.490      -11.713       -5.702       74.991       91.099       48.315     5623.681     8298.958     2334.354        2.414        0.813      178.874       40.456        0.051      343.615       19.850      861.897
05/16/2014  22:28:00     -194.489        4.626      -31.309       71.117       72.844       47.251     5057.600     5306.223     2232.675        2.571        0.630      194.544       36.342        0.035      343.632       19.877      861.898
05/16/2014  22:29:00     -223.732      -16.814      -35.638       73.167       98.390       46.690     5353.390     9680.653     2179.963        3.441        0.861      224.363       32.166        0.021      343.732       20.048      861.914
05/16/2014  22:30:00     -152.701      -29.828      -12.204      146.693       84.612       84.700    21518.708     7159.180     7174.028        3.010        1.793      155.587       95.279        0.375      343.727       20.040      861.907
05/16/2014  22:31:00     -223.813      -83.229      -24.913      100.792       87.662       49.098    10159.014     7684.554     2410.626        3.894        1.013      238.787       50.826        0.045      343.780       20.130      861.918
05/16/2014  22:32:00     -195.015      -38.714      -31.494       87.799       91.074       61.055     7708.688     8294.425     3727.698        3.012        0.987      198.820       40.557        0.042      343.767       20.106      861.911
05/16/2014  22:33:00     -255.794      -57.031      -11.995       77.473      112.473       41.637     6002.007    12650.284     1733.641        4.460        1.019      262.075       28.133        0.012      343.701       19.994      861.890
05/16/2014  22:34:00     -262.437      -80.488      -13.694       92.814       75.350       48.318     8614.372     5677.648     2334.635        4.608        0.831      274.502       35.114        0.016      343.628       19.870      861.884
05/16/2014  22:35:00     -262.048      -82.143      -16.656       80.051       52.270       40.054     6408.187     2732.103     1604.301        4.322        0.537      274.621       38.968        0.020      343.592       19.807      861.854
05/16/2014  22:36:00     -276.942      -88.104      -19.327      107.137       87.344       46.048    11478.327     7628.999     2120.401        5.303        1.061      290.619       41.972        0.021      343.575       19.779      861.825
05/16/2014  22:37:00     -345.107      -79.974      -36.514       70.871      102.082       41.272     5022.633    10420.749     1703.341        7.198        0.857      354.253       24.582        0.005      343.581       19.788      861.805
05/16/2014  22:38:00     -214.446      -77.432        6.514      125.800      116.422       54.799    15825.564    13554.132     3002.910        4.220        1.619      227.998       52.769        0.054      343.514       19.676      861.788
05/16/2014  22:39:00     -291.634      -72.863      -27.464       66.152       94.205       49.910     4376.049     8874.672     2491.056        5.342        0.787      300.598       29.330        0.010      343.569       19.767      861.779
05/16/2014  22:40:00     -298.270      -38.736      -14.141       94.094       95.268       42.877     8853.704     9075.905     1838.409        5.521        0.988      300.775       44.871        0.022      343.521       19.687      861.768
05/16/2014  22:41:00     -358.366      -57.288      -26.490      142.559       97.368       69.365    20323.042     9480.446     4811.528        8.351        1.731      362.916       69.308        0.036      343.576       19.781      861.754
05/16/2014  22:42:00     -364.770      -56.229      -25.077      152.960       98.804       64.535    23396.829     9762.211     4164.798        8.708        1.866      369.078       73.708        0.040      343.576       19.782      861.742
05/16/2014  22:43:00     -367.694     -112.271      -25.391      105.234      104.705       56.646    11074.135    10963.138     3208.820        8.684        1.262      384.453       55.308        0.021      343.544       19.726      861.734
05/16/2014  22:44:00     -315.611      -82.470      -23.425       99.110       77.740       52.436     9822.735     6043.562     2749.543        6.278        0.931      326.208       47.505        0.021      343.451       19.569      861.729
05/16/2014  22:45:00     -340.010      -91.775      -11.602      100.378       94.992       55.851    10075.706     9023.395     3119.387        7.319        1.111      352.178       51.096        0.021      343.435       19.540      861.738
05/16/2014  22:46:00     -306.281      -39.734      -20.897       91.852       75.868       56.304     8436.709     5755.982     3170.153        5.659        0.868      308.848       54.485        0.031      343.364       19.421      861.734
05/16/2014  22:47:00     -224.591      -50.704       -0.058      110.455       70.457       41.042    12200.208     4964.159     1684.445        3.593        0.942      230.243       37.616        0.027      343.307       19.323      861.727
05/16/2014  22:48:00     -245.685      -53.748       -7.022      112.620       75.407       56.504    12683.155     5686.182     3192.674        4.243        1.078      251.495       55.999        0.050      343.218       19.173      861.718
05/16/2014  22:49:00     -299.331      -66.509      -19.474      108.898       87.885       58.120    11858.819     7723.795     3377.978        5.868        1.148      306.631       53.535        0.030      343.228       19.188      861.715
05/16/2014  22:50:00     -325.609      -79.222      -30.841      101.408       81.883       48.820    10283.669     6704.750     2383.378        6.631        0.969      335.108       29.810        0.008      343.251       19.227      861.697
05/16/2014  22:51:00     -290.914      -66.125      -25.402      116.015       89.377       56.815    13459.374     7988.248     3227.903        5.716        1.234      298.335       53.833        0.033      343.218       19.171      861.685
05/16/2014  22:52:00     -281.132      -93.704      -13.543      107.345       91.869       50.320    11522.958     8439.881     2532.096        5.524        1.125      296.337       50.091        0.029      343.209       19.156      861.682
05/16/2014  22:53:00     -351.858      -71.164      -15.378      100.134       86.833       53.142    10026.871     7539.970     2824.106        7.474        1.020      358.982       48.267        0.018      343.246       19.217      861.690
05/16/2014  22:54:00     -337.896      -97.720      -17.281       95.781       92.475       57.024     9174.045     8551.710     3251.692        7.250        1.049      351.743       43.186        0.015      343.428       19.529      861.677
05/16/2014  22:55:00     -337.395      -47.971      -21.559      130.249       81.689       60.453    16964.736     6673.121     3654.505        7.194        1.365      340.788       67.456        0.039      343.327       19.356      861.678
05/16/2014  22:56:00     -296.957      -92.983      -31.362      127.786       94.432       49.725    16329.235     8917.420     2472.544        6.276        1.386      311.175       50.606        0.026      343.332       19.365      861.664
05/16/2014  22:57:00     -245.057     -102.196      -10.658       82.202       72.176       47.720     6757.122     5209.376     2277.159        4.242        0.712      265.513       40.044        0.023      343.232       19.196      861.651
05/16/2014  22:58:00     -216.721      -53.996        1.436       81.851      120.037       52.190     6699.548    14408.792     2723.821        3.685        1.192      223.346       44.796        0.040      343.158       19.069      861.639
05/16/2014  22:59:00     -275.179      -60.763      -15.978       94.580       71.560       41.189     8945.403     5120.860     1696.526        4.771        0.788      281.808       44.201        0.025      343.256       19.235      861.645
05/16/2014  23:00:00     -208.318      -32.148       -2.270      117.575       82.697       51.937    13823.912     6838.809     2697.443        3.389        1.168      210.784       53.611        0.065      343.147       19.051      861.639
05/16/2014  23:01:00     -160.981      -35.503        9.727      108.401       75.970       45.702    11750.843     5771.403     2088.689        2.344        0.981      164.850       50.413        0.094      343.189       19.125      861.624
05/16/2014  23:02:00     -195.542      -28.640       -1.797       82.310       88.162       51.269     6774.863     7772.546     2628.545        2.811        0.859      197.629       39.756        0.040      343.240       19.209      861.608
05/16/2014  23:03:00     -225.057      -87.539       -2.319       99.405      101.833       49.433     9881.414    10369.890     2443.590        4.050        1.135      241.482       50.743        0.044      343.179       19.104      861.611
05/16/2014  23:04:00     -183.227      -37.002       -1.310       99.395       80.124       47.313     9879.441     6419.792     2238.562        2.674        0.927      186.926       56.120        0.090      343.154       19.064      861.615
05/16/2014  23:05:00     -207.245     -119.036       10.163       95.629       80.552       62.447     9144.880     6488.692     3899.623        3.837        0.977      238.998       57.814        0.059      343.184       19.112      861.595
05/16/2014  23:06:00     -239.075     -118.032       -8.872      105.017       89.699       47.747    11028.574     8045.969     2279.779        4.626        1.068      266.624       48.800        0.033      343.348       19.393      861.588
05/16/2014  23:07:00     -229.890      -92.902       -8.350       93.737      110.896       53.096     8786.654    12297.829     2819.154        4.272        1.195      247.952       63.035        0.065      343.353       19.401      861.589
05/16/2014  23:08:00     -178.366      -97.148        2.095      113.691       78.358       45.475    12925.568     6139.921     2067.944        3.119        1.057      203.106       51.412        0.064      343.310       19.328      861.596
05/16/2014  23:09:00     -279.282      -87.762       -1.660      105.911       77.642       49.734    11217.151     6028.284     2473.465        5.271        0.986      292.747       49.675        0.029      343.284       19.282      861.596
05/16/2014  23:10:00     -238.961      -88.193       -7.984      130.154       81.999       55.615    16940.044     6723.840     3093.074        4.585        1.338      254.716       60.680        0.057      343.365       19.423      861.578
05/16/2014  23:11:00     -171.939      -50.652        6.342       88.316       83.718       46.563     7799.777     7008.667     2168.101        2.457        0.849      179.245       30.863        0.030      343.312       19.334      861.564
05/16/2014  23:12:00     -245.936     -117.317       -4.170       85.815       78.247       55.091     7364.129     6122.608     3034.993        4.539        0.826      272.484       49.630        0.033      343.385       19.456      861.568
05/16/2014  23:13:00     -259.046      -60.713       -8.806       99.798       69.710       42.792     9959.594     4859.424     1831.171        4.376        0.833      266.066       47.485        0.032      343.362       19.417      861.541
05/16/2014  23:14:00     -298.064      -83.209       -9.679      103.213      112.917       52.872    10652.876    12750.353     2795.482        6.102        1.310      309.461       49.970        0.026      343.384       19.455      861.532
05/16/2014  23:15:00     -127.945      -29.635       -0.666       81.053       71.959       44.645     6569.640     5178.110     1993.181        1.549        0.687      131.333       40.044        0.093      343.148       19.055      861.538
05/16/2014  23:16:00     -195.858      -81.827      -17.209       96.403       90.760       53.789     9293.561     8237.351     2893.226        3.288        1.021      212.264       46.667        0.048      343.220       19.175      861.529
05/16/2014  23:17:00     -275.841      -43.190       -7.143      117.032      109.911       60.208    13696.586    12080.424     3624.970        5.370        1.470      279.202       63.478        0.052      343.295       19.302      861.530
05/16/2014  23:18:00     -239.933     -147.053       -5.749      165.310      109.448       63.327    27327.555    11978.871     4010.339        6.126        2.166      281.411       82.688        0.086      343.305       19.320      861.539
05/16/2014  23:19:00     -152.810      -61.298        5.702       99.886       85.730       45.216     9977.282     7349.617     2044.507        2.325        0.969      164.646       41.800        0.064      343.144       19.046      861.550
05/16/2014  23:20:00     -257.469      -42.072      -13.020      166.241       83.801       69.373    27635.932     7022.602     4812.629        5.384        1.974      260.884       84.893        0.106      343.325       19.353      861.551
05/16/2014  23:21:00     -242.327      -89.287       13.986      153.508      128.590       62.156    23564.731    16535.494     3863.381        5.542        2.198      258.253       69.694        0.073      343.518       19.684      861.560
05/16/2014  23:22:00     -193.616      -95.126       -9.835      101.213       80.591       44.975    10244.083     6494.901     2022.706        3.269        0.938      215.723       41.785        0.038      343.450       19.567      861.568
05/16/2014  23:23:00     -273.985      -53.383       -0.318      176.168      150.829       76.809    31035.225    22749.291     5899.647        6.879        2.984      279.137       97.240        0.121      343.399       19.479      861.553
05/16/2014  23:24:00     -466.226      -71.282      -15.433      167.725      122.101       80.535    28131.602    14908.547     6485.862       13.610        2.476      471.644       84.310        0.032      343.594       19.812      861.542
05/16/2014  23:25:00     -298.797      -83.186      -14.910      140.905      114.687       65.382    19854.347    13153.147     4274.818        6.684        1.864      310.161       71.382        0.053      343.472       19.605      861.552
05/16/2014  23:26:00     -234.758      -40.517      -12.187      158.521      137.185       68.561    25128.783    18819.823     4700.655        5.277        2.432      238.228       65.769        0.076      343.546       19.731      861.577
05/16/2014  23:27:00     -242.272     -100.363       -5.865      112.249      125.385       70.202    12599.790    15721.431     4928.296        5.102        1.662      262.237       52.944        0.041      343.539       19.719      861.594
05/16/2014  23:28:00     -237.891       30.398       -8.761      128.992       72.196       43.059    16638.873     5212.232     1854.084        4.064        1.185      239.825       36.920        0.024      343.553       19.743      861.605
05/16/2014  23:29:00     -164.013       -8.561        4.215       89.017       77.345       46.764     7924.063     5982.174     2186.856        2.154        0.805      164.236       43.672        0.071      343.358       19.411      861.621
05/16/2014  23:30:00     -160.016      -17.565        1.586       94.610       65.287       42.539     8951.116     4262.425     1809.562        2.047        0.751      160.977       46.396        0.083      343.443       19.556      861.628
05/16/2014  23:31:00     -247.612      -28.910      -20.837      106.402      101.670       48.956    11321.288    10336.780     2396.641        4.331        1.203      249.294       51.334        0.042      343.517       19.682      861.644
05/16/2014  23:32:00     -130.384      -81.658       14.207      119.521      126.740       56.515    14285.156    16062.937     3193.989        2.870        1.677      153.844       63.046        0.168      343.453       19.573      861.627
05/16/2014  23:33:00     -173.584       16.389       -7.318      155.674      102.408       50.665    24234.306    10487.365     2566.897        3.386        1.864      174.356       62.382        0.128      343.497       19.649      861.636
05/16/2014  23:34:00      -33.914      -77.057       14.656       54.168       39.328       27.847     2934.168     1546.702      775.456        0.628        0.263       84.190       30.153        0.128      343.467       19.600      861.647
05/16/2014  23:35:00       -6.523      -56.844       33.737       61.344       54.486       35.524     3763.028     2968.692     1261.926        0.620        0.400       57.217       35.811        0.392      343.201       19.148      861.668
05/16/2014  23:36:00      -76.695       -0.589        6.825       62.499       75.071       37.113     3906.102     5635.682     1377.405        0.842        0.546       76.697       29.758        0.151      343.445       19.562      861.678
05/16/2014  23:37:00      -71.815        2.181        2.137       60.495       68.198       37.608     3659.660     4651.019     1414.374        0.744        0.486       71.848       31.702        0.195      343.467       19.599      861.662
05/16/2014  23:38:00      -70.436      -91.627       -8.840       69.785       86.376       32.767     4869.950     7460.855     1073.694        1.342        0.670      115.571       23.554        0.042      343.630       19.874      861.663
05/16/2014  23:39:00     -122.533       24.494      -10.961       63.114       34.574       24.534     3983.411     1195.391      601.903        1.076        0.289      124.957       12.052        0.009      343.581       19.792      861.658
05/16/2014  23:40:00      -48.562        7.888       13.555       84.913       40.730       31.402     7210.180     1658.895      986.100        0.623        0.493       49.198       37.464        0.580      343.167       19.089      861.622
05/16/2014  23:41:00       -9.225      -75.621       15.712       72.350       46.560       35.581     5234.496     2167.812     1266.027        0.736        0.433       76.181       32.745        0.185      343.091       18.961      861.615
05/16/2014  23:42:00      -63.548      -20.729       10.977       66.341       47.812       34.393     4401.063     2286.010     1182.855        0.623        0.393       66.843       35.674        0.285      343.437       19.548      861.603
05/16/2014  23:43:00      -18.578      -14.806       14.059       48.677       51.319       34.452     2369.474     2633.652     1186.953        0.347        0.310       23.756       35.014        2.172      342.680       18.259      861.602
05/16/2014  23:44:00      -12.220      -28.254       17.989       73.463      105.182       44.308     5396.797    11063.309     1963.187        0.984        0.921       30.783       41.231        1.794      343.229       19.195      861.591
05/16/2014  23:45:00     -191.992       13.055       -2.797       53.312      102.924       40.413     2842.151    10593.442     1633.224        2.605        0.753      192.436       29.520        0.024      343.524       19.693      861.596
05/16/2014  23:46:00     -160.729      -44.958       -9.568       60.560       60.116       33.906     3667.545     3613.874     1149.603        1.819        0.422      166.898       30.797        0.034      343.373       19.436      861.600
05/16/2014  23:47:00      -76.347        8.686        0.389       40.515       44.012       30.820     1641.480     1937.057      949.880        0.522        0.226       76.840       26.457        0.119      343.362       19.420      861.594
05/16/2014  23:48:00      -84.448      -41.445        3.089       52.110       47.088       31.873     2715.477     2217.260     1015.878        0.740        0.297       94.070       24.192        0.066      343.140       19.042      861.598
05/16/2014  23:49:00     -201.246      -70.282        0.569      135.934       72.319       42.104    18478.093     5230.060     1772.739        3.546        1.274      213.165       49.045        0.053      343.239       19.208      861.593
05/16/2014  23:50:00      -69.800      -36.335        3.876       60.278       56.692       28.441     3633.493     3213.979      808.878        0.693        0.383       78.691        9.755        0.015      343.284       19.288      861.594
05/16/2014  23:51:00       -0.617      -31.905        1.841       61.688       41.461       31.462     3805.418     1719.011      989.858        0.377        0.326       31.911       17.157        0.289      342.933       18.689      861.609
05/16/2014  23:52:00     -134.612       -3.985       14.162      105.762       72.549       47.899    11185.510     5263.396     2294.303        1.854        0.937      134.671       61.099        0.206      343.052       18.890      861.614
05/16/2014  23:53:00      -54.085       15.611       -3.790       60.664       32.853       26.403     3680.069     1079.312      697.100        0.432        0.273       56.293       26.496        0.222      343.053       18.893      861.608
05/16/2014  23:54:00        0.730       18.315       12.968       44.886       25.953       24.726     2014.733      673.535      611.372        0.190        0.165       18.330       10.091        0.303      342.270       17.562      861.601
05/16/2014  23:55:00        6.587       -4.855        5.517       63.462       31.250       39.068     4027.447      976.534     1526.315        0.331        0.327        8.183       29.893       13.346      343.016       18.831      861.605
05/16/2014  23:56:00     -101.306      -12.060       17.023       87.570       51.571       44.124     7668.491     2659.558     1946.935        1.148        0.614      102.021       53.478        0.275      342.918       18.663      861.594
05/16/2014  23:57:00       45.596       -6.175       11.136       38.518       30.013       22.209     1483.655      900.752      493.232        0.256        0.144       46.012       14.522        0.100      341.961       17.037      861.599
05/16/2014  23:58:00       46.766        0.938       -1.003       77.937       61.327       35.768     6074.245     3760.948     1279.369        0.665        0.556       46.775       32.605        0.486      342.054       17.196      861.590
05/16/2014  23:59:00       -8.000       -1.512        6.027       18.149       41.325       16.045      329.377     1707.745      257.427        0.120        0.115        8.142       12.471        2.346      342.142       17.344      861.598
